[[{"header":{"parameterUnit":"m.s-1","parameterCategory":1,"la1":30.6,"la2":29.2853,"lo1":-89.7004,"lo2":-87.6739,"dy":0.0162,"dx":0.0183,"nx":112,"ny":82,"refTime":"2023-09-03T12:00:00:Z","depth":0,"parameterNumber":2,"parameterNumberName":"U-component_of_WINDS"},"data":[0.0,0.0,0.0,0.0,0.0,0.0,0.0,0.0,0.0,0.0,0.0,0.0,0.0,0.0,0.0,0.0,0.0,0.0,0.0,0.0,0.0,0.0,0.0,0.0,0.0,0.0,0.0,0.0,0.0,0.0,0.0,0.0,0.0,0.0,0.0,0.0,0.0,0.0,0.0,0.0,0.0,0.0,0.0,0.0,0.0,0.0,0.0,0.0,0.0,0.0,0.0,0.0,0.0,0.0,0.0,0.0,0.0,0.0,0.0,0.0,0.0,0.0,0.0,0.0,0.0,0.0,0.0,0.0,0.0,0.0,0.0,0.0,0.0,0.0,0.0,0.0,0.0,0.0,0.0,0.0,0.0,0.0,0.0,0.0,0.0,0.0,0.0,0.0,0.0,0.0,-1.7783,-1.8309,-1.7788,-1.7617,-1.8066,-1.7772,-1.7617,-1.776,0.0,0.0,0.0,0.0,0.0,0.0,0.0,0.0,0.0,0.0,0.0,0.0,0.0,0.0,0.0,0.0,0.0,0.0,0.0,0.0,0.0,0.0,0.0,0.0,0.0,0.0,0.0,0.0,0.0,0.0,0.0,0.0,0.0,0.0,0.0,0.0,0.0,0.0,0.0,0.0,0.0,0.0,0.0,0.0,0.0,0.0,0.0,0.0,0.0,0.0,0.0,0.0,0.0,0.0,0.0,0.0,0.0,0.0,0.0,0.0,0.0,0.0,0.0,0.0,0.0,0.0,0.0,0.0,0.0,0.0,0.0,0.0,0.0,0.0,0.0,0.0,0.0,0.0,0.0,0.0,0.0,0.0,0.0,0.0,0.0,0.0,0.0,0.0,0.0,0.0,0.0,0.0,0.0,0.0,0.0,0.0,0.0,0.0,0.0,0.0,0.0,0.0,0.0,0.0,-1.896,-1.9488,-1.8605,-1.8023,-1.8093,-1.8494,-1.8278,-1.7196,0.0,0.0,0.0,0.0,0.0,0.0,0.0,0.0,0.0,0.0,0.0,0.0,0.0,0.0,0.0,0.0,0.0,0.0,0.0,0.0,0.0,0.0,0.0,0.0,0.0,0.0,0.0,0.0,0.0,0.0,0.0,0.0,0.0,0.0,0.0,0.0,0.0,0.0,0.0,0.0,0.0,0.0,0.0,0.0,0.0,0.0,0.0,0.0,0.0,0.0,0.0,0.0,0.0,0.0,0.0,0.0,0.0,0.0,0.0,0.0,0.0,0.0,0.0,0.0,0.0,0.0,0.0,0.0,0.0,0.0,0.0,0.0,0.0,0.0,0.0,0.0,0.0,0.0,0.0,0.0,0.0,0.0,0.0,0.0,0.0,0.0,0.0,0.0,0.0,0.0,0.0,0.0,0.0,0.0,0.0,0.0,0.0,0.0,0.0,0.0,0.0,0.0,0.0,-1.8077,-1.8617,-1.8845,-1.8159,-1.7936,-1.8548,-1.8263,-1.8018,-1.782,-1.719,0.0,0.0,0.0,0.0,0.0,0.0,0.0,0.0,0.0,0.0,0.0,0.0,0.0,0.0,0.0,0.0,0.0,0.0,0.0,0.0,0.0,0.0,0.0,0.0,0.0,0.0,0.0,0.0,0.0,0.0,0.0,0.0,0.0,0.0,0.0,0.0,0.0,0.0,0.0,0.0,0.0,0.0,0.0,0.0,0.0,0.0,0.0,0.0,0.0,0.0,0.0,0.0,0.0,0.0,0.0,0.0,0.0,0.0,0.0,0.0,0.0,0.0,0.0,0.0,0.0,0.0,0.0,0.0,0.0,0.0,0.0,0.0,0.0,0.0,0.0,0.0,0.0,0.0,0.0,0.0,0.0,0.0,0.0,0.0,0.0,0.0,0.0,0.0,0.0,0.0,0.0,0.0,0.0,0.0,0.0,0.0,0.0,0.0,0.0,0.0,0.0,0.0,-1.8336,-1.8551,-1.8712,-1.8224,-1.8236,-1.9107,-1.8398,-1.8034,-1.839,-1.7694,0.0,0.0,0.0,0.0,0.0,0.0,0.0,0.0,0.0,0.0,0.0,0.0,0.0,0.0,0.0,0.0,0.0,0.0,0.0,0.0,0.0,0.0,0.0,0.0,0.0,0.0,0.0,0.0,0.0,0.0,0.0,0.0,0.0,0.0,0.0,0.0,0.0,0.0,0.0,0.0,0.0,0.0,0.0,0.0,0.0,0.0,0.0,0.0,0.0,0.0,0.0,0.0,0.0,0.0,0.0,0.0,0.0,0.0,0.0,0.0,0.0,0.0,0.0,0.0,0.0,0.0,0.0,0.0,0.0,0.0,0.0,0.0,0.0,0.0,0.0,0.0,0.0,0.0,0.0,0.0,0.0,0.0,0.0,0.0,0.0,0.0,0.0,0.0,0.0,0.0,0.0,0.0,0.0,0.0,0.0,0.0,0.0,0.0,0.0,0.0,0.0,0.0,-1.9267,-1.9901,-2.0473,-1.9991,-1.9643,-1.9747,-1.9669,-1.9188,-1.8201,-1.8405,0.0,0.0,0.0,0.0,0.0,0.0,0.0,0.0,0.0,0.0,0.0,0.0,0.0,0.0,0.0,0.0,0.0,0.0,0.0,0.0,0.0,0.0,0.0,0.0,0.0,0.0,0.0,0.0,0.0,0.0,0.0,0.0,0.0,0.0,0.0,0.0,0.0,0.0,0.0,0.0,0.0,0.0,0.0,0.0,0.0,0.0,0.0,0.0,0.0,0.0,0.0,0.0,0.0,0.0,0.0,0.0,0.0,0.0,0.0,0.0,0.0,0.0,0.0,0.0,0.0,0.0,0.0,0.0,0.0,0.0,0.0,0.0,0.0,0.0,0.0,0.0,0.0,0.0,0.0,0.0,0.0,0.0,0.0,0.0,0.0,0.0,0.0,0.0,0.0,0.0,0.0,0.0,0.0,0.0,0.0,0.0,0.0,0.0,0.0,0.0,0.0,0.0,-1.9056,-1.9526,-2.0067,-1.963,-1.9448,-1.9773,-1.95,-1.9069,-1.8513,0.0,0.0,0.0,0.0,0.0,0.0,0.0,0.0,0.0,0.0,0.0,0.0,0.0,0.0,0.0,0.0,0.0,0.0,0.0,0.0,0.0,0.0,0.0,0.0,0.0,0.0,0.0,0.0,0.0,0.0,0.0,0.0,0.0,0.0,0.0,0.0,0.0,0.0,0.0,0.0,0.0,0.0,0.0,0.0,0.0,0.0,0.0,0.0,0.0,0.0,0.0,0.0,0.0,0.0,0.0,0.0,0.0,0.0,0.0,0.0,0.0,0.0,0.0,0.0,0.0,0.0,0.0,0.0,0.0,0.0,0.0,0.0,0.0,0.0,0.0,0.0,0.0,0.0,0.0,0.0,0.0,0.0,0.0,0.0,0.0,0.0,0.0,0.0,0.0,0.0,0.0,0.0,0.0,0.0,0.0,0.0,0.0,0.0,0.0,0.0,0.0,0.0,-1.8927,-1.9305,-1.9682,-2.0042,-1.9759,-1.9694,-2.0042,-1.9734,-1.9344,-1.8818,0.0,0.0,0.0,0.0,0.0,0.0,0.0,0.0,0.0,0.0,0.0,0.0,0.0,0.0,0.0,0.0,0.0,0.0,0.0,0.0,0.0,0.0,0.0,0.0,0.0,0.0,0.0,0.0,0.0,0.0,0.0,0.0,0.0,0.0,0.0,0.0,0.0,0.0,0.0,0.0,0.0,0.0,0.0,0.0,0.0,0.0,0.0,0.0,0.0,0.0,0.0,0.0,0.0,0.0,0.0,0.0,0.0,0.0,0.0,0.0,0.0,0.0,0.0,0.0,0.0,0.0,0.0,0.0,0.0,0.0,0.0,0.0,0.0,0.0,0.0,0.0,0.0,0.0,0.0,0.0,0.0,0.0,0.0,0.0,0.0,0.0,0.0,0.0,0.0,0.0,0.0,0.0,0.0,0.0,0.0,0.0,0.0,0.0,0.0,0.0,0.0,0.0,-1.9593,-2.0245,-2.0699,-2.0699,-2.0712,-2.0712,-2.0699,-2.0712,-2.022,0.0,0.0,0.0,0.0,0.0,0.0,0.0,0.0,0.0,0.0,0.0,0.0,0.0,0.0,0.0,0.0,0.0,0.0,0.0,0.0,0.0,0.0,0.0,0.0,0.0,0.0,0.0,0.0,0.0,0.0,0.0,0.0,0.0,0.0,0.0,0.0,0.0,0.0,0.0,0.0,0.0,0.0,0.0,0.0,0.0,0.0,0.0,0.0,0.0,0.0,0.0,0.0,0.0,0.0,0.0,0.0,0.0,0.0,0.0,0.0,0.0,0.0,0.0,0.0,0.0,0.0,0.0,0.0,0.0,0.0,0.0,0.0,0.0,0.0,0.0,0.0,0.0,0.0,0.0,0.0,0.0,0.0,0.0,0.0,0.0,0.0,0.0,0.0,0.0,0.0,0.0,0.0,0.0,0.0,0.0,0.0,0.0,0.0,0.0,0.0,0.0,0.0,0.0,-1.9747,-2.0296,-2.0699,-2.0699,-2.104,-2.1119,-2.0738,-2.1053,-2.0965,-2.0254,0.0,0.0,0.0,0.0,0.0,0.0,0.0,0.0,0.0,0.0,0.0,0.0,0.0,0.0,0.0,0.0,0.0,0.0,0.0,0.0,0.0,0.0,0.0,0.0,0.0,0.0,0.0,0.0,0.0,0.0,0.0,0.0,0.0,0.0,0.0,0.0,0.0,0.0,0.0,0.0,0.0,0.0,0.0,0.0,0.0,0.0,0.0,0.0,0.0,0.0,0.0,0.0,0.0,0.0,0.0,0.0,0.0,0.0,0.0,0.0,0.0,0.0,0.0,0.0,0.0,0.0,0.0,0.0,0.0,0.0,0.0,0.0,0.0,0.0,0.0,0.0,0.0,0.0,0.0,0.0,0.0,0.0,0.0,0.0,0.0,0.0,0.0,0.0,0.0,0.0,0.0,0.0,0.0,0.0,0.0,0.0,0.0,0.0,0.0,0.0,0.0,0.0,-2.0783,-2.094,-2.1106,-2.1367,-2.1668,-2.1721,-2.1407,-2.1668,-2.1534,-2.0758,0.0,0.0,0.0,0.0,0.0,0.0,0.0,0.0,0.0,0.0,0.0,0.0,0.0,0.0,0.0,0.0,0.0,0.0,0.0,0.0,0.0,0.0,0.0,0.0,0.0,0.0,0.0,0.0,0.0,0.0,0.0,0.0,0.0,0.0,0.0,0.0,0.0,0.0,0.0,0.0,0.0,0.0,0.0,0.0,0.0,0.0,0.0,0.0,0.0,0.0,0.0,0.0,0.0,0.0,0.0,0.0,0.0,0.0,0.0,0.0,0.0,0.0,0.0,0.0,0.0,0.0,0.0,0.0,0.0,0.0,0.0,0.0,0.0,0.0,0.0,0.0,0.0,0.0,0.0,0.0,0.0,0.0,0.0,0.0,0.0,0.0,0.0,0.0,0.0,0.0,0.0,0.0,0.0,0.0,0.0,0.0,0.0,0.0,0.0,0.0,0.0,0.0,-2.2284,-2.1904,-2.1786,-2.2336,-2.244,-2.2453,-2.24,-2.2452,-2.204,-2.1015,0.0,0.0,0.0,0.0,0.0,0.0,0.0,0.0,0.0,0.0,0.0,0.0,0.0,0.0,0.0,0.0,0.0,0.0,0.0,0.0,0.0,0.0,0.0,0.0,0.0,0.0,0.0,0.0,0.0,0.0,0.0,0.0,0.0,0.0,0.0,0.0,0.0,0.0,0.0,0.0,0.0,0.0,0.0,0.0,0.0,0.0,0.0,0.0,0.0,0.0,0.0,0.0,0.0,0.0,0.0,0.0,0.0,0.0,0.0,0.0,-2.2219,-2.1689,0.0,0.0,0.0,0.0,0.0,0.0,0.0,0.0,0.0,0.0,0.0,0.0,0.0,0.0,0.0,0.0,0.0,0.0,0.0,0.0,0.0,0.0,0.0,0.0,0.0,0.0,0.0,0.0,0.0,0.0,0.0,0.0,0.0,0.0,0.0,0.0,0.0,0.0,0.0,0.0,-2.2362,-2.2283,-2.227,-2.2387,-2.2779,-2.2858,-2.244,-2.2779,-2.2932,-2.2691,-2.2367,0.0,0.0,0.0,0.0,0.0,0.0,0.0,0.0,0.0,0.0,0.0,0.0,0.0,0.0,0.0,0.0,0.0,0.0,0.0,0.0,0.0,0.0,0.0,0.0,0.0,0.0,0.0,0.0,0.0,0.0,0.0,0.0,0.0,0.0,0.0,0.0,0.0,0.0,0.0,0.0,0.0,0.0,0.0,0.0,0.0,0.0,0.0,0.0,0.0,0.0,0.0,0.0,0.0,0.0,0.0,0.0,0.0,0.0,0.0,-2.3341,-2.3011,0.0,0.0,0.0,0.0,0.0,0.0,0.0,0.0,0.0,0.0,0.0,0.0,0.0,0.0,0.0,0.0,0.0,0.0,0.0,0.0,0.0,0.0,0.0,0.0,0.0,0.0,0.0,0.0,0.0,0.0,0.0,0.0,0.0,0.0,0.0,0.0,0.0,0.0,0.0,0.0,-2.3145,-2.2949,-2.2897,-2.3197,-2.3485,-2.3524,-2.3223,-2.3472,-2.3496,-2.3208,-2.321,0.0,0.0,0.0,0.0,0.0,0.0,0.0,0.0,0.0,0.0,0.0,0.0,0.0,0.0,0.0,0.0,0.0,0.0,0.0,0.0,0.0,0.0,0.0,0.0,0.0,0.0,0.0,0.0,0.0,0.0,0.0,0.0,0.0,0.0,0.0,0.0,0.0,0.0,0.0,0.0,0.0,0.0,0.0,0.0,0.0,0.0,0.0,0.0,0.0,0.0,0.0,0.0,0.0,-2.461,-2.4671,-2.4671,-2.4671,-2.4671,-2.4635,-2.4466,-2.4365,-2.4297,-2.425,0.0,0.0,0.0,0.0,0.0,0.0,0.0,0.0,0.0,0.0,0.0,0.0,0.0,0.0,0.0,0.0,0.0,0.0,0.0,0.0,0.0,0.0,-2.3428,-2.2928,-2.283,-2.2746,-2.2367,0.0,0.0,0.0,0.0,0.0,0.0,0.0,0.0,0.0,0.0,0.0,-2.3995,-2.3652,-2.3535,-2.4031,-2.4083,-2.4083,-2.4083,-2.4083,-2.3903,-2.3378,-2.3809,-2.3681,0.0,0.0,0.0,0.0,0.0,0.0,0.0,0.0,0.0,0.0,0.0,0.0,0.0,0.0,0.0,0.0,0.0,0.0,0.0,0.0,0.0,0.0,0.0,0.0,0.0,0.0,0.0,0.0,0.0,0.0,0.0,0.0,-2.2212,-2.2289,0.0,0.0,0.0,0.0,0.0,0.0,0.0,0.0,0.0,0.0,0.0,0.0,0.0,-2.4271,-2.4179,-2.482,-2.5158,-2.5173,-2.5826,-2.6118,-2.6118,-2.6118,-2.6087,-2.6034,-2.6012,0.0,-2.4302,-2.4297,0.0,0.0,0.0,0.0,0.0,0.0,0.0,0.0,0.0,0.0,0.0,0.0,0.0,0.0,0.0,0.0,0.0,0.0,0.0,0.0,0.0,0.0,-2.4162,-2.4078,-2.3745,-2.3613,-2.4111,-2.2545,-2.0997,-2.0997,-2.1409,-2.1755,0.0,0.0,0.0,0.0,0.0,0.0,-2.407,-2.4018,-2.3992,-2.4083,-2.4083,-2.4083,-2.4083,-2.4083,-2.4086,-2.4008,-2.4073,-2.4018,-2.389,-2.2988,0.0,0.0,0.0,0.0,0.0,0.0,0.0,0.0,0.0,0.0,0.0,0.0,0.0,0.0,0.0,0.0,0.0,0.0,0.0,0.0,0.0,0.0,0.0,0.0,0.0,0.0,0.0,0.0,0.0,-2.2382,-2.233,-2.3313,-2.3086,-2.3009,0.0,0.0,0.0,0.0,0.0,0.0,0.0,0.0,0.0,-2.485,-2.5219,-2.5419,-2.5419,-2.5749,-2.6103,-2.6488,-2.6811,-2.7149,-2.7519,-2.7519,-2.7519,-2.7465,-2.7465,-2.6934,-2.601,-2.5641,-2.5472,-2.5441,0.0,0.0,0.0,0.0,-2.4302,-2.4302,-2.4302,-2.4302,-2.4302,-2.4302,0.0,0.0,0.0,0.0,0.0,0.0,0.0,-2.4036,-2.424,-2.4594,-2.485,-2.485,-2.4802,-2.4799,-2.5099,-2.4114,-2.3157,-2.3084,-2.2795,-2.2655,-2.3083,-2.3405,0.0,0.0,0.0,-2.4332,-2.4232,-2.4203,-2.4173,-2.4112,-2.4083,-2.4083,-2.4083,-2.4083,-2.4083,-2.4083,-2.4083,-2.4083,-2.4083,-2.3632,-2.2916,0.0,0.0,0.0,0.0,0.0,0.0,0.0,0.0,0.0,0.0,0.0,0.0,0.0,0.0,0.0,0.0,0.0,0.0,0.0,0.0,0.0,0.0,0.0,0.0,0.0,0.0,0.0,0.0,-2.2879,-2.2844,-2.4153,-2.3871,-2.3784,0.0,0.0,0.0,0.0,0.0,0.0,-2.4825,-2.5318,-2.5672,-2.5819,-2.6311,-2.665,-2.6834,-2.7057,-2.7411,-2.7919,-2.8088,-2.8427,-2.8919,-2.8919,-2.8919,-2.8919,-2.8919,-2.8642,-2.8088,-2.7072,-2.6534,-2.6334,-2.5795,-2.5558,-2.5533,-2.5025,-2.4841,-2.4841,-2.4841,-2.4841,-2.4841,-2.4841,-2.4841,-2.4841,-2.4841,0.0,0.0,0.0,0.0,-2.4841,-2.4825,-2.5189,-2.558,-2.558,-2.5697,-2.5863,-2.6029,-2.5667,-2.515,-2.4648,-2.3996,-2.3659,-2.4109,-2.4067,0.0,-2.4326,-2.4492,-2.4563,-2.4392,-2.4392,-2.4347,-2.4229,-2.4229,-2.4229,-2.4229,-2.4229,-2.4229,-2.4229,-2.4187,-2.4157,-2.4157,-2.4112,-2.3612,-2.2598,0.0,0.0,0.0,0.0,0.0,0.0,0.0,0.0,0.0,0.0,0.0,0.0,0.0,0.0,0.0,0.0,0.0,0.0,0.0,0.0,0.0,0.0,0.0,0.0,0.0,0.0,0.0,0.0,0.0,-2.4281,-2.4271,0.0,0.0,0.0,0.0,-2.5391,-2.5315,-2.5564,-2.6264,-2.6318,-2.6649,-2.7272,-2.7334,-2.7642,-2.8288,-2.8935,-2.9273,-2.9294,-2.994,-3.0263,-3.0294,-3.0294,-3.0294,-3.0294,-3.0294,-3.0279,-3.0094,-2.815,-2.6965,-2.638,-2.628,-2.6303,-2.6334,-2.6325,-2.6287,-2.6287,-2.6287,-2.6287,-2.6287,-2.6287,-2.6287,-2.6287,-2.6287,-2.6287,0.0,0.0,-2.6287,-2.6272,-2.6219,-2.6272,-2.6334,-2.6334,-2.6349,-2.6526,-2.7172,-2.684,-2.5987,-2.4426,-2.454,-2.4685,-2.4028,0.0,-2.4723,-2.4607,-2.4578,-2.4591,-2.4591,-2.4578,-2.4578,-2.4591,-2.4563,-2.4563,-2.4563,-2.4563,-2.4563,-2.4563,-2.4392,-2.4292,-2.4292,-2.4157,-2.378,-2.308,-2.2648,0.0,0.0,0.0,0.0,0.0,0.0,0.0,0.0,0.0,0.0,0.0,0.0,0.0,0.0,0.0,0.0,0.0,0.0,0.0,0.0,0.0,0.0,0.0,0.0,0.0,0.0,0.0,0.0,-2.4421,-2.4813,0.0,-2.5128,-2.5579,-2.5892,-2.6061,-2.6507,-2.6856,-2.7026,-2.7857,-2.8442,-2.8688,-2.9457,-2.9955,-3.0206,-3.0791,-3.1116,-3.1215,-3.145,-3.1602,-3.169,-3.169,-3.169,-3.169,-3.169,-3.1443,-3.0982,-3.0258,-2.9581,-2.8925,-2.8464,-2.8319,-2.8288,-2.7857,-2.7688,-2.7688,-2.7688,-2.7396,-2.6965,-2.6556,-2.6402,-2.638,-2.6349,-2.6349,-2.6349,-2.638,-2.6402,-2.638,-2.6364,-2.7026,-2.7688,-2.7688,-2.835,-2.9058,-2.9289,-2.9169,-2.8611,-2.7248,-2.6215,-2.5569,-2.5555,-2.5204,-2.4863,-2.475,-2.4806,-2.4835,-2.4721,-2.4734,-2.4706,-2.462,-2.4591,-2.4591,-2.4591,-2.4591,-2.4591,-2.4591,-2.452,-2.445,-2.4321,-2.4247,-2.4086,-2.3763,-2.357,-2.3012,0.0,0.0,0.0,0.0,0.0,0.0,0.0,0.0,0.0,0.0,0.0,0.0,0.0,0.0,0.0,0.0,0.0,0.0,0.0,0.0,0.0,0.0,0.0,0.0,0.0,-2.4741,-2.4901,-2.4844,-2.5433,-2.593,-2.6215,-2.6672,-2.7093,-2.7458,-2.7929,-2.8356,-2.8668,-2.9757,-3.0573,-3.0977,-3.1804,-3.2466,-3.2908,-3.2873,-3.2994,-3.3288,-3.3076,-3.303,-3.309,-3.309,-3.309,-3.309,-3.309,-3.2872,-3.2456,-3.2456,-3.2167,-3.1659,-3.0263,-2.9776,-2.9739,-2.9317,-2.9098,-2.9064,-2.9064,-2.8805,-2.8407,-2.7912,-2.7797,-2.7805,-2.7719,-2.768,-2.7695,-2.775,-2.775,-2.775,-2.775,-2.8411,-2.9064,-2.9064,-2.974,-3.0402,-3.0402,-3.0402,-3.0144,-2.9349,-2.7918,-2.6769,-2.6592,-2.5865,-2.5286,-2.5174,-2.5061,-2.4977,-2.4863,-2.4863,-2.4835,-2.4721,-2.4734,-2.4734,-2.4734,-2.4734,-2.4734,-2.4734,-2.4706,-2.4607,-2.4478,-2.435,-2.4276,-2.4157,-2.4112,-2.3612,-2.2619,0.0,0.0,0.0,0.0,0.0,0.0,0.0,0.0,0.0,0.0,0.0,0.0,0.0,0.0,0.0,0.0,0.0,0.0,0.0,0.0,0.0,0.0,0.0,-2.459,-2.5212,-2.5675,-2.56,-2.6184,-2.6889,-2.7695,-2.762,-2.8114,-2.9574,-2.9589,-3.0058,-3.1272,-3.2028,-3.2949,-3.4127,-3.4308,-3.5011,-3.6316,-3.5191,-3.488,-3.5459,-3.4852,-3.4577,-3.4563,-3.4548,-3.4548,-3.4548,-3.4563,-3.4577,-3.4577,-3.4577,-3.4577,-3.4301,-3.1609,-3.0572,-3.0686,-3.0686,-3.0593,-3.0448,-3.0432,-3.0521,-3.0583,-3.0454,-3.049,-3.0567,-3.0438,-3.0402,-3.0402,-3.0402,-3.0402,-3.0402,-3.0402,-3.0417,-3.0432,-3.0432,-3.0448,-3.0463,-3.0463,-3.0463,-3.0448,-3.0432,-2.9492,-2.8278,-2.701,-2.6328,-2.595,-2.595,-2.5453,0.0,-2.5059,-2.5046,-2.5032,-2.5032,-2.5018,-2.5005,-2.5005,-2.5005,-2.5005,-2.5005,-2.4863,-2.4806,-2.4806,-2.4478,-2.4321,-2.4292,-2.4157,-2.3763,-2.3088,0.0,0.0,0.0,0.0,0.0,0.0,0.0,0.0,0.0,0.0,0.0,0.0,0.0,0.0,0.0,0.0,0.0,0.0,0.0,0.0,0.0,-2.5971,-2.5995,-2.5508,-2.5639,-2.6146,-2.7127,-2.7879,-2.8537,-2.9145,-2.9781,-3.0546,-3.148,-3.2143,-3.3035,-3.4174,-3.4852,-3.5406,-3.5834,-3.6149,-3.6516,-3.6884,-3.6951,-3.6832,-3.6626,-3.647,-3.6189,-3.5796,-3.5905,-3.5959,-3.5959,-3.6034,-3.6114,-3.6114,-3.6114,-3.6141,-3.6039,-3.4123,-3.3072,-3.2638,-3.2638,-3.2302,-3.1782,-3.1289,-3.1147,-3.1096,-3.0566,-3.0412,-3.0454,-3.0428,-3.0402,-3.0402,-3.0402,-3.0402,-3.0402,-3.0402,-3.0766,-3.112,-3.112,-3.149,-3.1859,-3.1859,-3.1859,-3.1705,-3.1213,-3.086,-3.0228,-2.9006,-2.7962,-2.7285,-2.7285,-2.672,-2.6291,-2.6291,-2.5928,-2.5643,-2.5643,-2.5263,-2.5005,-2.5005,-2.5005,-2.5005,-2.5005,-2.4977,-2.4892,-2.4806,-2.4721,-2.4536,-2.4292,-2.4157,-2.3763,0.0,0.0,0.0,0.0,0.0,0.0,0.0,0.0,0.0,0.0,0.0,0.0,0.0,0.0,0.0,0.0,0.0,0.0,0.0,0.0,0.0,0.0,-2.734,-2.7753,-2.755,-2.7316,-2.7655,-2.8971,-2.9734,-3.0434,-3.1111,-3.1974,-3.2846,-3.3692,-3.4442,-3.5284,-3.6233,-3.6858,-3.7347,-3.7694,-3.7884,-3.8118,-3.8439,-3.8245,-3.8101,-3.8076,-3.7878,-3.7627,-3.7302,-3.7398,-3.7408,-3.7435,-3.7498,-3.7551,-3.7551,-3.7551,-3.7577,-3.7518,0.0,0.0,0.0,0.0,-3.3392,-3.2998,-3.2276,-3.2071,-3.2035,-3.1584,-3.1433,-3.1433,-3.1338,-3.1285,-3.1243,-3.1243,-3.1243,-3.1243,-3.1243,-3.152,-3.1813,-3.1813,-3.2105,-3.2398,-3.2398,-3.2398,-3.2275,-3.189,-3.1813,0.0,-3.0885,-2.9548,-2.8538,-2.8538,-2.7778,-2.7216,-2.7216,-2.6676,-2.628,-2.628,-2.5738,-2.5385,-2.5385,-2.5154,0.0,0.0,0.0,-2.4948,-2.4806,-2.4806,0.0,0.0,0.0,-2.3956,-2.3501,-2.3501,0.0,0.0,-2.0766,-2.0067,0.0,0.0,0.0,0.0,0.0,0.0,0.0,0.0,0.0,0.0,0.0,0.0,0.0,0.0,0.0,0.0,-2.9035,-2.9995,-3.0484,-3.01,-3.0128,-3.1137,-3.1792,-3.2506,-3.3441,-3.4194,-3.5042,-3.604,-3.6525,-3.7076,-3.7823,-3.8346,0.0,0.0,0.0,-3.9644,-4.033,-3.9242,-3.8968,-3.9516,-3.9113,-3.8908,-3.8908,-3.8908,-3.8935,-3.8935,-3.8935,-3.8962,-3.8962,-3.8962,-3.8962,-3.8803,-3.7383,-3.6466,-3.5856,-3.4585,-3.4156,-3.4089,-3.3373,0.0,0.0,-3.306,-3.2959,-3.287,-3.2676,-3.2551,-3.2453,-3.2453,-3.2514,-3.2576,-3.2533,-3.2595,-3.2656,-3.2628,-3.2567,-3.2505,-3.2505,-3.2444,-3.2398,-3.2398,-3.2398,-3.2398,-3.2398,-3.0964,-2.9798,-2.9798,-2.884,-2.8106,-2.8106,-2.7474,-2.7009,-2.7009,-2.6391,0.0,-2.5995,-2.5453,-2.51,-2.51,-2.5046,-2.4948,-2.4835,-2.4806,-2.4664,-2.435,-2.435,-2.4247,-2.4112,-2.4112,-2.3822,-2.3207,-2.21,-2.1224,0.0,0.0,0.0,0.0,0.0,0.0,0.0,0.0,0.0,0.0,0.0,0.0,0.0,0.0,0.0,-2.9987,-3.1022,-3.2428,-3.4324,-3.4126,-3.3858,-3.4084,-3.4232,-3.4797,-3.6037,-3.6413,-3.6978,-3.7977,-3.8238,-3.8848,-4.0007,-4.0105,-4.0197,-4.0426,-4.0203,-4.0213,-4.0461,-4.0121,-4.0054,-4.0279,-4.0204,0.0,-4.0162,-4.0254,-4.0303,-4.0303,-4.0427,-4.0458,-4.0458,-4.0458,-4.0458,-4.0275,-3.8282,-3.6878,-3.5949,-3.5558,-3.5138,-3.4704,-3.4566,-3.4188,-3.3748,-3.372,-3.3334,-3.2897,-3.2843,-3.2816,0.0,-3.28,-3.3189,-3.3594,-3.3498,-3.3844,-3.4233,-3.4133,-3.3629,-3.3213,-3.3213,-3.2782,-3.2398,-3.2398,-3.2398,-3.2398,-3.2398,-3.1695,-3.1134,-3.1134,-3.0485,-2.9983,-2.9983,-2.9001,-2.8314,-2.8314,-2.7319,-2.6616,-2.6616,-2.6077,-2.5724,-2.5724,-2.5276,-2.4977,-2.4948,-2.4863,-2.4778,-2.4692,-2.4607,-2.4463,-2.4276,-2.4276,-2.4144,-2.3894,-2.3136,-2.2402,0.0,0.0,0.0,0.0,0.0,0.0,0.0,0.0,0.0,0.0,0.0,-2.9134,-2.9706,0.0,-3.1611,-3.1954,-3.3307,-3.4635,-3.5564,-3.6322,-3.6648,-3.638,-3.6357,-3.6649,-3.7433,-3.8003,-3.8593,-3.9244,-3.9595,-4.0051,-4.0776,-4.0655,-4.0655,-4.0793,-4.0534,-4.0461,-4.0583,-4.051,-4.051,-4.0583,-4.068,-4.0704,-4.0704,-4.0769,-4.0793,-4.0817,-4.0864,-4.0912,-4.0912,-4.0912,-4.071,-4.0375,-3.9597,-3.8583,-3.7516,-3.6819,-3.6191,-3.5608,-3.5263,-3.4917,-3.4663,-3.4663,-3.4387,-3.4038,-3.4038,-3.3966,-3.3895,-3.3895,-3.4088,-3.4281,-3.4211,-3.4401,-3.4577,-3.4505,-3.4227,-3.3937,-3.3937,-3.3704,-3.3457,-3.3457,-3.3457,-3.3321,-3.2952,-3.2636,-3.233,-3.1981,-3.1407,-3.0999,-3.0999,-3.0189,-2.9478,-2.913,-2.8277,-2.7611,-2.7271,-2.6714,-2.6226,-2.5914,-2.5615,-2.5317,-2.5018,-2.4948,-2.4863,-2.4806,-2.4734,-2.4607,-2.445,-2.445,-2.4376,-2.4203,-2.3855,-2.3327,0.0,0.0,0.0,0.0,0.0,0.0,0.0,0.0,-2.8354,-2.8267,-2.9525,-3.0916,-3.183,-3.2852,-3.3667,-3.3904,-3.5539,-3.6676,-3.6502,-3.7825,-3.87,-3.8455,-3.8248,-3.8285,-3.8606,-3.9319,-3.9881,-4.0144,-4.0517,-4.0793,-4.0894,-4.0793,-4.0793,-4.0912,-4.0655,-4.0607,-4.0745,-4.0721,-4.0721,-4.0745,-4.0864,-4.0912,-4.0912,-4.0912,-4.0912,-4.0912,-4.0912,-4.0912,-4.0912,-4.0912,-4.0597,-4.022,-4.071,-4.0279,-3.9229,-3.8208,-3.7441,-3.686,-3.633,-3.6027,-3.5915,-3.5792,-3.5601,-3.5379,-3.5282,-3.5125,-3.4995,-3.4995,-3.4974,-3.4983,-3.4938,-3.4929,-3.4919,-3.489,-3.4797,-3.4705,-3.4705,-3.4597,-3.4505,-3.4505,-3.4505,-3.432,-3.3706,-3.3614,-3.3336,-3.2521,-3.2007,-3.168,-3.168,-3.1087,-3.048,-2.9936,-2.9266,-2.853,-2.7781,-2.724,-2.6728,-2.6117,-2.6063,-2.5805,-2.5208,-2.5168,-2.507,-2.4835,-2.4835,-2.4778,-2.4649,-2.4649,-2.452,-2.4292,-2.4292,-2.393,-2.7165,-2.7101,-2.706,-2.8203,-2.8081,-2.7876,0.0,-2.9587,-3.0261,-2.9917,-3.1316,-3.2641,-3.2747,-3.4507,-3.5918,-3.5962,-3.7314,-3.856,-3.9187,-3.9434,-3.9836,-4.0479,-3.9921,-3.9778,-4.0521,-4.0685,-4.0761,-4.0799,-4.0847,-4.0871,-4.0912,-4.0888,-4.0871,-4.0912,-4.0769,-4.0745,-4.0888,-4.0769,-4.0769,-4.0888,-4.0894,-4.0912,-4.0912,-4.0912,-4.0912,-4.0912,-4.0912,-4.0912,-4.0912,-4.0912,-4.0847,-4.0799,-4.0871,-4.05,-3.9885,-3.975,-3.9347,-3.8885,-3.8803,-3.8352,-3.7712,-3.7254,-3.6626,-3.6013,-3.553,-3.5366,-3.5322,-3.5322,-3.5666,-3.5992,-3.5814,-3.6116,-3.643,-3.6292,-3.5814,-3.5398,-3.5398,-3.4936,-3.4505,-3.4505,-3.4505,-3.4474,-3.4397,-3.4382,-3.3935,-3.2598,-3.2342,-3.2299,-3.2299,-3.1766,-3.1364,-3.1262,-3.0152,-2.8962,-2.7808,-2.7651,-2.7352,-2.6725,-2.6684,-2.6443,-2.5819,-2.5792,-2.5548,-2.499,-2.4977,-2.492,-2.4778,-2.4778,-2.4593,-2.4292,-2.4292,-2.4189,-2.7051,-2.7394,-2.7724,-2.8427,-2.8904,-2.9343,-2.988,-3.1019,-3.1935,-3.1751,-3.3066,-3.4231,-3.4231,-3.5749,-3.6991,-3.6991,-3.8249,-3.9353,-3.9664,-4.0095,-4.0532,-4.086,-4.0601,-4.0549,-4.0877,-4.0912,-4.0912,-4.0912,-4.0912,-4.1101,-4.1533,-4.155,-4.1757,-4.2223,-4.2191,-4.2191,-4.224,-4.2191,-4.1967,-4.155,-4.155,-4.1326,-4.0912,-4.0912,-4.1136,-4.1585,-4.205,-4.224,-4.2206,-4.174,-4.155,-4.1516,-4.1067,-4.0752,-4.0483,-4.0145,-3.9645,-3.9206,-3.9206,-3.899,-3.8699,-3.8475,-3.7949,-3.7376,-3.7158,-3.688,-3.6624,-3.6624,-3.6684,-3.677,-3.6665,-3.675,-3.6877,-3.6816,-3.6491,-3.6214,-3.6214,-3.5906,-3.5645,-3.5645,-3.5645,-3.5552,-3.5152,-3.509,-3.4767,-3.3781,-3.326,-3.2982,-3.2982,-3.2405,-3.1879,-3.1537,-3.0315,-2.9282,-2.8778,-2.8429,-2.7976,-2.7379,-2.7339,-2.7067,-2.6457,-2.643,-2.6321,-2.6034,-2.6034,-2.6034,-2.5945,-2.5843,-2.5681,-2.5458,-2.5352,-2.5214,-2.7407,-2.8196,-2.9023,-2.9449,-3.0283,-3.1118,-3.154,-3.261,-3.3524,-3.3524,-3.4576,-3.549,-3.549,-3.6615,-3.7581,-3.7771,-3.887,-3.9767,-3.9991,-4.0549,-4.0912,-4.0912,-4.0912,-4.0912,-4.0912,-4.0912,-4.0912,-4.0912,-4.0912,-4.1222,-4.1964,-4.2016,-4.2378,-4.3172,-4.3189,-4.3189,-4.3189,-4.3189,-4.2913,-4.2344,-4.2344,-4.205,-4.1533,-4.1533,-4.1826,-4.2361,-4.2948,-4.3189,-4.3155,-4.2568,-4.2344,-4.2292,-4.174,-4.1533,-4.1485,-4.1024,-4.0375,-3.9679,-3.9679,-3.9679,-3.9636,-3.948,-3.9146,-3.8723,-3.839,-3.8042,-3.7685,-3.7524,-3.7359,-3.7194,-3.7194,-3.7105,-3.7015,-3.7015,-3.6862,-3.6693,-3.6693,-3.66,-3.6492,-3.6492,-3.6492,-3.6338,-3.5845,-3.5799,-3.5629,-3.5136,-3.4429,-3.3906,-3.3721,-3.309,-3.2374,-3.1581,-3.0615,-2.9966,-2.9797,-2.9202,-2.867,-2.8232,-2.803,-2.7691,-2.7064,-2.7037,-2.6955,-2.6793,-2.6793,-2.6793,-2.6793,-2.6644,-2.6522,-2.6369,-2.6184,-2.5998,-2.8767,-2.9854,-3.1184,-3.1829,-3.2504,-3.3192,-3.3857,-3.4576,-3.5128,-3.5128,-3.5732,-3.6266,-3.6266,-3.6939,-3.7737,-3.8439,-3.9198,-3.9957,-4.0756,-4.0877,-4.0912,-4.0912,-4.0912,-4.0912,-4.0912,-4.0912,-4.0912,-4.0912,-4.0912,-4.1222,-4.1964,-4.2016,-4.2378,-4.3172,-4.3189,-4.3189,-4.3189,-4.3189,-4.3189,-4.3155,-4.3155,-4.3155,-4.312,-4.312,-4.3138,-4.3155,-4.3189,-4.3189,-4.3189,-4.3172,-4.3155,-4.3155,-4.3138,-4.312,-4.3138,-4.3095,-4.2164,-4.0847,-4.0847,-4.0847,-4.0734,-4.017,-3.9952,-3.9732,-3.864,-3.8294,-3.8153,-3.7655,-3.7359,-3.7194,-3.7194,-3.7105,-3.7015,-3.7015,-3.6862,-3.6693,-3.6693,-3.66,-3.6492,-3.6492,-3.6492,-3.6476,-3.6461,-3.6461,-3.6445,-3.643,-3.5891,-3.5213,-3.4551,-3.3814,-3.2894,-3.1641,-3.1451,-3.1175,-3.051,-2.9858,-2.9473,-2.9459,-2.8917,-2.8302,-2.7705,-2.7678,-2.742,-2.6806,-2.6793,-2.6793,-2.6793,-2.6793,-2.6732,-2.658,-2.6369,-2.6215,-3.0125,-3.1111,-3.1987,-3.2665,-3.3703,-3.4612,-3.4806,-3.5387,-3.5921,-3.5921,-3.6128,-3.6301,-3.6301,-3.6956,-3.7581,-3.784,-3.8888,-3.9784,-4.006,-4.0567,-4.0912,-4.0912,-4.0912,-4.0912,-4.0912,-4.0912,-4.0912,-4.0912,-4.136,-4.1981,-4.2758,-4.3258,-4.3854,-4.4647,-4.4665,-4.4665,-4.4665,-4.4665,-4.4406,-4.3914,-4.3431,-4.3189,-4.3224,-4.3707,-4.3931,-4.3966,-4.444,-4.4665,-4.463,-4.4138,-4.3931,-4.388,-4.3379,-4.3189,-4.3189,-4.3189,-4.2861,-4.243,-4.243,-4.2085,-4.1588,-4.1383,-4.0477,-3.9401,-3.9011,-3.8383,-3.7727,-3.7553,-3.7435,-3.7405,-3.7405,-3.7361,-3.7331,-3.7331,-3.718,-3.7043,-3.7043,-3.6831,-3.6631,-3.6631,-3.6554,-3.6492,-3.6492,-3.6492,-3.6492,-3.6492,-3.5953,-3.5275,-3.4597,-3.4289,-3.3787,-3.2852,-3.2401,-3.19,-3.1219,-3.0149,-2.9504,-2.9504,-2.8931,-2.8505,-2.8302,-2.8302,-2.8193,-2.8003,-2.799,-2.799,-2.799,-2.785,-2.7773,-2.7709,-2.7421,-2.726,-3.1301,-3.2477,-3.3541,-3.3864,-3.4844,-3.57,-3.5597,-3.5956,-3.6301,-3.6301,-3.6094,-3.599,-3.6249,-3.6508,-3.6874,-3.7409,-3.853,-3.9388,-3.9664,-4.0388,-4.0912,-4.0912,-4.0912,-4.0912,-4.0912,-4.1153,-4.1291,-4.1291,-4.174,-4.2482,-4.3534,-4.4035,-4.463,-4.538,-4.5397,-4.5397,-4.5397,-4.5397,-4.5156,-4.4682,-4.4199,-4.3975,-4.3992,-4.4475,-4.4682,-4.4716,-4.5173,-4.5397,-4.5363,-4.4889,-4.4682,-4.4647,-4.4165,-4.3975,-4.3975,-4.3975,-4.3975,-4.3906,-4.3379,-4.2861,-4.243,-4.243,-4.1596,-4.0598,-4.0371,-3.9803,-3.9116,-3.8683,-3.8565,-3.8458,-3.7967,-3.7859,-3.7796,-3.7573,-3.7359,-3.7194,-3.7194,-3.6983,-3.68,-3.68,-3.6677,-3.6569,-3.6569,-3.6523,-3.6492,-3.6492,-3.6122,-3.5629,-3.4951,-3.4874,-3.4597,-3.386,-3.3206,-3.2639,-3.2216,-3.0954,-3.021,-3.021,-2.9421,-2.8912,-2.8912,-2.8702,-2.8587,-2.8587,-2.8587,-2.8587,-2.8587,-2.8476,-2.8398,-2.8398,-2.8105,-2.7973,-3.2389,-3.3996,-3.5634,-3.5416,-3.5928,-3.6461,-3.6322,-3.6266,-3.6232,-3.6232,-3.5663,-3.5352,0.0,-3.5645,-3.5663,-3.715,-3.8047,-3.8784,-3.9526,-4.0319,-4.086,-4.0912,-4.0929,-4.0963,-4.0963,-4.1636,-4.2085,-4.212,-4.2137,-4.2758,-4.4225,-4.4345,-4.4665,-4.538,-4.5397,-4.5397,-4.5397,-4.5397,-4.5397,-4.5397,-4.5397,-4.5397,-4.5397,-4.5397,-4.5397,-4.5397,-4.5397,-4.5397,-4.5397,-4.5397,-4.5397,-4.5397,-4.5397,-4.5397,-4.5397,-4.5397,-4.5397,-4.519,-4.381,-4.3293,-4.3258,-4.3258,-4.3199,-4.3047,-4.2464,-4.2279,-4.2021,-4.0872,-4.0537,-4.0213,-3.8926,-3.857,-3.8397,-3.7733,-3.747,-3.7318,-3.7271,-3.7152,-3.7046,-3.7015,-3.6831,-3.6693,-3.6693,-3.6585,-3.6492,-3.6492,-3.6492,-3.6261,-3.5614,-3.5568,-3.5306,-3.4628,-3.3921,-3.349,-3.346,-3.229,-3.1568,-3.1568,-3.0299,-2.9535,-2.9504,-2.8962,-2.8619,-2.8587,-2.8587,-2.8587,-2.8587,-2.8587,-2.8587,-2.8587,-2.8398,-2.8287,-3.4347,-3.518,-3.564,-3.6093,-3.6267,-3.6343,-3.6301,-3.587,-3.5473,-3.5473,-3.4887,-3.4441,-3.4628,-3.4956,-3.5318,-3.5714,-3.6908,-3.8047,-3.8767,-3.9526,0.0,-4.0825,0.0,-4.1723,-4.1723,-4.243,-4.312,-4.3672,-4.3707,-4.3897,-4.4276,-4.482,-4.5207,-4.5397,-4.5397,-4.5397,-4.5397,-4.5397,-4.5397,-4.5397,-4.5397,-4.5397,-4.5397,-4.5397,-4.5397,-4.5397,-4.5397,-4.5397,-4.5397,-4.5397,-4.5397,-4.5397,-4.5397,-4.5397,-4.5397,-4.5397,-4.5397,-4.5345,-4.4966,-4.4475,-4.4018,-4.4018,-4.3349,-4.2507,-4.2359,-4.1994,-4.1566,-4.1241,-4.0856,-4.0429,-4.0089,-3.9634,-3.9202,-3.9029,-3.895,-3.8777,-3.8288,-3.8056,-3.7792,-3.7259,-3.6907,-3.6693,-3.6693,-3.6585,-3.6492,-3.6492,-3.6492,-3.643,-3.6261,-3.6245,-3.5984,-3.5321,-3.509,-3.4752,-3.4274,-3.3031,-3.2242,-3.2242,-3.0981,-3.0011,-2.9504,-2.9362,-2.9044,-2.8619,-2.8587,-2.8587,-2.8587,-2.8587,-2.8587,-2.8587,-2.8398,-2.8287,-3.5275,-3.588,-3.613,-3.644,-3.6444,-3.6316,-3.5932,-3.5535,-3.5175,-3.4904,-3.4209,-3.3757,-3.4086,-3.4167,-3.4404,-3.5076,0.0,0.0,-3.8439,-3.9232,-3.9991,0.0,-4.1567,0.0,-4.2016,-4.3017,-4.3845,-4.4276,-4.4311,-4.4449,-4.4768,-4.5173,-4.5397,-4.5397,-4.5397,-4.5397,-4.5397,-4.5397,-4.5397,-4.5397,-4.5397,-4.5397,-4.5397,-4.5397,-4.5397,-4.5397,-4.5397,-4.5397,-4.5397,-4.5397,-4.5397,-4.5397,-4.5397,-4.5397,-4.5397,-4.5397,-4.5397,-4.5397,-4.5397,-4.5121,-4.4785,-4.4785,-4.4267,-4.3653,-4.3653,-4.3423,-4.309,-4.2858,-4.252,-4.2034,-4.1162,-4.0675,-4.0226,-3.9629,-3.9503,-3.9408,-3.9029,-3.8888,-3.8685,-3.8198,-3.7669,-3.725,-3.725,-3.6832,-3.6523,-3.6569,-3.6554,-3.6492,-3.6492,-3.6492,-3.6353,-3.5968,-3.5691,-3.5367,-3.4982,-3.3981,-3.3363,-3.3363,-3.2392,-3.1526,-3.0855,-3.027,-2.9656,-2.8994,-2.8734,-2.8587,-2.8587,-2.8587,-2.8587,-2.8587,-2.8476,-2.843,-3.5624,-3.6302,-3.6748,-3.6564,-3.6502,-3.6295,-3.548,-3.5218,-3.498,-3.4384,-3.3564,-3.316,-3.3765,-3.3446,-3.3475,-3.4697,0.0,-3.6766,-3.8094,-3.9008,-3.9836,-4.0653,-4.1585,-4.2171,-4.2171,-4.3552,-4.4449,-4.4449,-4.4449,-4.4716,-4.5363,-4.5397,-4.5397,-4.5397,-4.5397,-4.5397,-4.5397,-4.5397,-4.5397,-4.5397,-4.5397,-4.5397,-4.5397,-4.5397,-4.5397,-4.5397,-4.5397,-4.5397,-4.5397,-4.5397,-4.5397,-4.5397,-4.5397,-4.5397,-4.5397,-4.5397,-4.5397,-4.5397,-4.5397,-4.5397,-4.5397,-4.5397,-4.5397,-4.5397,-4.5397,-4.5397,-4.5274,-4.4769,-4.4558,-4.408,-4.2337,-4.1813,-4.1454,-4.0227,-3.9897,-3.9865,-3.9692,-3.9566,-3.9471,-3.9361,-3.8717,-3.8185,-3.8185,-3.7344,-3.6708,-3.6832,-3.6631,-3.6492,-3.6492,-3.6492,-3.6492,-3.6492,-3.5968,-3.5614,-3.5614,-3.5028,-3.4643,-3.4643,-3.4,-3.3321,-3.2646,-3.1567,-3.0619,-2.9771,-2.916,-2.8838,-2.8709,-2.8627,-2.8587,-2.8587,-2.8587,-2.8587,-3.6215,-3.6704,-3.6748,-3.6564,-3.6502,-3.6295,-3.548,-3.4839,0.0,-3.3533,-3.2804,-3.228,-3.2294,-3.3209,-3.3829,-3.3371,-3.499,-3.6387,-3.6663,-3.7905,-3.906,0.0,-4.174,-4.2982,-4.2982,-4.4337,-4.5207,-4.5207,-4.5207,-4.5259,-4.5397,-4.5397,-4.5397,-4.5397,-4.5397,-4.5397,-4.5397,-4.5397,-4.5397,-4.5397,-4.5397,-4.5397,-4.5397,-4.5397,-4.5397,-4.5397,-4.5397,-4.5397,-4.5397,-4.5397,-4.5397,-4.5397,-4.5397,-4.5397,-4.5397,-4.5397,-4.5397,-4.5397,-4.5397,-4.5397,-4.5397,-4.5397,-4.5397,-4.5397,-4.5397,-4.5397,-4.5371,-4.5274,-4.4879,-4.4412,-4.408,-4.3581,-4.2969,-4.2229,-4.2057,-4.1755,-4.0658,-3.9929,-3.9503,-3.9471,-3.9251,-3.9078,-3.9078,-3.8247,-3.7576,-3.7607,-3.6971,-3.6492,-3.6492,-3.6492,-3.6492,-3.6492,-3.6384,-3.6322,-3.6322,-3.5691,-3.5337,-3.5337,-3.4694,-3.4028,-3.3336,-3.3107,-3.2411,-3.1171,-3.0554,-2.9947,-2.9352,-2.8831,-2.8587,-2.8587,-2.8587,-2.8587,-3.6488,-3.6891,-3.6851,-3.6708,-3.6371,-3.5866,-3.5066,0.0,0.0,0.0,-3.2581,-3.2458,-3.2649,-3.3199,0.0,-3.414,-3.5065,-3.6008,-3.6801,-3.7887,-3.887,-3.9612,-4.1774,-4.3189,-4.3189,-4.4527,-4.5397,-4.5397,-4.5397,-4.5397,-4.5397,-4.5397,-4.5397,-4.5397,-4.5397,-4.5397,-4.5397,-4.5397,-4.5397,-4.5397,-4.5397,-4.5397,-4.5397,-4.5397,-4.5397,-4.5397,-4.5397,-4.5397,-4.5397,-4.5397,-4.5397,-4.5397,-4.5397,-4.5397,-4.5397,-4.5397,-4.5397,-4.5397,-4.5397,-4.5397,-4.5397,-4.5397,-4.5397,-4.5397,-4.5397,-4.5397,-4.5397,-4.5397,-4.5194,-4.4906,-4.4586,-4.4259,-4.3764,-4.2818,-4.2333,-4.1901,-4.1243,-4.083,-4.0577,-4.0577,-4.0165,-3.9864,-3.9944,-3.9124,-3.8448,-3.8433,-3.7731,-3.7141,-3.7015,-3.6707,-3.6492,-3.6492,-3.6492,-3.6492,-3.6492,-3.6199,-3.6014,-3.6014,-3.5737,-3.5232,-3.4562,-3.4211,-3.3535,-3.2582,-3.1575,-3.0881,-3.0533,-2.9859,-2.9536,-2.9536,-2.9197,-2.9081,-3.6303,-3.6638,-3.6512,-3.6551,-3.6007,-3.524,-3.451,-3.4058,0.0,-3.2766,-3.2719,-3.2982,-3.3511,-3.3563,-3.3921,0.0,-3.5436,-3.5863,-3.6984,-3.797,-3.8819,0.0,-4.1533,0.0,-4.3172,-4.4389,-4.5225,-4.538,-4.5397,-4.5397,-4.5397,-4.5397,-4.5397,-4.5397,-4.5397,-4.5397,-4.5397,-4.5397,-4.5397,-4.5397,-4.5397,-4.5397,-4.5397,-4.5397,-4.5397,-4.5397,-4.5397,-4.5397,-4.5397,-4.5397,-4.5397,-4.5397,-4.5397,-4.5397,-4.5397,-4.5397,-4.5397,-4.5397,-4.5397,-4.5397,-4.5397,-4.5397,-4.5397,-4.5397,-4.5397,-4.5397,-4.5397,-4.5397,-4.5397,-4.5274,-4.4824,-4.4697,-4.4401,-4.3276,-4.2396,-4.1802,-4.1802,-4.172,-4.1588,-4.1588,-4.1048,-4.062,-4.0782,-4.0021,-3.9325,-3.9294,-3.8464,-3.7778,-3.7588,-3.697,-3.6523,-3.6492,-3.6492,-3.6492,-3.6492,-3.6492,-3.6492,-3.6492,-3.6492,-3.6245,-3.5752,-3.52,-3.4616,-3.3904,-3.2748,-3.2074,-3.1924,-3.1213,-3.0855,-3.0841,-3.0225,-2.9925,-3.5495,-3.5425,-3.5055,-3.5642,-3.5203,-3.4492,-3.3987,0.0,-3.3692,-3.3304,-3.3232,-3.3467,-3.4181,-3.4596,-3.4942,-3.5343,-3.5955,-3.6293,-3.5997,-3.7471,-3.8634,-3.8681,0.0,0.0,-4.312,-4.3931,-4.4665,-4.5345,-4.5397,-4.5397,-4.5397,-4.5397,-4.5397,-4.5397,-4.5397,-4.5397,-4.5397,-4.5397,-4.5397,-4.5397,-4.5397,-4.5397,-4.5397,-4.5397,-4.5397,-4.5397,-4.5397,-4.5397,-4.5397,-4.5397,-4.5397,-4.5397,-4.5397,-4.5397,-4.5397,-4.5397,-4.5397,-4.5397,-4.5397,-4.5397,-4.5397,-4.5397,-4.5397,-4.5397,-4.5397,-4.5397,-4.5397,-4.5397,-4.5397,-4.5397,-4.5344,-4.5318,-4.5167,-4.4485,-4.3396,-4.2522,-4.2522,-4.2029,-4.1588,-4.1588,-4.1541,-4.1494,-4.1494,-4.0795,-4.0193,-4.0193,-3.892,-3.7919,-3.7778,-3.7142,-3.6631,-3.6523,-3.6492,-3.6492,-3.6492,-3.6492,-3.6492,-3.6492,-3.6492,-3.6461,-3.6399,-3.6368,-3.5963,-3.5252,-3.4573,-3.3878,-3.3216,-3.2605,-3.2298,-3.2298,-3.1622,-3.1326,-3.4815,-3.5046,-3.496,-3.5075,-3.4491,-3.3898,-3.3912,0.0,-3.3456,-3.3331,-3.3465,-3.3923,-3.4984,-3.5251,-3.5639,-3.6745,-3.7077,0.0,-3.6969,-3.7758,-3.8521,-3.8953,-4.0389,-4.1826,-4.3086,-4.3862,-4.4596,-4.5328,-4.5397,-4.5397,-4.5397,-4.5397,-4.5397,-4.5397,-4.5397,-4.5397,-4.5397,-4.5397,-4.5397,-4.5397,-4.5397,-4.5397,-4.5397,-4.5397,-4.5397,-4.5397,-4.5397,-4.5397,-4.5397,-4.5397,-4.5397,-4.5397,-4.5397,-4.5397,-4.5397,-4.5397,-4.5397,-4.5397,-4.5397,-4.5397,-4.5397,-4.5397,-4.5397,-4.5397,-4.5397,-4.5397,-4.5397,-4.5397,-4.5397,-4.5397,-4.5397,-4.514,-4.4797,-4.4558,-4.3794,-4.3139,-4.3139,-4.2663,-4.2206,-4.2206,-4.1867,-4.1588,-4.1588,-4.1319,-4.1047,-4.0915,-4.0018,-3.9202,-3.8589,-3.7904,-3.7297,-3.6862,-3.6616,-3.6492,-3.6492,-3.6492,-3.6492,-3.6492,-3.6492,-3.6492,-3.6492,-3.6492,-3.6352,-3.6085,-3.5384,-3.4914,-3.4608,-3.3919,-3.359,-3.3576,-3.2951,-3.2647,-3.4335,-3.4618,-3.4574,-3.464,-3.4039,-3.3538,0.0,0.0,-3.3465,-3.3546,-3.3959,-3.4646,-3.5791,-3.6027,-3.6533,-3.7994,-3.796,-3.7789,-3.7874,-3.8166,-3.862,-3.9276,0.0,-4.1603,-4.3332,-4.4344,-4.5161,-4.5802,-4.5615,-4.5528,-4.5693,-4.5589,-4.5476,-4.5397,-4.5397,-4.5397,-4.5397,-4.5397,-4.5397,-4.5397,-4.5397,-4.5397,-4.5397,-4.5397,-4.5397,-4.5397,-4.5397,-4.5397,-4.5397,-4.5397,-4.5397,-4.5397,-4.5397,-4.5397,-4.5397,-4.5397,-4.5397,-4.5397,-4.5397,-4.5397,-4.5397,-4.5397,-4.5397,-4.5397,-4.5397,-4.5397,-4.5397,-4.5397,-4.5397,-4.5397,-4.5397,-4.5086,-4.4769,-4.4769,-4.4271,-4.3794,-4.3794,-4.332,-4.2818,-4.2632,-4.2206,-4.1835,-4.1621,-4.1588,-4.1555,-4.1423,-4.0808,-4.0162,-3.9467,-3.8638,-3.7888,-3.7342,-3.6894,-3.6647,-3.6647,-3.6647,-3.6616,-3.6554,-3.6554,-3.6554,-3.6492,-3.6492,-3.6492,-3.6492,-3.5975,-3.5737,-3.5705,-3.519,-3.496,-3.4945,-3.4291,-3.3875,-3.4069,-3.3924,-3.3523,-3.4304,-3.3906,-3.3397,0.0,-3.3807,-3.3868,-3.4136,-3.4884,-3.572,-3.6538,-3.7077,-3.7724,-3.882,-3.8376,-3.7978,-3.8261,-3.858,-3.8967,0.0,-4.0379,-4.1846,-4.3979,-4.5464,-4.6454,-4.6845,-4.6087,-4.5846,-4.6357,-4.6005,-4.5667,-4.5397,-4.5397,-4.5397,-4.5397,-4.5397,-4.5397,-4.5397,-4.5397,-4.5397,-4.5397,-4.5397,-4.5397,-4.5397,-4.5397,-4.5397,-4.5397,-4.5397,-4.5397,-4.5397,-4.5397,-4.5397,-4.5397,-4.5397,-4.5397,-4.5397,-4.5397,-4.5397,-4.5397,-4.5397,-4.5397,-4.5397,-4.5397,-4.5397,-4.5397,-4.5397,-4.5397,-4.5397,-4.5397,-4.5397,-4.5397,-4.5397,-4.4934,-4.4474,-4.4474,-4.3968,-4.3303,-4.2741,-4.2585,-4.2365,-4.1704,-4.1588,-4.1588,-4.1588,-4.102,-4.0513,-4.0319,-3.9109,-3.82,-3.8013,-3.7389,-3.6984,-3.6984,-3.6984,-3.6908,-3.6723,-3.6693,-3.6631,-3.6523,-3.6492,-3.6492,-3.6492,-3.6492,-3.6492,-3.6492,-3.6492,-3.6492,-3.646,-3.5737,-3.4978,-3.3354,-3.3666,-3.3651,-3.3673,-3.3487,-3.3394,-3.3721,-3.3807,-3.3868,-3.4148,-3.4897,-3.5751,-3.6551,-3.7256,-3.803,-3.8915,-3.8865,-3.8744,0.0,0.0,0.0,-4.0239,-4.229,-4.3852,-4.4542,-4.602,-4.6972,-4.7102,-4.6855,-4.6763,-4.6945,-4.6832,-4.6406,-4.5693,-4.5667,-4.5632,-4.5554,-4.5528,-4.5502,-4.5397,-4.5397,-4.5397,-4.5397,-4.5397,-4.5397,-4.5397,-4.5397,-4.5397,-4.5397,-4.5397,-4.5397,-4.5397,-4.5397,-4.5397,-4.5397,-4.5397,-4.5397,-4.5397,-4.5397,-4.5397,-4.5397,-4.5397,-4.5397,-4.5397,-4.5397,-4.5397,-4.5397,-4.5397,-4.5397,-4.5397,-4.5397,-4.5397,-4.5397,-4.5397,-4.5247,-4.5113,-4.5113,-4.4254,-4.3453,-4.3243,-4.249,-4.1835,-4.1621,-4.1588,-4.1588,-4.1588,-4.1415,-4.1082,-4.0576,-3.9708,-3.892,-3.8401,-3.774,-3.7241,-3.7015,-3.7015,-3.6969,-3.6908,-3.6908,-3.6831,-3.6631,-3.6631,-3.66,-3.6492,-3.6492,-3.6492,-3.6492,-3.6492,-3.6492,-3.6492,-3.6258,-3.5769,0.0,-3.3797,-3.3908,-3.3684,-3.3643,0.0,-3.3908,-3.3947,-3.3998,-3.4173,-3.5138,-3.6105,-3.6606,-3.7596,-3.8525,-3.9027,-3.9101,-3.9101,0.0,0.0,0.0,-4.0799,-4.3233,-4.4898,-4.5285,-4.6364,-4.7231,-4.7684,-4.7452,-4.7345,-4.7533,-4.7428,-4.708,-4.6513,-4.6217,-4.5955,-4.5667,-4.5684,-4.5615,-4.5554,-4.5554,-4.5528,-4.5476,-4.5476,-4.545,-4.5397,-4.5397,-4.5397,0.0,-4.5397,-4.5423,-4.5476,-4.5423,-4.5423,-4.5476,-4.5423,-4.5397,-4.5397,-4.5397,-4.5397,-4.5397,-4.5397,-4.5397,-4.5397,-4.5397,-4.5397,-4.5397,-4.5397,-4.5397,-4.5397,-4.5397,-4.5397,-4.5397,-4.5397,-4.5397,-4.5397,-4.5397,-4.4763,-4.414,-4.391,-4.3031,-4.2253,-4.2029,-4.1785,-4.1588,-4.1588,-4.1588,-4.143,-4.102,-4.0103,-3.9345,-3.8934,-3.8049,-3.7421,-3.7211,-3.7181,-3.7151,-3.7075,-3.7075,-3.6968,-3.6723,-3.6693,-3.6631,-3.6492,-3.6492,-3.6492,-3.6492,-3.6492,-3.6492,-3.6492,-3.6492,-3.6258,0.0,-3.4197,-3.4197,-3.4197,-3.4197,-3.4197,-3.4197,-3.4197,0.0,-3.4197,-3.5535,-3.6699,-3.6699,-3.8024,-3.9101,-3.9101,-3.9101,-3.9101,0.0,-3.9142,0.0,-4.1157,-4.3356,-4.5108,-4.6039,-4.6581,-4.7333,-4.8439,-4.7902,-4.7697,-4.8135,-4.7858,-4.7674,-4.7653,-4.6986,-4.6376,-4.5871,-4.5821,-4.5821,-4.5846,-4.5821,-4.5744,-4.5667,-4.5615,-4.5554,-4.5423,-4.5423,-4.5423,-4.5423,-4.5423,-4.5502,-4.5607,-4.5476,-4.5502,-4.5607,-4.5476,-4.5423,-4.5423,-4.5423,-4.5423,-4.5423,-4.5423,-4.5423,-4.5397,-4.5397,-4.5397,-4.5397,-4.5397,-4.5397,-4.5397,-4.5397,-4.5397,-4.5397,-4.5397,-4.5397,-4.5397,-4.5397,-4.5371,-4.5167,-4.4614,-4.3968,-4.3303,-4.2756,-4.2142,-4.1704,-4.1687,-4.1687,-4.1654,-4.1621,-4.0372,-3.9503,-3.9503,-3.8286,-3.751,-3.751,-3.751,-3.7435,-3.7224,-3.7224,-3.7074,-3.6754,-3.6723,-3.6662,-3.6523,-3.6492,-3.6492,-3.6492,-3.6492,-3.6492,-3.6492,-3.6492,-3.6492,-3.3792,0.0,-3.4197,-3.4197,-3.4197,-3.4197,0.0,-3.4197,-3.4197,-3.4197,0.0,-3.6699,-3.6699,-3.8024,-3.9101,-3.9101,-3.9101,-3.9101,-3.9101,-4.0183,0.0,-4.149,-4.3669,-4.5245,-4.5482,-4.6711,-4.7601,-4.7893,-4.8308,-4.8587,-4.8714,-4.8641,-4.8439,-4.8152,-4.7975,-4.7442,-4.6513,-4.6112,-4.6062,-4.6328,-4.5963,-4.5963,-4.628,-4.593,-4.5736,-4.571,-4.571,-4.571,-4.571,-4.571,-4.5718,-4.5744,-4.5718,-4.5736,-4.5744,-4.5718,-4.571,-4.571,-4.571,-4.571,-4.5693,-4.5581,-4.5537,-4.5528,-4.5423,-4.5397,-4.5397,-4.5397,-4.5397,-4.5397,-4.5397,-4.5397,-4.5397,-4.5397,-4.5397,-4.5397,-4.5397,-4.5059,-4.4669,-4.453,-4.3968,-4.3453,-4.3303,-4.3152,-4.2894,-4.2428,-4.2365,-4.2174,-4.1687,-4.0372,-3.9503,-3.9503,-3.8286,-3.751,-3.751,-3.751,-3.748,-3.7435,-3.7435,-3.7345,-3.7104,-3.6984,-3.6831,-3.6662,-3.6554,-3.6492,-3.6492,-3.6492,-3.6492,-3.6492,-3.6492,-3.6492,-3.4099,-3.436,-3.4209,-3.4233,-3.4221,-3.4209,-3.4245,0.0,0.0,0.0,0.0,0.0,0.0,-3.8024,-3.9101,-3.9101,-3.9101,-3.9231,0.0,0.0,-4.1739,-4.211,-4.3652,-4.4859,-4.5249,-4.6085,-4.6903,-4.7646,-4.8091,-4.8519,-4.889,-4.8909,-4.8803,-4.8587,-4.8401,-4.7935,-4.712,-4.6868,-4.6822,-4.7008,-4.6753,-4.6712,-4.69,-4.6642,-4.6495,-4.6424,-4.62,-4.6119,-4.6094,-4.5879,-4.5821,-4.5871,-4.5821,-4.5846,-4.5871,-4.5821,-4.5795,-4.5795,-4.5795,-4.5795,-4.5795,-4.5736,-4.5693,-4.5667,-4.5607,-4.5554,-4.5476,-4.5423,-4.5397,-4.5397,-4.5397,-4.5397,-4.5397,-4.5397,-4.5397,-4.5397,-4.5397,-4.514,-4.4906,-4.4906,-4.4401,-4.3968,-4.3968,-4.3689,-4.3393,-4.3078,-4.3017,-4.2657,-4.1661,-4.0622,-3.9701,-3.9107,-3.8112,-3.751,-3.751,-3.751,-3.751,-3.751,-3.751,-3.7405,-3.7224,-3.7119,-3.7014,-3.6831,-3.6785,-3.6677,-3.66,-3.66,-3.6554,-3.6492,-3.6492,-3.6492,-3.4469,-3.4624,-3.4321,-3.4333,-3.4281,-3.4233,-3.4281,0.0,0.0,0.0,0.0,0.0,0.0,-3.8024,0.0,0.0,-3.9101,-3.9398,-4.0285,-4.1089,-4.1887,-4.2705,-4.3503,-4.4283,-4.5026,-4.5212,-4.5862,-4.7237,-4.746,-4.7813,-4.85,-4.8537,-4.8537,-4.8537,-4.831,-4.8027,-4.7616,-4.762,-4.7632,-4.7713,-4.7632,-4.7591,-4.753,-4.7449,-4.7363,-4.7237,-4.6832,-4.6665,-4.6642,-4.6242,-4.6137,-4.6228,-4.6055,-4.603,-4.6105,-4.5922,-4.5846,-4.5829,-4.5724,-4.5602,-4.5498,-4.5498,-4.556,-4.5647,-4.5639,-4.5631,-4.5589,-4.5476,-4.5423,-4.5397,-4.5397,-4.5397,-4.5397,-4.5397,-4.5397,-4.5397,-4.5397,-4.5397,-4.5397,-4.5397,-4.5005,-4.4642,-4.4642,-4.4186,-4.3748,-4.366,-4.366,-4.3158,-4.1794,-4.1048,-4.0143,-3.8888,-3.8157,-3.7714,-3.7626,-3.7612,-3.7583,-3.751,-3.751,-3.7405,-3.7224,-3.7194,-3.715,-3.6999,-3.7015,-3.6908,-3.6693,-3.6693,-3.6631,-3.6492,-3.6492,-3.6492,-3.4575,-3.4935,-3.4832,-3.4612,-3.4424,-3.4281,-3.4293,0.0,0.0,0.0,0.0,0.0,0.0,-3.8024,-3.9101,-3.9101,-3.9101,-3.9398,-4.0285,-4.1089,-4.1887,-4.2705,-4.3503,-4.4061,-4.4191,-4.4859,-4.5398,-4.5639,-4.629,-4.6735,-4.6865,-4.6865,-4.6865,-4.6865,-4.7483,-4.7748,-4.7696,-4.763,-4.7795,-4.8191,-4.7795,-4.7795,-4.8152,-4.7736,-4.7569,-4.753,-4.7446,-4.7424,-4.7442,-4.7338,-4.7356,-4.7295,-4.689,-4.6747,-4.6701,-4.6301,-4.6147,-4.6059,-4.5411,-4.4745,-4.4184,-4.4065,-4.4471,-4.5005,-4.4906,-4.5291,-4.5744,-4.5607,-4.5502,-4.5397,-4.5397,-4.5397,-4.5397,-4.5397,-4.5397,-4.5397,-4.5397,-4.5397,-4.5397,-4.5397,-4.5344,-4.5247,-4.5247,-4.5194,-4.4917,-4.4429,-4.4344,-4.3831,-4.2448,-4.1646,-4.0859,-4.001,-3.9347,-3.8728,-3.821,-3.8181,-3.7985,-3.7539,-3.751,-3.7405,-3.7224,-3.7194,-3.715,-3.6999,-3.7015,-3.6908,-3.6693,-3.6693,-3.6631,-3.6492,-3.6492,-3.6492,-3.4889,-3.5262,-3.5187,-3.5069,-3.4774,-3.4502,-3.442,-3.4351,0.0,0.0,0.0,0.0,0.0,0.0,-3.9115,-3.9142,-3.9129,-3.9579,-4.0923,-4.1396,-4.2054,-4.3299,-4.3763,-4.4005,-4.4005,-4.4358,-4.4785,-4.5249,-4.5639,-4.603,-4.6475,-4.6494,-4.6494,-4.6494,-4.6865,-4.7051,-4.7051,-4.702,-4.7537,-4.8624,-4.8402,-4.8421,-4.8624,-4.8402,-4.8308,-4.8289,-4.8056,-4.7975,-4.7975,-4.7695,-4.7337,-4.6936,-4.6704,-4.6349,-4.5911,-4.569,-4.5624,-4.557,-4.5213,-4.4725,-4.42,-4.4155,-4.4231,-4.4353,-4.4281,-4.475,-4.5304,-4.5254,-4.5372,-4.5502,-4.5423,-4.5397,-4.5397,-4.5397,-4.5397,-4.5397,-4.5397,-4.5397,-4.5397,-4.5397,-4.5397,-4.5397,-4.5397,-4.5397,-4.5163,-4.4495,-4.4399,-4.3759,-4.198,-4.1446,-4.0836,-3.9779,-3.9388,-3.9082,-3.8794,-3.881,-3.8439,-3.7553,-3.751,-3.7464,-3.7359,-3.7359,-3.7345,-3.7271,-3.7271,-3.7165,-3.6983,-3.6983,-3.6907,-3.6785,-3.6785,-3.6708,-3.5168,-3.556,-3.5468,-3.5415,-3.506,-3.4703,-3.4596,-3.4476,0.0,0.0,0.0,0.0,0.0,-3.8037,-3.9129,-3.9183,-3.9142,-3.9705,-4.1436,-4.1634,-4.2218,-4.385,-4.402,-4.4005,-4.4036,-4.402,-4.4283,-4.4952,-4.4989,-4.5249,-4.5881,-4.59,-4.59,-4.59,-4.6104,-4.6215,-4.6215,-4.6401,-4.7125,-4.8333,-4.8333,-4.8333,-4.8333,-4.8333,-4.8333,-4.8316,-4.8015,-4.7887,-4.785,-4.749,-4.6987,-4.6421,-4.6303,-4.5765,-4.5104,-4.5104,-4.4995,-4.4833,-4.4833,-4.4461,-4.3961,-4.3961,-4.3833,-4.3641,-4.3641,-4.4114,-4.4649,-4.4624,-4.4993,-4.5433,-4.545,-4.545,-4.545,-4.5397,-4.5397,-4.5397,-4.5397,-4.5397,-4.5397,-4.5397,-4.5397,-4.5345,-4.5156,-4.5121,-4.4889,-4.4156,-4.4035,-4.34,-4.1622,-4.1401,-4.0917,-3.972,-3.9601,-3.9532,-3.9401,-3.9135,-3.8634,-3.7727,-3.7553,-3.751,-3.751,-3.751,-3.751,-3.751,-3.751,-3.7405,-3.7194,-3.7194,-3.7119,-3.7015,-3.7015,-3.6908,-3.522,-3.5698,-3.5626,-3.5444,-3.51,-3.4783,-3.4773,-3.4586,0.0,-3.4386,0.0,0.0,0.0,-3.8045,-3.9129,-3.9183,-3.9142,-3.9705,-4.1436,-4.1634,-4.2233,-4.3979,-4.407,-4.4055,-4.4184,-4.407,-4.4023,-4.4098,-4.4098,-4.4116,-4.4191,-4.4191,-4.4191,-4.4191,-4.4952,-4.5379,-4.5379,-4.6122,-4.655,-4.6661,-4.6661,-4.6661,-4.6661,-4.6661,-4.6661,-4.6661,-4.6628,-4.6628,-4.6646,-4.6595,-4.6541,-4.6451,-4.6011,-4.5548,-4.5104,-4.5104,-4.467,-4.4093,-4.4093,-4.333,-4.2376,-4.2376,-4.2593,-4.2886,-4.2886,-4.3395,-4.3968,-4.3809,-4.4338,-4.505,-4.5468,-4.5581,-4.5537,-4.5423,-4.5397,-4.5397,-4.5397,-4.5397,-4.5397,-4.5397,-4.5397,-4.5173,-4.4492,-4.438,-4.4138,-4.3379,-4.3276,-4.2965,-4.2071,-4.1926,-4.165,-4.0862,-4.0776,-4.0549,-3.9978,-3.8951,-3.8351,-3.8266,-3.7786,-3.751,-3.751,-3.751,-3.751,-3.751,-3.751,-3.7405,-3.7194,-3.7194,-3.7119,-3.7015,-3.7015,-3.6984,-3.5375,-3.5704,-3.5679,-3.5614,-3.539,0.0,0.0,-3.4832,-3.4701,-3.467,-3.5649,0.0,-3.8183,-3.8891,-3.9301,-3.9386,-3.9328,-3.9712,-4.0904,-4.146,-4.2159,-4.3312,-4.3875,-4.4211,-4.4274,-4.4226,-4.4162,-4.4135,-4.4119,-4.4085,-4.4005,-4.4005,-4.4005,-4.4005,-4.4321,-4.4488,-4.4488,-4.4785,-4.4952,-4.4952,-4.5992,-4.6494,-4.6494,-4.6494,-4.6494,-4.6494,-4.6494,-4.6494,-4.6494,-4.6494,-4.6197,-4.5679,-4.4957,-4.4566,-4.4428,-4.4428,-4.4244,-4.4003,-4.4003,-4.354,-4.2959,-4.2959,-4.2893,-4.2765,-4.2491,-4.2973,-4.3527,-4.3225,-4.3693,-4.4393,-4.4908,-4.5041,-4.5016,-4.4854,-4.4465,-4.4068,-4.4035,-4.4027,-4.4027,-4.4027,-4.4027,-4.3923,-4.3655,-4.3621,-4.3345,-4.2568,-4.2465,-4.2189,-4.1412,-4.1326,-4.1222,-4.0929,-4.0912,-4.0823,-4.0573,-3.9808,-3.9368,-3.9368,-3.8185,-3.751,-3.751,-3.751,-3.751,-3.751,-3.751,-3.7464,-3.7405,-3.7405,-3.7345,-3.7301,-3.7301,-3.7225,-3.5452,-3.5704,-3.5704,-3.5704,0.0,0.0,-3.5309,-3.5117,-3.503,-3.5258,-3.6451,-3.7781,-3.8839,-3.9231,-3.9431,-3.9482,-3.9444,-3.9698,-4.0587,-4.1113,-4.182,-4.2931,-4.3552,-4.4001,-4.4292,-4.4314,-4.427,-4.4244,-4.4229,-4.418,-4.407,-4.4067,-4.4085,-4.4005,-4.4036,-4.4036,-4.4005,-4.4005,-4.4005,-4.4005,-4.5157,-4.5714,-4.5714,-4.5714,-4.5714,-4.5714,-4.5714,-4.5714,-4.5714,-4.5714,-4.5379,-4.4822,-4.4228,-4.4005,-4.4005,-4.4005,-4.4005,-4.4005,-4.4005,-4.3744,-4.3406,-4.3406,-4.3123,-4.2753,-4.2462,-4.2757,-4.3161,-4.2864,-4.3345,-4.3988,-4.4249,-4.4345,-4.4349,-4.4208,-4.3759,-4.3353,-4.3296,-4.3296,-4.3296,-4.3296,-4.3264,-4.3153,-4.2911,-4.2852,-4.2568,-4.1774,-4.1654,-4.1481,-4.0963,-4.0912,-4.0912,-4.0912,-4.0912,-4.0912,-4.0912,-4.036,-4.0003,-4.0003,-3.8767,-3.796,-3.7756,-3.7756,-3.7685,-3.751,-3.751,-3.751,-3.751,-3.751,-3.751,-3.751,-3.751,-3.7435,-3.5477,-3.5704,-3.5704,0.0,0.0,0.0,-3.5704,-3.5385,-3.5343,-3.622,-3.7528,-3.8444,-3.8252,-3.8864,-3.9431,-3.9482,-3.9444,-3.9698,-4.0568,-4.0646,-4.1231,-4.2964,-4.3076,-4.3361,-4.4289,-4.4325,-4.4281,-4.4281,-4.4281,-4.4237,-4.4199,-4.4255,-4.4207,-4.4005,-4.4135,-4.4135,-4.4005,-4.4005,-4.4005,-4.4005,-4.4005,-4.4005,-4.4005,-4.4005,-4.4005,-4.4005,-4.4005,-4.4005,-4.4005,-4.4005,-4.4005,-4.4005,-4.4005,-4.4005,-4.4005,-4.4005,-4.4005,-4.4005,-4.4005,-4.3744,-4.3406,-4.3406,-4.3141,-4.281,-4.281,-4.281,-4.2792,-4.281,-4.337,-4.3904,-4.3495,-4.3544,-4.3657,-4.353,-4.3482,-4.3464,-4.3464,-4.3464,-4.3464,-4.3464,-4.3367,-4.3044,-4.2299,-4.2089,-4.174,-4.1015,-4.0912,-4.0912,-4.0912,-4.0912,-4.0912,-4.0912,-4.0912,-4.0912,-4.0912,-4.036,-4.0003,-4.0003,-3.9506,-3.8947,-3.8334,-3.8322,-3.8055,-3.7539,-3.751,-3.751,-3.751,-3.751,-3.751,-3.751,-3.751,-3.751,-3.5626,-3.5704,0.0,-3.5704,0.0,0.0,0.0,-3.5502,0.0,0.0,-3.7857,-3.8707,-3.9113,-3.9371,-3.9558,-3.9571,-3.954,-3.9633,-3.989,-4.0402,-4.0933,-4.1453,-4.1983,-4.242,-4.2691,-4.2682,-4.2655,-4.2614,-4.2614,-4.2833,-4.3326,-4.3374,-4.3639,-4.4188,-4.4195,-4.4184,-4.4135,-4.4055,-4.4005,-4.4005,-4.4005,-4.4005,-4.4005,-4.4005,-4.4005,-4.4005,-4.4005,-4.4005,-4.4005,-4.4005,-4.4005,-4.4005,-4.4005,-4.4005,-4.4005,-4.4005,-4.4005,-4.4005,-4.4005,-4.3923,-4.3825,-4.3825,-4.3744,-4.3594,-4.33,-4.3212,-4.3159,-4.2885,-4.2954,-4.3134,-4.2999,-4.3023,-4.3039,-4.2893,-4.2422,-4.1998,-4.1888,-4.1888,-4.1888,-4.1888,-4.1841,-4.1748,-4.1522,-4.1464,-4.1348,-4.1064,-4.1047,-4.1023,-4.0912,-4.0912,-4.0912,-4.0912,-4.0912,-4.0912,-4.0912,-4.0752,-4.0638,-4.0638,-4.0476,-3.9961,-3.8974,-3.8947,-3.8865,-3.8689,-3.8689,-3.8495,-3.8055,-3.8055,-3.7857,-3.751,-3.751,-3.751,-3.5704,-3.5704,0.0,-3.5704,-3.5704,-3.5781,-3.6091,0.0,0.0,0.0,-3.8671,-3.9321,-3.966,-3.9644,-3.9589,-3.9589,-3.9589,-3.9589,-3.9589,-4.0021,-4.044,-4.076,-4.1229,-4.1648,-4.1967,-4.2004,-4.1991,-4.1932,-4.1932,-4.2117,-4.2534,-4.2586,-4.2829,-4.3276,-4.3281,-4.327,-4.3241,-4.3178,-4.313,-4.313,-4.313,-4.313,-4.3148,-4.3739,-4.4005,-4.4005,-4.4005,-4.4005,-4.4005,-4.4005,-4.4005,-4.4005,-4.4005,-4.4005,-4.4005,-4.4005,-4.4005,-4.4005,-4.4005,-4.4005,-4.4005,-4.4005,-4.4005,-4.3955,-4.371,-4.3644,-4.3594,-4.3335,-4.3265,-4.323,-4.3087,-4.3051,-4.2937,-4.2548,-4.2079,-4.1657,-4.1413,-4.1363,-4.1363,-4.1363,-4.1318,-4.1295,-4.1295,-4.1232,-4.1186,-4.1169,-4.1146,-4.1105,-4.1035,-4.1018,-4.1018,-4.1018,-4.1006,-4.0982,-4.0982,-4.0935,-4.0912,-4.0912,-4.0912,-4.059,-3.991,-3.9636,-3.9428,-3.9206,-3.9206,-3.9028,-3.8657,-3.8657,-3.8479,-3.8189,-3.8189,-3.8046,-3.5709,-3.5704,0.0,-3.5704,-3.5704,0.0,-3.6729,-3.7574,-3.8388,-3.9061,-3.9744,-4.0167,-3.9946,-3.9743,-3.9614,-3.9589,-3.9589,-3.9589,-3.9589,-3.9589,-3.9871,-4.0591,-4.0685,-4.0985,-4.1704,-4.1779,-4.1779,-4.1779,-4.1779,-4.179,-4.1793,-4.1865,-4.1876,-4.1815,-4.1884,-4.1884,-4.1801,-4.1801,-4.1801,-4.1801,-4.1801,-4.1801,-4.1843,-4.3189,-4.3797,-4.3797,-4.3872,-4.3909,-4.3909,-4.3983,-4.402,-4.402,-4.402,-4.402,-4.402,-4.402,-4.402,-4.402,-4.402,-4.402,-4.402,-4.4005,-4.4005,-4.4005,-4.4005,-4.4005,-4.4005,-4.4005,-4.4005,-4.3908,-4.356,-4.3457,-4.3248,-4.2482,-4.2279,-4.2136,-4.1788,-4.1675,-4.1653,-4.1653,-4.1538,-4.1426,-4.1426,-4.1318,-4.1232,-4.1232,-4.1209,-4.1209,-4.1209,-4.1209,-4.1209,-4.1209,-4.1169,-4.1117,-4.1117,-4.0982,-4.0935,-4.0935,-4.0912,-4.0912,-4.0912,-4.0385,-3.9851,-3.9348,-3.9348,-3.9339,-3.9269,-3.9269,-3.9259,-3.9206,-3.9206,-3.892,-3.5695,-3.5704,0.0,0.0,-3.5704,-3.5916,-3.6729,-3.7574,-3.8388,-3.9061,-3.9861,-4.0321,-3.9977,-3.9859,-3.9789,-3.9626,-3.9589,-3.9589,-3.9589,-3.9589,-3.9664,-3.9833,-3.9871,-3.9927,-4.0096,-4.0115,-4.0115,-4.0115,-4.0115,-4.0384,-4.0997,-4.1047,-4.1316,-4.1946,-4.1924,-4.1892,-4.1884,-4.1829,-4.1801,-4.1801,-4.1801,-4.1801,-4.1806,-4.2132,-4.2267,-4.2304,-4.2938,-4.3218,-4.3274,-4.3961,-4.424,-4.424,-4.424,-4.424,-4.424,-4.424,-4.424,-4.424,-4.4165,-4.4169,-4.4135,-4.402,-4.4005,-4.4005,-4.4005,-4.4005,-4.4005,-4.4005,-4.4005,-4.3989,-4.3892,-4.3876,-4.3761,-4.3248,-4.2903,-4.2657,-4.256,-4.23,-4.2071,-4.2071,-4.1788,-4.156,-4.156,-4.152,-4.1475,-4.1363,-4.1272,-4.1209,-4.1209,-4.1209,-4.1209,-4.1209,-4.1186,-4.118,-4.118,-4.1099,-4.1047,-4.1047,-4.0959,-4.0912,-4.0912,-4.0776,-4.0638,-4.0541,-4.0541,-4.0286,-3.9825,-3.9825,-3.9594,-3.9206,-3.9206,-3.9109,-3.5692,0.0,0.0,-3.5704,0.0,-3.5916,-3.6729,-3.7574,-3.8426,-3.9186,-3.9964,-4.0441,-4.0233,-4.011,-3.9969,-3.9777,-3.9731,-3.9715,-3.9614,-3.9589,-3.9589,-3.9589,-3.9589,-3.9589,-3.9589,-3.9589,-3.9589,-3.9589,-3.9589,-3.9777,-4.0209,-4.0228,-4.0422,-4.0835,-4.0828,-4.0802,-4.0802,-4.0763,-4.075,-4.075,-4.075,-4.075,-4.0768,-4.1474,-4.1801,-4.182,-4.2235,-4.2422,-4.2459,-4.2922,-4.309,-4.309,-4.309,-4.309,-4.309,-4.309,-4.309,-4.3146,-4.3513,-4.3629,-4.3688,-4.3986,-4.4104,-4.4085,-4.402,-4.4005,-4.4005,-4.4005,-4.4005,-4.4005,-4.4005,-4.4005,-4.3939,-4.3744,-4.3388,-4.3014,-4.2847,-4.2638,-4.2422,-4.2239,-4.2029,-4.1831,-4.1648,-4.1604,-4.1582,-4.1515,-4.1431,-4.1408,-4.1408,-4.1408,-4.1408,-4.1408,-4.134,-4.1295,-4.1295,-4.1203,-4.1152,-4.1152,-4.1065,-4.1041,-4.1041,-4.1029,-4.0959,-4.0912,-4.0912,-4.0752,-4.0434,-4.0434,-4.0286,-4.0011,-4.0011,-3.9859,-3.5703,0.0,-3.5695,-3.5709,-3.5704,0.0,-3.6535,-3.7367,-3.8179,-3.8901,-3.9856,-4.0546,-4.0504,-4.0356,-4.0186,-3.9979,-3.9948,-3.9881,-3.9679,-3.9662,-3.9638,-3.9602,-3.9589,-3.9589,-3.9589,-3.9589,-3.9589,-3.9589,-3.9589,-3.9589,-3.9589,-3.9589,-3.9589,-3.9589,-3.9589,-3.9589,-3.9589,-3.9589,-3.9589,-3.9589,-3.9589,-3.9589,-3.9646,-4.0868,-4.1417,-4.1431,-4.1567,-4.1623,-4.1642,-4.1773,-4.1829,-4.1829,-4.1829,-4.1829,-4.1829,-4.1829,-4.1829,-4.1922,-4.2581,-4.2824,-4.2922,-4.3558,-4.3785,-4.3789,-4.3825,-4.3831,-4.385,-4.4014,-4.4051,-4.4051,-4.4051,-4.4051,-4.4051,-4.4036,-4.3777,-4.344,-4.3087,-4.2959,-4.281,-4.2462,-4.236,-4.2216,-4.1856,-4.1762,-4.1697,-4.1697,-4.1631,-4.1604,-4.1604,-4.1604,-4.1604,-4.1604,-4.1493,-4.1426,-4.1426,-4.1318,-4.1232,-4.1232,-4.1209,-4.1209,-4.1209,-4.1152,-4.1053,-4.0935,-4.0912,-4.0912,-4.0912,-4.0912,-4.0912,-4.0912,-4.0912,-4.0638,0.0,0.0,-3.5697,0.0,-3.5704,-3.5723,0.0,0.0,-3.7116,-3.7212,-3.9115,-4.0713,-4.0519,-4.0481,-4.0389,-4.0196,-4.0167,-4.009,-3.9892,-3.9859,-3.98,-3.9614,-3.9589,-3.9589,-3.9589,-3.9589,-3.9589,-3.9589,-3.9589,-3.9589,-3.9589,-3.9589,-3.9589,-3.9589,-3.9589,-3.9589,-3.9589,-3.9589,-3.9589,-3.9589,-3.9589,-3.9589,-3.9608,-3.979,-3.9902,-3.994,-4.0621,-4.094,-4.0997,-4.1697,-4.1978,-4.1978,-4.1978,-4.1978,-4.1978,-4.1978,-4.1978,-4.1983,-4.2023,-4.2047,-4.2052,-4.21,-4.2123,-4.224,-4.2934,-4.314,-4.3289,-4.405,-4.427,-4.427,-4.427,-4.427,-4.424,-4.4199,-4.4119,-4.4039,-4.3876,-4.3577,-4.33,-4.3248,-4.2959,-4.2715,-4.2657,-4.236,-4.2133,-4.2133,-4.1831,-4.1604,-4.1604,-4.1604,-4.1604,-4.1604,-4.1582,-4.1582,-4.1582,-4.1448,-4.1363,-4.1363,-4.1255,-4.1209,-4.1209,-4.1186,-4.1152,-4.107,-4.0959,-4.0912,-4.0912,-4.0912,-4.0912,-4.0912,-4.0912,-4.0847,-3.5721,-3.5699,-3.5708,0.0,-3.5693,-3.5693,-3.5693,-3.6355,-3.6964,-3.6964,-3.823,-3.9476,-3.9863,-4.0338,-4.0598,-4.0389,-4.0364,-4.0295,-4.01,-4.007,-4.003,-3.9956,-3.9845,-3.9766,-3.9766,-3.9674,-3.9589,-3.9589,-3.9589,-3.9589,-3.9589,-3.9589,-3.9589,-3.9589,-3.9589,-3.9589,-3.9589,-3.9589,-3.9589,-3.9589,-3.9589,-3.9589,-3.9589,-3.9589,-3.9589,-3.9627,-3.9965,-4.0134,-4.0171,-4.0497,-4.0666,-4.0666,-4.0666,-4.0666,-4.0666,-4.0666,-4.0666,-4.0722,-4.1134,-4.1271,-4.1346,-4.1734,-4.1856,-4.1931,-4.223,-4.2328,-4.2496,-4.3351,-4.3575,-4.3687,-4.4169,-4.43,-4.4285,-4.4255,-4.4259,-4.424,-4.4177,-4.3939,-4.366,-4.344,-4.3087,-4.281,-4.281,-4.2657,-4.2541,-4.2541,-4.24,-4.2279,-4.2279,-4.2279,-4.2195,-4.1963,-4.1941,-4.1852,-4.1626,-4.1538,-4.1515,-4.1515,-4.1453,-4.1431,-4.1431,-4.1363,-4.1312,-4.1261,-4.1099,-4.0976,-4.0912,-4.0912,-4.0912,-4.0912,-4.0912,-4.0912,0.0,0.0,-3.5726,-3.5694,-3.5708,-3.5708,0.0,-3.6193,-3.6662,-3.6662,-3.7318,-3.8152,-3.9035,-3.9886,-4.0481,-4.0566,-4.0579,-4.0508,-4.03,-4.0274,-4.0248,-4.0204,-4.0071,-3.9979,-3.9969,-3.9837,-3.9738,-3.9679,-3.9668,-3.9644,-3.9589,-3.9589,-3.9589,-3.9589,-3.9589,-3.9589,-3.9589,-3.9662,-3.9668,-3.9668,-3.9668,-3.9668,-3.9668,-3.9626,-3.9589,-3.9589,-3.9589,-3.9589,-3.9589,-3.9589,-3.9589,-3.9589,-3.9589,-3.9589,-3.9589,-3.9589,-3.9589,-3.9683,-4.029,-4.0497,-4.0591,-4.114,-4.1319,-4.1338,-4.1496,-4.1557,-4.1712,-4.2516,-4.2759,-4.2889,-4.3558,-4.3708,-4.3708,-4.3693,-4.3862,-4.4071,-4.4233,-4.4165,-4.3958,-4.361,-4.33,-4.3105,-4.3105,-4.3032,-4.2959,-4.2959,-4.2866,-4.281,-4.281,-4.281,-4.2696,-4.2382,-4.236,-4.2218,-4.192,-4.1899,-4.1874,-4.1744,-4.1744,-4.1719,-4.1604,-4.1515,-4.1426,-4.1403,-4.1261,-4.1099,-4.0989,-4.0959,-4.0959,-4.0959,-4.0912,-4.0912,0.0,-3.5781,0.0,-3.5717,-3.5708,-3.5708,0.0,-3.5742,-3.5762,-3.5762,-3.6459,-3.7339,-3.8199,-3.9016,-3.9826,-4.0653,-4.0773,-4.0711,-4.0518,-4.0477,-4.0404,-4.021,-4.0193,-4.0175,-4.0177,-4.0158,-4.009,-3.9903,-3.9881,-3.9811,-3.9602,-3.9589,-3.9589,-3.9589,-3.9589,-3.9589,-3.9589,-3.9789,-3.9881,-3.9881,-3.9881,-3.9881,-3.9881,-3.9691,-3.9589,-3.9589,-3.9589,-3.9589,-3.9589,-3.9589,-3.9589,-3.9589,-3.9589,-3.9589,-3.9589,-3.9589,-3.9589,-3.9608,-3.9646,-3.9664,-3.9664,-3.9721,-3.9721,-3.9858,-4.0615,-4.0841,-4.1028,-4.1822,-4.2047,-4.2066,-4.2104,-4.2123,-4.209,-4.2037,-4.266,-4.3441,-4.4061,-4.4199,-4.4153,-4.4005,-4.3939,-4.3939,-4.3939,-4.3627,-4.3371,-4.3371,-4.3051,-4.281,-4.281,-4.281,-4.2791,-4.2772,-4.2772,-4.2772,-4.2753,-4.2734,-4.258,-4.2177,-4.2175,-4.2005,-4.1626,-4.1604,-4.1538,-4.1403,-4.1403,-4.1318,-4.1186,-4.1123,-4.1087,-4.1087,-4.0959,-4.0912,0.0,0.0,0.0,-3.5837,-3.5836,-3.5822,-3.5767,-3.576,-3.577,-3.577,-3.598,-3.6605,-3.8035,-3.8963,-3.978,-4.0654,-4.0801,-4.0776,-4.0692,-4.0686,-4.0661,-4.0597,-4.0468,-4.0381,-4.0385,-4.0287,-4.0174,-4.011,-4.0101,-3.9992,-3.9792,-3.98,-3.972,-3.9602,-3.9589,-3.9589,-3.9589,-3.9668,-3.9715,-3.9715,-3.9715,-3.9715,-3.9703,-3.9638,-3.9589,-3.9589,-3.9589,-3.9589,-3.9589,-3.9589,-3.9589,-3.9589,-3.9589,-3.9589,-3.9589,-3.9589,-3.9589,-3.9589,-3.9589,-3.9589,-3.9589,-3.9589,-3.9589,-3.9646,-3.9946,-4.004,-4.0209,-4.1004,-4.1229,-4.136,-4.1873,-4.2004,-4.1991,-4.1978,-4.2634,-4.332,-4.3521,-4.393,-4.4244,-4.415,-4.4135,-4.4104,-4.402,-4.3892,-4.3777,-4.3777,-4.366,-4.3577,-4.3577,-4.3577,-4.3474,-4.3212,-4.3177,-4.3087,-4.2829,-4.281,-4.2753,-4.2599,-4.258,-4.2521,-4.238,-4.2362,-4.236,-4.2302,-4.2302,-4.1948,-4.1209,-4.118,-4.1157,-4.1157,-4.1111,-4.1082,-3.5912,0.0,0.0,0.0,-3.5902,-3.5897,-3.5833,-3.5826,-3.5793,-3.5793,-3.5756,-3.6188,-3.7633,-3.8544,-3.9483,-4.0643,-4.0828,-4.0833,-4.0833,-4.0833,-4.0833,-4.0823,-4.0711,-4.0636,-4.0604,-4.0477,-4.0373,-4.0307,-4.0298,-4.0202,-4.001,-4.0,-3.9946,-3.9811,-3.9811,-3.9811,-3.9811,-3.987,-3.9903,-3.9903,-3.9903,-3.9903,-3.9903,-3.9826,-3.9811,-3.9811,-3.9811,-3.9708,-3.9589,-3.9589,-3.9589,-3.9589,-3.9589,-3.9589,-3.9589,-3.9589,-3.9589,-3.9589,-3.9589,-3.9589,-3.9589,-3.9589,-3.9589,-3.9589,-3.9589,-3.9589,-3.9702,-4.0253,-4.0403,-4.0516,-4.106,-4.1191,-4.1267,-4.1516,-4.2036,-4.2605,-4.3127,-4.3807,-4.4314,-4.4259,-4.4229,-4.4214,-4.4116,-4.4097,-4.4082,-4.407,-4.407,-4.4055,-4.4005,-4.4005,-4.3892,-4.3627,-4.361,-4.3491,-4.323,-4.3195,-4.3141,-4.3014,-4.3014,-4.2941,-4.281,-4.281,-4.281,-4.281,-4.281,-4.2444,-4.1739,-4.1696,-4.1674,-4.1674,-4.1648,-4.1552,0.0,0.0,0.0,0.0,-3.591,-3.5894,-3.5892,-3.584,-3.5803,-3.5799,-3.5801,-3.6065,-3.6941,-3.7743,-3.8836,-4.0558,-4.0869,-4.0907,-4.0907,-4.0907,-4.0898,-4.0907,-4.0902,-4.0877,-4.0812,-4.0793,-4.073,-4.0533,-4.0518,-4.0415,-4.0213,-4.0195,-4.0205,-4.0205,-4.0205,-4.0205,-4.0205,-4.0389,-4.0489,-4.0489,-4.0489,-4.0489,-4.0489,-4.0295,-4.0205,-4.0205,-4.0205,-3.9979,-3.9614,-3.9614,-3.962,-3.9589,-3.9589,-3.9589,-3.9589,-3.9589,-3.9589,-3.9589,-3.9589,-3.9589,-3.9589,-3.9589,-3.9589,-3.9589,-3.9589,-3.9589,-3.9589,-3.9589,-3.9589,-3.9589,-3.9589,-3.9589,-3.9796,-4.0572,-4.0778,-4.1248,-4.29,-4.3854,-4.4364,-4.4314,-4.43,-4.43,-4.43,-4.43,-4.4289,-4.4214,-4.4199,-4.4169,-4.402,-4.4005,-4.4005,-4.4005,-4.4005,-4.4005,-4.4005,-4.4005,-4.3825,-4.344,-4.3423,-4.3248,-4.2848,-4.2847,-4.2847,-4.2847,-4.2847,-4.2847,-4.2847,-4.2679,-4.2602,-4.2602,-4.2542,-4.2302,-3.5982,0.0,0.0,0.0,0.0,0.0,-3.5907,-3.5892,-3.5873,-3.5872,-3.5879,-3.6115,-3.6953,-3.7271,-3.7791,-3.8917,-4.0106,-4.0907,-4.0907,-4.0907,-4.0903,-4.0898,-4.0898,-4.0893,-4.0869,-4.0869,-4.0844,-4.0798,-4.0792,-4.0687,-4.0431,-4.0281,-4.0194,-4.0205,-4.0205,-4.0205,-4.0205,-4.026,-4.0276,-4.0292,-4.0292,-4.029,-4.0285,-4.0234,-4.0208,-4.0208,-4.0208,-4.0146,-4.0015,-3.9876,-3.9738,-3.9589,-3.9589,-3.9589,-3.9589,-3.9589,-3.9589,-3.9589,-3.9589,-3.9589,-3.9589,-3.9589,-3.9589,-3.9589,-3.9589,-3.9589,-3.9589,-3.9589,-3.9589,-3.9589,-3.9589,-3.9589,-3.9664,-3.989,-4.0384,-4.1098,-4.2117,-4.3018,-4.376,-4.427,-4.4368,-4.4373,-4.43,-4.43,-4.4285,-4.4289,-4.427,-4.424,-4.4169,-4.4135,-4.4119,-4.4005,-4.4005,-4.4005,-4.4005,-4.4005,-4.3939,-4.3825,-4.3825,-4.3777,-4.366,-4.366,-4.366,-4.366,-4.366,-4.366,-4.366,-4.3051,-4.2735,-4.2735,-4.2639,-4.2505,0.0,0.0,0.0,-3.5951,0.0,0.0,-3.5901,-3.5903,-3.5899,-3.5862,-3.5866,-3.6008,-3.6468,-3.6848,-3.7275,-3.778,-3.8984,-3.9975,-4.0344,-4.0694,-4.0907,-4.0907,-4.0907,-4.0907,-4.0907,-4.0907,-4.0898,-4.0907,-4.0902,-4.0826,-4.0629,-4.0523,-4.0462,-4.0462,-4.0454,-4.0446,-4.0457,-4.0457,-4.0446,-4.0442,-4.0439,-4.0442,-4.0446,-4.0448,-4.0456,-4.0456,-4.0456,-4.04,-4.0323,-4.021,-4.0033,-3.9857,-3.9857,-3.9857,-3.9857,-3.9857,-3.9857,-3.9857,-3.9843,-3.9851,-3.9851,-3.9848,-3.98,-3.9727,-3.9727,-3.9674,-3.9589,-3.9589,-3.9589,-3.9589,-3.9589,-3.9589,-3.9589,-3.9589,-3.9965,-4.0516,-4.1329,-4.2168,-4.3093,-4.4215,-4.444,-4.4426,-4.4387,-4.4387,-4.4373,-4.4358,-4.4344,-4.4314,-4.4259,-4.4244,-4.4211,-4.4131,-4.4131,-4.4131,-4.4131,-4.4101,-4.4085,-4.4085,-4.402,-4.4005,-4.4005,-4.4005,-4.4005,-4.4005,-4.4005,-4.4005,-4.4005,-4.3525,-4.33,-4.3283,-4.3051,-4.2923,0.0,0.0,0.0,-3.5991,-3.5969,0.0,-3.5908,-3.5903,-3.5883,-3.5813,-3.5818,-3.5815,-3.5807,-3.6441,-3.6977,-3.6977,-3.7692,-3.8557,-3.9431,-4.0169,-4.0616,-4.0616,-4.0616,-4.0616,-4.0616,-4.0616,-4.0626,-4.0621,-4.0616,-4.0586,-4.0521,-4.0521,-4.0524,-4.051,-4.051,-4.0517,-4.0513,-4.0513,-4.0519,-4.0519,-4.062,-4.067,-4.0676,-4.0768,-4.0818,-4.0818,-4.0818,-4.0717,-4.0552,-4.0552,-4.0407,-4.0204,-4.0204,-4.0204,-4.0204,-4.0204,-4.0204,-4.0204,-4.0191,-4.0192,-4.0192,-4.0194,-4.0081,-3.9918,-3.9918,-3.9815,-3.9668,-3.9656,-3.9674,-3.9656,-3.9638,-3.9638,-3.9626,-3.962,-3.9589,-3.9815,-4.0628,-4.1423,-4.2474,-4.405,-4.4444,-4.4501,-4.4501,-4.4501,-4.4487,-4.4411,-4.4411,-4.4401,-4.4314,-4.4314,-4.43,-4.43,-4.43,-4.43,-4.43,-4.4244,-4.4199,-4.4199,-4.407,-4.4005,-4.4005,-4.4005,-4.4005,-4.4005,-4.4005,-4.4005,-4.4005,-4.4005,-4.4005,-4.3989,-4.3627,-4.3474,-3.599,-3.5992,-3.5994,-3.6001,-3.5988,0.0,-3.5986,-3.597,-3.5956,-3.5894,-3.5871,-3.5886,-3.588,-3.6019,-3.6125,-3.6125,-3.6814,-3.7664,-3.8523,-3.8795,-3.8892,-3.8892,-3.8892,-3.8892,-3.8892,-3.8892,-3.8887,-3.8883,-3.8883,-3.885,-3.8782,-3.8782,-3.8787,-3.878,-3.878,-3.88,-3.8794,-3.8794,-3.8785,-3.8806,-3.949,-3.9854,-3.9932,-4.0597,-4.0874,-4.0874,-4.0874,-4.0864,-4.0824,-4.0824,-4.0585,-4.0204,-4.0204,-4.0204,-4.0204,-4.0204,-4.0204,-4.0204,-4.0196,-4.0196,-4.0187,-4.0206,-4.0172,-4.0145,-4.0145,-4.0109,-4.0072,-4.0071,-4.009,-4.005,-3.9881,-3.9837,-3.9811,-3.9638,-3.9589,-3.9815,-4.0628,-4.1423,-4.2305,-4.3332,-4.4064,-4.4501,-4.4501,-4.4501,-4.4501,-4.4487,-4.4487,-4.4458,-4.4383,-4.4368,-4.4373,-4.43,-4.43,-4.43,-4.43,-4.4244,-4.4199,-4.4199,-4.407,-4.4005,-4.4005,-4.4005,-4.4005,-4.4005,-4.4005,-4.4005,-4.4005,-4.4005,-4.4005,-4.4005,-4.3923,-4.3892,-3.5984,-3.6005,-3.6005,-3.5992,-3.5992,0.0,0.0,-3.5947,-3.5933,-3.5917,-3.5894,-3.5909,-3.5897,-3.59,-3.5906,-3.5906,-3.6234,-3.6657,-3.7085,-3.7868,-3.8406,-3.8406,-3.8406,-3.8406,-3.8406,-3.8406,-3.8406,-3.8406,-3.8406,-3.8397,-3.8345,-3.8345,-3.8331,-3.8307,-3.8307,-3.8297,-3.8306,-3.8306,-3.8292,-3.8307,-3.8743,-3.8971,-3.902,-3.9446,-3.9897,-4.0305,-4.0305,-4.0538,-4.0907,-4.0907,-4.0768,-4.0546,-4.0546,-4.0546,-4.0546,-4.0546,-4.0546,-4.0546,-4.0545,-4.0557,-4.0531,-4.0518,-4.0422,-4.0354,-4.0354,-4.0282,-4.02,-4.0201,-4.0201,-4.0174,-4.0072,-4.0043,-3.9992,-3.9796,-3.9747,-3.984,-4.014,-4.0835,-4.1648,-4.2487,-4.3332,-4.4026,-4.4426,-4.4501,-4.4501,-4.4501,-4.4501,-4.4487,-4.444,-4.444,-4.4444,-4.4401,-4.4401,-4.4401,-4.4401,-4.43,-4.4259,-4.4259,-4.4101,-4.402,-4.4104,-4.4039,-4.4005,-4.4005,-4.4005,-4.4005,-4.4005,-4.4005,-4.4005,-4.4005,-4.4005,-4.4005,-3.5977,-3.5979,-3.5979,-3.5981,-3.5981,-3.5972,0.0,0.0,0.0,-3.5917,-3.5914,-3.591,-3.591,-3.5907,-3.5844,-3.5688,-3.5798,-3.5846,-3.5671,-3.6953,-3.7914,-3.7901,-3.7901,-3.7901,-3.7901,-3.7901,-3.7901,-3.7901,-3.7901,-3.7901,-3.7901,-3.7901,-3.7868,-3.7826,-3.7826,-3.7817,-3.7817,-3.7817,-3.7817,-3.7817,-3.7992,-3.8079,-3.8079,-3.8296,-3.8771,-3.9451,-3.9451,-3.9917,-4.0674,-4.0674,-4.0752,-4.0907,-4.0907,-4.0907,-4.0907,-4.0907,-4.0907,-4.0903,-4.0898,-4.0893,-4.0888,-4.0828,-4.0703,-4.0572,-4.0584,-4.0463,-4.0338,-4.0311,-4.033,-4.0303,-4.0271,-4.026,-4.0211,-4.0013,-3.996,-3.9914,-3.9743,-4.0356,-4.1154,-4.1971,-4.2831,-4.364,-4.4378,-4.4501,-4.4501,-4.4501,-4.4501,-4.4501,-4.4501,-4.4501,-4.4501,-4.4501,-4.4501,-4.4501,-4.4501,-4.4387,-4.4314,-4.4314,-4.4147,-4.4085,-4.4214,-4.4101,-4.402,-4.4005,-4.4005,-4.4005,-4.4005,-4.4005,-4.4005,-4.4005,-4.4005,-4.4005,-3.5914,-3.5914,-3.5916,-3.5909,-3.5912,-3.5916,-3.599,0.0,-3.5995,-3.5999,0.0,-3.5994,-3.5994,0.0,0.0,-3.4941,-3.5438,-3.5635,-3.4853,-3.5571,-3.6165,-3.6106,-3.6105,-3.6105,-3.6105,-3.6105,-3.6105,-3.6105,-3.6105,-3.6105,-3.6105,-3.6105,-3.6086,-3.6082,-3.6082,-3.6082,-3.6078,-3.6078,-3.6078,-3.6097,-3.6859,-3.7232,-3.7251,-3.8033,-3.8445,-3.8542,-3.8542,-3.9043,-3.9834,-3.9834,-4.0266,-4.0907,-4.0907,-4.0907,-4.0907,-4.0907,-4.0907,-4.0907,-4.0903,-4.0903,-4.0903,-4.0898,-4.0874,-4.0859,-4.0848,-4.0832,-4.0815,-4.0754,-4.0729,-4.0686,-4.0505,-4.0472,-4.0415,-4.0201,-4.0167,-4.0167,-4.0139,-4.0768,-4.1597,-4.2446,-4.3285,-4.3962,-4.4414,-4.4501,-4.4501,-4.4501,-4.4501,-4.4501,-4.4501,-4.4501,-4.4501,-4.4501,-4.4501,-4.4501,-4.4501,-4.4426,-4.4383,-4.4383,-4.4255,-4.4214,-4.4304,-4.4229,-4.4119,-4.4005,-4.4005,-4.4005,-4.4005,-4.4005,-4.4005,-4.4005,-4.4005,-4.4005,-3.5908,-3.5908,-3.5892,-3.5897,-3.5897,-3.5919,-3.5943,-3.5931,-3.5936,-3.5936,0.0,0.0,0.0,0.0,0.0,0.0,-3.5701,-3.5761,-3.5408,-3.5675,-3.5884,-3.5859,-3.5866,-3.5849,-3.5799,-3.5795,-3.5795,-3.5795,-3.5795,-3.5795,-3.5795,-3.5795,-3.5795,-3.5795,-3.5795,-3.5795,-3.5795,-3.5795,-3.5795,-3.5795,-3.6164,-3.6339,-3.6358,-3.6712,-3.7178,-3.7644,-3.7644,-3.813,-3.8946,-3.8946,-3.9431,-4.0208,-4.0208,-4.0499,-4.0907,-4.0907,-4.0907,-4.0907,-4.0907,-4.0907,-4.0907,-4.0907,-4.0907,-4.0907,-4.0893,-4.0908,-4.0888,-4.0878,-4.0854,-4.0844,-4.0757,-4.0711,-4.0617,-4.0423,-4.0375,-4.0339,-4.0233,-4.0463,-4.095,-4.1791,-4.2631,-4.341,-4.4049,-4.4442,-4.4629,-4.451,-4.4501,-4.4501,-4.4501,-4.4501,-4.4501,-4.4501,-4.4501,-4.4501,-4.4501,-4.4426,-4.4397,-4.4397,-4.4358,-4.4314,-4.43,-4.4314,-4.4285,-4.4177,-4.415,-4.4119,-4.4119,-4.4036,-4.4005,-4.4005,-4.4005,-4.4005,-3.5908,-3.5908,-3.5908,-3.5908,-3.5908,-3.5908,-3.5908,-3.5897,-3.5904,-3.5904,-3.5934,0.0,0.0,0.0,-3.5927,-3.5674,0.0,-3.5848,-3.5598,-3.578,-3.5912,-3.5901,-3.5899,-3.5866,-3.5803,-3.5795,-3.5795,-3.5795,-3.5795,-3.5795,-3.5795,-3.5795,-3.5795,-3.5795,-3.5795,-3.5795,-3.5795,-3.5795,-3.5795,-3.5795,-3.5795,-3.5795,-3.5795,-3.5795,-3.6144,-3.6751,-3.6751,-3.7236,-3.8037,-3.8037,-3.8693,-3.9699,-3.9699,-4.0189,-4.0907,-4.0907,-4.0907,-4.0907,-4.0907,-4.0907,-4.0907,-4.0907,-4.0907,-4.0907,-4.0907,-4.0907,-4.0907,-4.0907,-4.0907,-4.0907,-4.0907,-4.0854,-4.0796,-4.0649,-4.0609,-4.0542,-4.0406,-4.0364,-4.0605,-4.1412,-4.2083,-4.2745,-4.3522,-4.435,-4.4856,-4.4713,-4.4621,-4.4587,-4.4587,-4.4537,-4.4501,-4.4501,-4.4501,-4.4501,-4.4501,-4.4473,-4.4411,-4.4397,-4.4411,-4.4401,-4.43,-4.4354,-4.4373,-4.43,-4.4259,-4.4229,-4.4229,-4.4131,-4.4082,-4.4082,-4.402,-4.4005,-3.5908,-3.5908,-3.5908,-3.5908,-3.5908,-3.5908,-3.5908,-3.5908,-3.5892,-3.5892,-3.5902,-3.589,-3.589,-3.5958,-3.5713,-3.4874,-3.5442,0.0,0.0,-3.5463,-3.5962,-3.5901,-3.5899,-3.5866,-3.5803,-3.5795,-3.5795,-3.5795,-3.5795,-3.5795,-3.5795,-3.5795,-3.5795,-3.5795,-3.5795,-3.5795,-3.5795,-3.5795,-3.5795,-3.5795,-3.5795,-3.5795,-3.5795,-3.5795,-3.5814,-3.5834,-3.5834,-3.6339,-3.7139,-3.7139,-3.8149,-3.9699,-3.9699,-4.0189,-4.0907,-4.0907,-4.0907,-4.0907,-4.0907,-4.0907,-4.0907,-4.0907,-4.0907,-4.0907,-4.0907,-4.0907,-4.0907,-4.0907,-4.0907,-4.0907,-4.0907,-4.0903,-4.0902,-4.0897,-4.0834,-4.0788,-4.0782,-4.0784,-4.1016,-4.1822,-4.1996,-4.2239,-4.2912,-4.4231,-4.5191,-4.518,-4.4962,-4.4776,-4.4776,-4.4621,-4.4501,-4.4501,-4.4501,-4.4501,-4.4501,-4.4501,-4.4473,-4.4397,-4.4473,-4.4444,-4.43,-4.4354,-4.4373,-4.43,-4.43,-4.43,-4.43,-4.4285,-4.4285,-4.4285,-4.4082,-4.4005,-3.5908,-3.5908,-3.5908,-3.5908,-3.5908,-3.5908,-3.5908,-3.5908,-3.5908,-3.5908,-3.5894,-3.5897,-3.5897,-3.5919,-3.5846,-3.5534,-3.5749,-3.5829,0.0,-3.5786,-3.5988,-3.5918,-3.5908,-3.5884,-3.5871,-3.5869,-3.5876,-3.5876,-3.5827,-3.5795,-3.5795,-3.5795,-3.5795,-3.5795,-3.5795,-3.5795,-3.5795,-3.5795,-3.5795,-3.5795,-3.5833,-3.5876,-3.5876,-3.5876,-3.5876,-3.5876,-3.5872,-3.6021,-3.6246,-3.6297,-3.6966,-3.8051,-3.8609,-3.9352,-4.017,-4.0703,-4.0907,-4.0907,-4.0907,-4.0907,-4.0907,-4.0907,-4.0907,-4.0907,-4.0907,-4.0907,-4.0907,-4.0907,-4.0907,-4.0907,-4.0907,-4.0908,-4.0902,-4.0902,-4.0856,-4.079,-4.079,-4.0804,-4.0889,-4.1156,-4.1673,-4.2112,-4.2309,-4.3235,-4.4028,-4.4295,-4.4745,-4.5063,-4.5063,-4.5015,-4.4957,-4.4957,-4.4957,-4.4957,-4.4957,-4.4957,-4.4957,-4.4934,-4.4946,-4.4946,-4.4898,-4.4752,-4.4649,-4.4636,-4.4463,-4.4092,-4.3572,-4.3492,-4.3164,-4.2641,-4.2584,-4.2835,-3.5908,-3.5908,-3.5906,-3.5897,-3.5894,-3.5894,-3.5894,-3.5894,-3.5897,-3.5908,-3.5908,-3.5908,-3.5908,-3.5908,-3.5908,-3.5908,-3.5908,-3.5892,0.0,-3.5948,-3.5945,-3.5913,-3.5897,-3.5895,-3.589,-3.591,-3.589,-3.589,-3.5855,-3.583,-3.583,-3.5843,-3.584,-3.584,-3.584,-3.584,-3.584,-3.584,-3.584,-3.584,-3.588,-3.5899,-3.5906,-3.5906,-3.5908,-3.589,-3.5895,-3.5877,-3.5841,-3.588,-3.6372,-3.7186,-3.8068,-3.8928,-3.9792,-4.0598,-4.0907,-4.0907,-4.0907,-4.0907,-4.0907,-4.0907,-4.0907,-4.0907,-4.0907,-4.0907,-4.0849,-4.0558,-4.0674,-4.083,-4.0558,-4.0699,-4.0898,-4.0898,-4.0877,-4.0842,-4.0842,-4.0812,-4.0801,-4.0798,-4.1257,-4.1613,-4.1583,-4.2293,-4.3057,-4.3611,-4.4106,-4.4422,-4.4422,-4.4325,-4.4274,-4.4274,-4.4541,-4.4857,-4.5163,-4.5201,-4.5201,-4.5201,-4.5201,-4.5201,-4.5201,-4.5041,-4.4798,-4.4482,-4.431,-4.3819,-4.2995,-4.2907,-4.258,-4.2084,-4.1801,-4.1939]},{"header":{"parameterUnit":"m.s-1","parameterCategory":1,"la1":30.6,"la2":29.2853,"lo1":-89.7004,"lo2":-87.6739,"dy":0.0162,"dx":0.0183,"nx":112,"ny":82,"refTime":"2023-09-03T12:00:00:Z","depth":0,"parameterNumber":3,"parameterNumberName":"V-component_of_WINDS"},"data":[0.0,0.0,0.0,0.0,0.0,0.0,0.0,0.0,0.0,0.0,0.0,0.0,0.0,0.0,0.0,0.0,0.0,0.0,0.0,0.0,0.0,0.0,0.0,0.0,0.0,0.0,0.0,0.0,0.0,0.0,0.0,0.0,0.0,0.0,0.0,0.0,0.0,0.0,0.0,0.0,0.0,0.0,0.0,0.0,0.0,0.0,0.0,0.0,0.0,0.0,0.0,0.0,0.0,0.0,0.0,0.0,0.0,0.0,0.0,0.0,0.0,0.0,0.0,0.0,0.0,0.0,0.0,0.0,0.0,0.0,0.0,0.0,0.0,0.0,0.0,0.0,0.0,0.0,0.0,0.0,0.0,0.0,0.0,0.0,0.0,0.0,0.0,0.0,0.0,0.0,-2.522,-2.4744,-2.5169,-2.5336,-2.4922,-2.5204,-2.5336,-2.5188,0.0,0.0,0.0,0.0,0.0,0.0,0.0,0.0,0.0,0.0,0.0,0.0,0.0,0.0,0.0,0.0,0.0,0.0,0.0,0.0,0.0,0.0,0.0,0.0,0.0,0.0,0.0,0.0,0.0,0.0,0.0,0.0,0.0,0.0,0.0,0.0,0.0,0.0,0.0,0.0,0.0,0.0,0.0,0.0,0.0,0.0,0.0,0.0,0.0,0.0,0.0,0.0,0.0,0.0,0.0,0.0,0.0,0.0,0.0,0.0,0.0,0.0,0.0,0.0,0.0,0.0,0.0,0.0,0.0,0.0,0.0,0.0,0.0,0.0,0.0,0.0,0.0,0.0,0.0,0.0,0.0,0.0,0.0,0.0,0.0,0.0,0.0,0.0,0.0,0.0,0.0,0.0,0.0,0.0,0.0,0.0,0.0,0.0,0.0,0.0,0.0,0.0,0.0,0.0,-2.4323,-2.3852,-2.4522,-2.4977,-2.4902,-2.4655,-2.4815,-2.5554,0.0,0.0,0.0,0.0,0.0,0.0,0.0,0.0,0.0,0.0,0.0,0.0,0.0,0.0,0.0,0.0,0.0,0.0,0.0,0.0,0.0,0.0,0.0,0.0,0.0,0.0,0.0,0.0,0.0,0.0,0.0,0.0,0.0,0.0,0.0,0.0,0.0,0.0,0.0,0.0,0.0,0.0,0.0,0.0,0.0,0.0,0.0,0.0,0.0,0.0,0.0,0.0,0.0,0.0,0.0,0.0,0.0,0.0,0.0,0.0,0.0,0.0,0.0,0.0,0.0,0.0,0.0,0.0,0.0,0.0,0.0,0.0,0.0,0.0,0.0,0.0,0.0,0.0,0.0,0.0,0.0,0.0,0.0,0.0,0.0,0.0,0.0,0.0,0.0,0.0,0.0,0.0,0.0,0.0,0.0,0.0,0.0,0.0,0.0,0.0,0.0,0.0,0.0,-2.4938,-2.4538,-2.4338,-2.4879,-2.5088,-2.4614,-2.4851,-2.5029,-2.5098,-2.5605,0.0,0.0,0.0,0.0,0.0,0.0,0.0,0.0,0.0,0.0,0.0,0.0,0.0,0.0,0.0,0.0,0.0,0.0,0.0,0.0,0.0,0.0,0.0,0.0,0.0,0.0,0.0,0.0,0.0,0.0,0.0,0.0,0.0,0.0,0.0,0.0,0.0,0.0,0.0,0.0,0.0,0.0,0.0,0.0,0.0,0.0,0.0,0.0,0.0,0.0,0.0,0.0,0.0,0.0,0.0,0.0,0.0,0.0,0.0,0.0,0.0,0.0,0.0,0.0,0.0,0.0,0.0,0.0,0.0,0.0,0.0,0.0,0.0,0.0,0.0,0.0,0.0,0.0,0.0,0.0,0.0,0.0,0.0,0.0,0.0,0.0,0.0,0.0,0.0,0.0,0.0,0.0,0.0,0.0,0.0,0.0,0.0,0.0,0.0,0.0,0.0,0.0,-2.4724,-2.4563,-2.4441,-2.4855,-2.4871,-2.4183,-2.4751,-2.4993,-2.4684,-2.5211,0.0,0.0,0.0,0.0,0.0,0.0,0.0,0.0,0.0,0.0,0.0,0.0,0.0,0.0,0.0,0.0,0.0,0.0,0.0,0.0,0.0,0.0,0.0,0.0,0.0,0.0,0.0,0.0,0.0,0.0,0.0,0.0,0.0,0.0,0.0,0.0,0.0,0.0,0.0,0.0,0.0,0.0,0.0,0.0,0.0,0.0,0.0,0.0,0.0,0.0,0.0,0.0,0.0,0.0,0.0,0.0,0.0,0.0,0.0,0.0,0.0,0.0,0.0,0.0,0.0,0.0,0.0,0.0,0.0,0.0,0.0,0.0,0.0,0.0,0.0,0.0,0.0,0.0,0.0,0.0,0.0,0.0,0.0,0.0,0.0,0.0,0.0,0.0,0.0,0.0,0.0,0.0,0.0,0.0,0.0,0.0,0.0,0.0,0.0,0.0,0.0,0.0,-2.4006,-2.3508,-2.309,-2.3458,-2.3724,-2.3638,-2.3702,-2.4069,-2.4823,-2.4648,0.0,0.0,0.0,0.0,0.0,0.0,0.0,0.0,0.0,0.0,0.0,0.0,0.0,0.0,0.0,0.0,0.0,0.0,0.0,0.0,0.0,0.0,0.0,0.0,0.0,0.0,0.0,0.0,0.0,0.0,0.0,0.0,0.0,0.0,0.0,0.0,0.0,0.0,0.0,0.0,0.0,0.0,0.0,0.0,0.0,0.0,0.0,0.0,0.0,0.0,0.0,0.0,0.0,0.0,0.0,0.0,0.0,0.0,0.0,0.0,0.0,0.0,0.0,0.0,0.0,0.0,0.0,0.0,0.0,0.0,0.0,0.0,0.0,0.0,0.0,0.0,0.0,0.0,0.0,0.0,0.0,0.0,0.0,0.0,0.0,0.0,0.0,0.0,0.0,0.0,0.0,0.0,0.0,0.0,0.0,0.0,0.0,0.0,0.0,0.0,0.0,0.0,-2.4173,-2.3846,-2.3392,-2.376,-2.3909,-2.3616,-2.3867,-2.4188,-2.4567,0.0,0.0,0.0,0.0,0.0,0.0,0.0,0.0,0.0,0.0,0.0,0.0,0.0,0.0,0.0,0.0,0.0,0.0,0.0,0.0,0.0,0.0,0.0,0.0,0.0,0.0,0.0,0.0,0.0,0.0,0.0,0.0,0.0,0.0,0.0,0.0,0.0,0.0,0.0,0.0,0.0,0.0,0.0,0.0,0.0,0.0,0.0,0.0,0.0,0.0,0.0,0.0,0.0,0.0,0.0,0.0,0.0,0.0,0.0,0.0,0.0,0.0,0.0,0.0,0.0,0.0,0.0,0.0,0.0,0.0,0.0,0.0,0.0,0.0,0.0,0.0,0.0,0.0,0.0,0.0,0.0,0.0,0.0,0.0,0.0,0.0,0.0,0.0,0.0,0.0,0.0,0.0,0.0,0.0,0.0,0.0,0.0,0.0,0.0,0.0,0.0,0.0,-2.4225,-2.4,-2.3717,-2.3414,-2.3653,-2.3732,-2.3414,-2.3674,-2.3994,-2.4359,0.0,0.0,0.0,0.0,0.0,0.0,0.0,0.0,0.0,0.0,0.0,0.0,0.0,0.0,0.0,0.0,0.0,0.0,0.0,0.0,0.0,0.0,0.0,0.0,0.0,0.0,0.0,0.0,0.0,0.0,0.0,0.0,0.0,0.0,0.0,0.0,0.0,0.0,0.0,0.0,0.0,0.0,0.0,0.0,0.0,0.0,0.0,0.0,0.0,0.0,0.0,0.0,0.0,0.0,0.0,0.0,0.0,0.0,0.0,0.0,0.0,0.0,0.0,0.0,0.0,0.0,0.0,0.0,0.0,0.0,0.0,0.0,0.0,0.0,0.0,0.0,0.0,0.0,0.0,0.0,0.0,0.0,0.0,0.0,0.0,0.0,0.0,0.0,0.0,0.0,0.0,0.0,0.0,0.0,0.0,0.0,0.0,0.0,0.0,0.0,0.0,0.0,-2.3715,-2.3238,-2.2888,-2.2888,-2.2902,-2.2902,-2.2888,-2.2902,-2.3312,0.0,0.0,0.0,0.0,0.0,0.0,0.0,0.0,0.0,0.0,0.0,0.0,0.0,0.0,0.0,0.0,0.0,0.0,0.0,0.0,0.0,0.0,0.0,0.0,0.0,0.0,0.0,0.0,0.0,0.0,0.0,0.0,0.0,0.0,0.0,0.0,0.0,0.0,0.0,0.0,0.0,0.0,0.0,0.0,0.0,0.0,0.0,0.0,0.0,0.0,0.0,0.0,0.0,0.0,0.0,0.0,0.0,0.0,0.0,0.0,0.0,0.0,0.0,0.0,0.0,0.0,0.0,0.0,0.0,0.0,0.0,0.0,0.0,0.0,0.0,0.0,0.0,0.0,0.0,0.0,0.0,0.0,0.0,0.0,0.0,0.0,0.0,0.0,0.0,0.0,0.0,0.0,0.0,0.0,0.0,0.0,0.0,0.0,0.0,0.0,0.0,0.0,0.0,-2.3638,-2.3194,-2.2888,-2.2888,-2.3316,-2.3403,-2.2931,-2.3331,-2.3854,-2.4461,0.0,0.0,0.0,0.0,0.0,0.0,0.0,0.0,0.0,0.0,0.0,0.0,0.0,0.0,0.0,0.0,0.0,0.0,0.0,0.0,0.0,0.0,0.0,0.0,0.0,0.0,0.0,0.0,0.0,0.0,0.0,0.0,0.0,0.0,0.0,0.0,0.0,0.0,0.0,0.0,0.0,0.0,0.0,0.0,0.0,0.0,0.0,0.0,0.0,0.0,0.0,0.0,0.0,0.0,0.0,0.0,0.0,0.0,0.0,0.0,0.0,0.0,0.0,0.0,0.0,0.0,0.0,0.0,0.0,0.0,0.0,0.0,0.0,0.0,0.0,0.0,0.0,0.0,0.0,0.0,0.0,0.0,0.0,0.0,0.0,0.0,0.0,0.0,0.0,0.0,0.0,0.0,0.0,0.0,0.0,0.0,0.0,0.0,0.0,0.0,0.0,0.0,-2.4013,-2.3616,-2.3389,-2.3627,-2.4012,-2.4123,-2.3722,-2.4065,-2.4394,-2.4574,0.0,0.0,0.0,0.0,0.0,0.0,0.0,0.0,0.0,0.0,0.0,0.0,0.0,0.0,0.0,0.0,0.0,0.0,0.0,0.0,0.0,0.0,0.0,0.0,0.0,0.0,0.0,0.0,0.0,0.0,0.0,0.0,0.0,0.0,0.0,0.0,0.0,0.0,0.0,0.0,0.0,0.0,0.0,0.0,0.0,0.0,0.0,0.0,0.0,0.0,0.0,0.0,0.0,0.0,0.0,0.0,0.0,0.0,0.0,0.0,0.0,0.0,0.0,0.0,0.0,0.0,0.0,0.0,0.0,0.0,0.0,0.0,0.0,0.0,0.0,0.0,0.0,0.0,0.0,0.0,0.0,0.0,0.0,0.0,0.0,0.0,0.0,0.0,0.0,0.0,0.0,0.0,0.0,0.0,0.0,0.0,0.0,0.0,0.0,0.0,0.0,0.0,-2.4641,-2.4326,-2.4196,-2.4752,-2.4868,-2.4882,-2.4878,-2.4936,-2.4911,-2.4714,0.0,0.0,0.0,0.0,0.0,0.0,0.0,0.0,0.0,0.0,0.0,0.0,0.0,0.0,0.0,0.0,0.0,0.0,0.0,0.0,0.0,0.0,0.0,0.0,0.0,0.0,0.0,0.0,0.0,0.0,0.0,0.0,0.0,0.0,0.0,0.0,0.0,0.0,0.0,0.0,0.0,0.0,0.0,0.0,0.0,0.0,0.0,0.0,0.0,0.0,0.0,0.0,0.0,0.0,0.0,0.0,0.0,0.0,0.0,0.0,-1.8398,-1.8119,0.0,0.0,0.0,0.0,0.0,0.0,0.0,0.0,0.0,0.0,0.0,0.0,0.0,0.0,0.0,0.0,0.0,0.0,0.0,0.0,0.0,0.0,0.0,0.0,0.0,0.0,0.0,0.0,0.0,0.0,0.0,0.0,0.0,0.0,0.0,0.0,0.0,0.0,0.0,0.0,-2.4781,-2.4694,-2.4679,-2.4863,-2.5299,-2.5386,-2.4868,-2.5299,-2.5581,-2.5535,-2.517,0.0,0.0,0.0,0.0,0.0,0.0,0.0,0.0,0.0,0.0,0.0,0.0,0.0,0.0,0.0,0.0,0.0,0.0,0.0,0.0,0.0,0.0,0.0,0.0,0.0,0.0,0.0,0.0,0.0,0.0,0.0,0.0,0.0,0.0,0.0,0.0,0.0,0.0,0.0,0.0,0.0,0.0,0.0,0.0,0.0,0.0,0.0,0.0,0.0,0.0,0.0,0.0,0.0,0.0,0.0,0.0,0.0,0.0,0.0,-1.8691,-1.8509,0.0,0.0,0.0,0.0,0.0,0.0,0.0,0.0,0.0,0.0,0.0,0.0,0.0,0.0,0.0,0.0,0.0,0.0,0.0,0.0,0.0,0.0,0.0,0.0,0.0,0.0,0.0,0.0,0.0,0.0,0.0,0.0,0.0,0.0,0.0,0.0,0.0,0.0,0.0,0.0,-2.5705,-2.5487,-2.5429,-2.5763,-2.6083,-2.6126,-2.5792,-2.6068,-2.6152,-2.5832,-2.5778,0.0,0.0,0.0,0.0,0.0,0.0,0.0,0.0,0.0,0.0,0.0,0.0,0.0,0.0,0.0,0.0,0.0,0.0,0.0,0.0,0.0,0.0,0.0,0.0,0.0,0.0,0.0,0.0,0.0,0.0,0.0,0.0,0.0,0.0,0.0,0.0,0.0,0.0,0.0,0.0,0.0,0.0,0.0,0.0,0.0,0.0,0.0,0.0,0.0,0.0,0.0,0.0,0.0,-1.9227,-1.9275,-1.9275,-1.9275,-1.9275,-1.929,-1.9505,-1.9381,-1.9025,-1.9117,0.0,0.0,0.0,0.0,0.0,0.0,0.0,0.0,0.0,0.0,0.0,0.0,0.0,0.0,0.0,0.0,0.0,0.0,0.0,0.0,0.0,0.0,-1.9965,-2.0509,-2.0646,-2.0797,-2.1459,0.0,0.0,0.0,0.0,0.0,0.0,0.0,0.0,0.0,0.0,0.0,-2.6649,-2.6326,-2.6195,-2.6747,-2.6806,-2.6806,-2.6806,-2.6806,-2.6547,-2.6021,-2.65,-2.63,0.0,0.0,0.0,0.0,0.0,0.0,0.0,0.0,0.0,0.0,0.0,0.0,0.0,0.0,0.0,0.0,0.0,0.0,0.0,0.0,0.0,0.0,0.0,0.0,0.0,0.0,0.0,0.0,0.0,0.0,0.0,0.0,-1.7315,-1.7375,0.0,0.0,0.0,0.0,0.0,0.0,0.0,0.0,0.0,0.0,0.0,0.0,0.0,-1.8963,-1.8891,-1.9435,-1.97,-1.9712,-2.0177,-2.0406,-2.0406,-2.0406,-2.0382,-2.0386,-2.0414,0.0,-1.8987,-1.9025,0.0,0.0,0.0,0.0,0.0,0.0,0.0,0.0,0.0,0.0,0.0,0.0,0.0,0.0,0.0,0.0,0.0,0.0,0.0,0.0,0.0,0.0,-1.9133,-1.9239,-1.9618,-2.0079,-2.0639,-2.1724,-2.2615,-2.2615,-2.3059,-2.3483,0.0,0.0,0.0,0.0,0.0,0.0,-2.6791,-2.6733,-2.6704,-2.6806,-2.6806,-2.6806,-2.6806,-2.6806,-2.675,-2.6663,-2.6736,-2.6733,-2.6533,-2.6444,0.0,0.0,0.0,0.0,0.0,0.0,0.0,0.0,0.0,0.0,0.0,0.0,0.0,0.0,0.0,0.0,0.0,0.0,0.0,0.0,0.0,0.0,0.0,0.0,0.0,0.0,0.0,0.0,0.0,-1.7763,-1.7922,-1.8255,-1.8037,-1.7977,0.0,0.0,0.0,0.0,0.0,0.0,0.0,0.0,0.0,-1.9459,-1.9748,-1.9904,-1.9904,-2.0117,-2.0394,-2.0694,-2.0947,-2.1211,-2.15,-2.15,-2.15,-2.1506,-2.1506,-2.1043,-2.0322,-2.0033,-1.9901,-1.9877,0.0,0.0,0.0,0.0,-1.8987,-1.8987,-1.8987,-1.8987,-1.8987,-1.8987,0.0,0.0,0.0,0.0,0.0,0.0,0.0,-1.9291,-1.9066,-1.9215,-1.9459,-1.9459,-2.0084,-2.0763,-2.1014,-2.176,-2.2412,-2.2487,-2.3247,-2.3978,-2.4219,-2.4935,0.0,0.0,0.0,-2.6553,-2.6618,-2.6645,-2.6671,-2.6779,-2.6806,-2.6806,-2.6806,-2.6806,-2.6806,-2.6806,-2.6806,-2.6806,-2.6806,-2.6711,-2.6713,0.0,0.0,0.0,0.0,0.0,0.0,0.0,0.0,0.0,0.0,0.0,0.0,0.0,0.0,0.0,0.0,0.0,0.0,0.0,0.0,0.0,0.0,0.0,0.0,0.0,0.0,0.0,0.0,-1.8362,-1.8499,-1.8955,-1.865,-1.854,0.0,0.0,0.0,0.0,0.0,0.0,-1.9396,-1.978,-2.0057,-2.0217,-2.0603,-2.0868,-2.1012,-2.1139,-2.1416,-2.1813,-2.1945,-2.2209,-2.2594,-2.2594,-2.2594,-2.2594,-2.2594,-2.2378,-2.1945,-2.1151,-2.073,-2.0574,-2.0153,-2.0013,-1.9949,-1.9552,-1.9408,-1.9408,-1.9408,-1.9408,-1.9408,-1.9408,-1.9408,-1.9408,-1.9408,0.0,0.0,0.0,0.0,-1.9408,-1.9396,-1.9724,-1.9985,-1.9985,-2.0624,-2.1225,-2.1361,-2.1825,-2.23,-2.2537,-2.3427,-2.4287,-2.4749,-2.5251,0.0,-2.6373,-2.6379,-2.634,-2.6445,-2.6445,-2.6513,-2.6674,-2.6674,-2.6674,-2.6674,-2.6674,-2.6674,-2.6674,-2.6686,-2.6712,-2.6712,-2.6779,-2.6806,-2.6753,0.0,0.0,0.0,0.0,0.0,0.0,0.0,0.0,0.0,0.0,0.0,0.0,0.0,0.0,0.0,0.0,0.0,0.0,0.0,0.0,0.0,0.0,0.0,0.0,0.0,0.0,0.0,0.0,0.0,-1.9013,-1.8963,0.0,0.0,0.0,0.0,-1.9527,-1.9689,-1.9973,-2.0473,-2.0562,-2.0774,-2.1308,-2.1356,-2.1596,-2.2101,-2.2606,-2.2871,-2.2939,-2.3445,-2.3697,-2.3722,-2.3722,-2.3722,-2.3722,-2.3722,-2.371,-2.3565,-2.1993,-2.1067,-2.061,-2.0579,-2.055,-2.0574,-2.0521,-2.0538,-2.0538,-2.0538,-2.0538,-2.0538,-2.0538,-2.0538,-2.0538,-2.0538,-2.0538,0.0,0.0,-2.0538,-2.0526,-2.0531,-2.0526,-2.0574,-2.0574,-2.0586,-2.0771,-2.1277,-2.1881,-2.2441,-2.2978,-2.3595,-2.4258,-2.5045,0.0,-2.6109,-2.6272,-2.6299,-2.6313,-2.6313,-2.6299,-2.6299,-2.6313,-2.634,-2.634,-2.634,-2.634,-2.634,-2.634,-2.6445,-2.651,-2.651,-2.6712,-2.6997,-2.7445,-2.6812,0.0,0.0,0.0,0.0,0.0,0.0,0.0,0.0,0.0,0.0,0.0,0.0,0.0,0.0,0.0,0.0,0.0,0.0,0.0,0.0,0.0,0.0,0.0,0.0,0.0,0.0,0.0,0.0,-1.8866,-1.9125,0.0,-1.9325,-1.9539,-1.9868,-2.0224,-2.0478,-2.0794,-2.1115,-2.1765,-2.2221,-2.2414,-2.2248,-2.2267,-2.2453,-2.2115,-2.24,-2.3256,-2.3431,-2.3976,-2.4759,-2.4759,-2.4759,-2.4759,-2.4759,-2.4566,-2.4206,-2.364,-2.3111,-2.265,-2.2289,-2.2125,-2.2101,-2.1765,-2.1632,-2.1632,-2.1632,-2.1404,-2.1067,-2.0701,-2.0581,-2.061,-2.0586,-2.0586,-2.0586,-2.061,-2.0581,-2.061,-2.0598,-2.1115,-2.1632,-2.1632,-2.2149,-2.2702,-2.2883,-2.3098,-2.3324,-2.3582,-2.418,-2.4638,-2.4624,-2.537,-2.6029,-2.6138,-2.6084,-2.6056,-2.6165,-2.6179,-2.6206,-2.6286,-2.6313,-2.6313,-2.6313,-2.6313,-2.6313,-2.6313,-2.6353,-2.6392,-2.6484,-2.6578,-2.675,-2.7037,-2.6817,-2.6707,0.0,0.0,0.0,0.0,0.0,0.0,0.0,0.0,0.0,0.0,0.0,0.0,0.0,0.0,0.0,0.0,0.0,0.0,0.0,0.0,0.0,0.0,0.0,0.0,0.0,-1.8898,-1.8978,-1.902,-1.9472,-1.9852,-2.0025,-2.0328,-2.0742,-2.126,-2.1576,-2.1758,-2.18,-2.2628,-2.3038,-2.2922,-2.3213,-2.3265,-2.3149,-2.3232,-2.3534,-2.4129,-2.4419,-2.5003,-2.5853,-2.5853,-2.5853,-2.5853,-2.5853,-2.5625,-2.53,-2.53,-2.5131,-2.4735,-2.3697,-2.3211,-2.3131,-2.2751,-2.2683,-2.2758,-2.2758,-2.2455,-2.2044,-2.1758,-2.162,-2.1577,-2.1656,-2.1675,-2.1687,-2.168,-2.168,-2.168,-2.168,-2.2197,-2.2758,-2.2758,-2.3288,-2.3806,-2.3806,-2.3806,-2.3817,-2.3872,-2.4269,-2.453,-2.4261,-2.4978,-2.5619,-2.5729,-2.5839,-2.5921,-2.6029,-2.6029,-2.6056,-2.6165,-2.6179,-2.6179,-2.6179,-2.6179,-2.6179,-2.6179,-2.6206,-2.6272,-2.6365,-2.6457,-2.6551,-2.6712,-2.6779,-2.6806,-2.6837,0.0,0.0,0.0,0.0,0.0,0.0,0.0,0.0,0.0,0.0,0.0,0.0,0.0,0.0,0.0,0.0,0.0,0.0,0.0,0.0,0.0,0.0,0.0,-1.8741,-1.9085,-1.9347,-1.9511,-2.0001,-2.0493,-2.0917,-2.1242,-2.1817,-2.2642,-2.291,-2.2909,-2.2617,-2.3004,-2.3125,-2.2857,-2.4078,-2.4572,-2.4151,-2.5862,-2.6344,-2.5527,-2.6382,-2.6772,-2.6822,-2.681,-2.681,-2.681,-2.6822,-2.6772,-2.6772,-2.6772,-2.6772,-2.6619,-2.464,-2.3778,-2.3599,-2.3599,-2.3687,-2.3842,-2.383,-2.3685,-2.3573,-2.3739,-2.3661,-2.3561,-2.3727,-2.3806,-2.3806,-2.3806,-2.3806,-2.3806,-2.3806,-2.3818,-2.383,-2.383,-2.3842,-2.3854,-2.3854,-2.3854,-2.3842,-2.383,-2.3882,-2.3939,-2.4001,-2.4605,-2.5059,-2.5059,-2.5564,0.0,-2.595,-2.5936,-2.5921,-2.5921,-2.5907,-2.5893,-2.5893,-2.5893,-2.5893,-2.5893,-2.6029,-2.6084,-2.6084,-2.6365,-2.6484,-2.651,-2.6712,-2.7037,-2.7515,0.0,0.0,0.0,0.0,0.0,0.0,0.0,0.0,0.0,0.0,0.0,0.0,0.0,0.0,0.0,0.0,0.0,0.0,0.0,0.0,0.0,-1.8312,-1.8244,-1.8918,-1.9102,-1.9435,-2.0211,-2.0771,-2.1358,-2.2012,-2.2238,-2.2551,-2.3029,-2.3246,-2.3239,-2.2997,-2.3563,-2.3825,-2.3606,-2.3588,-2.3488,-2.3384,-2.3314,-2.3465,-2.3785,-2.4025,-2.441,-2.4949,-2.4792,-2.4714,-2.4714,-2.4535,-2.4417,-2.4417,-2.4417,-2.4377,-2.4423,-2.5597,-2.5781,-2.5385,-2.5385,-2.518,-2.4831,-2.4446,-2.428,-2.4186,-2.3881,-2.3761,-2.3739,-2.3773,-2.3806,-2.3806,-2.3806,-2.3806,-2.3806,-2.3806,-2.4037,-2.4314,-2.4314,-2.4602,-2.4891,-2.4891,-2.4891,-2.4771,-2.4386,-2.4328,-2.4369,-2.4501,-2.5454,-2.6234,-2.6234,-2.6837,-2.7285,-2.7285,-2.6849,-2.6554,-2.6554,-2.616,-2.5893,-2.5893,-2.5893,-2.5893,-2.5893,-2.5921,-2.6002,-2.6084,-2.6165,-2.6312,-2.651,-2.6712,-2.7037,0.0,0.0,0.0,0.0,0.0,0.0,0.0,0.0,0.0,0.0,0.0,0.0,0.0,0.0,0.0,0.0,0.0,0.0,0.0,0.0,0.0,0.0,-1.8354,-1.8369,-1.9291,-1.9755,-2.0185,-2.0665,-2.1209,-2.201,-2.3232,-2.2912,-2.2999,-2.3866,-2.3782,-2.341,-2.2806,-2.3425,-2.3564,-2.3043,-2.3443,-2.3473,-2.2982,-2.3265,-2.3463,-2.3504,-2.3784,-2.4144,-2.4573,-2.4461,-2.441,-2.4369,-2.4235,-2.4154,-2.4154,-2.4154,-2.4113,-2.4132,0.0,0.0,0.0,0.0,-2.5623,-2.5206,-2.4767,-2.4553,-2.4471,-2.429,-2.4229,-2.4229,-2.432,-2.4388,-2.441,-2.441,-2.441,-2.441,-2.441,-2.4626,-2.4855,-2.4855,-2.5083,-2.5312,-2.5312,-2.5312,-2.5216,-2.4915,-2.4855,0.0,-2.4955,-2.546,-2.5865,-2.5865,-2.6708,-2.7335,-2.7335,-2.7265,-2.7214,-2.7214,-2.6652,-2.6287,-2.6287,-2.6048,0.0,0.0,0.0,-2.5948,-2.6084,-2.6084,0.0,0.0,0.0,-2.6841,-2.7214,-2.7214,0.0,0.0,-2.7247,-2.7306,0.0,0.0,0.0,0.0,0.0,0.0,0.0,0.0,0.0,0.0,0.0,0.0,0.0,0.0,0.0,0.0,-1.8364,-1.8561,-1.9796,-2.0687,-2.1194,-2.1002,-2.1394,-2.2393,-2.4185,-2.3282,-2.3139,-2.4596,-2.4118,-2.3336,-2.2335,-2.287,0.0,0.0,0.0,-2.382,-2.2759,-2.4402,-2.4766,-2.392,-2.45,-2.4787,-2.4787,-2.4787,-2.4745,-2.4745,-2.4745,-2.4702,-2.4702,-2.4702,-2.4702,-2.4661,-2.3873,-2.4136,-2.4932,-2.5301,-2.5389,-2.5282,-2.5034,0.0,0.0,-2.48,-2.4837,-2.4825,-2.5016,-2.5147,-2.5241,-2.5241,-2.5289,-2.5337,-2.5361,-2.5409,-2.5457,-2.5492,-2.5444,-2.5396,-2.5396,-2.5348,-2.5312,-2.5312,-2.5312,-2.5312,-2.5312,-2.5074,-2.4893,-2.4893,-2.5968,-2.6789,-2.6789,-2.7354,-2.7786,-2.7786,-2.727,0.0,-2.6919,-2.6357,-2.5992,-2.5992,-2.5936,-2.5948,-2.6056,-2.6084,-2.6218,-2.6457,-2.6457,-2.6578,-2.6779,-2.6779,-2.6985,-2.7414,-2.7291,-2.7535,0.0,0.0,0.0,0.0,0.0,0.0,0.0,0.0,0.0,0.0,0.0,0.0,0.0,0.0,0.0,-1.8647,-1.864,-1.8911,-2.0118,-2.1015,-2.1518,-2.1453,-2.1547,-2.2115,-2.3402,-2.3142,-2.305,-2.3329,-2.3089,-2.2712,-2.2176,-2.2402,-2.2397,-2.2064,-2.2746,-2.2925,-2.2485,-2.3047,-2.3125,-2.2731,-2.2862,0.0,-2.2896,-2.2775,-2.2687,-2.2687,-2.2467,-2.2369,-2.2369,-2.2369,-2.2369,-2.2497,-2.369,-2.5169,-2.6479,-2.5422,-2.5471,-2.6092,-2.6047,-2.5704,-2.5315,-2.5352,-2.5119,-2.479,-2.4861,-2.4897,0.0,-2.4885,-2.518,-2.5487,-2.5646,-2.6028,-2.6387,-2.6548,-2.6274,-2.5949,-2.5949,-2.5612,-2.5312,-2.5312,-2.5312,-2.5312,-2.5312,-2.5724,-2.6067,-2.6067,-2.6793,-2.7354,-2.7354,-2.7521,-2.7643,-2.7643,-2.7619,-2.7622,-2.7622,-2.7003,-2.6638,-2.6638,-2.6174,-2.5921,-2.5948,-2.6029,-2.6111,-2.6192,-2.6272,-2.6406,-2.6551,-2.6551,-2.6698,-2.6948,-2.7269,-2.7725,0.0,0.0,0.0,0.0,0.0,0.0,0.0,0.0,0.0,0.0,0.0,-1.6567,-1.6466,0.0,-1.7703,-1.8869,-1.8988,-1.9298,-2.0275,-2.076,-2.1212,-2.159,-2.163,-2.213,-2.3391,-2.2722,-2.2451,-2.3001,-2.263,-2.2258,-2.1909,-2.2132,-2.2132,-2.1919,-2.2353,-2.2485,-2.2264,-2.2397,-2.2397,-2.2264,-2.2087,-2.2043,-2.2043,-2.1963,-2.1919,-2.1874,-2.1785,-2.1696,-2.1696,-2.1696,-2.1989,-2.2438,-2.2861,-2.4168,-2.5724,-2.5187,-2.5577,-2.6349,-2.6093,-2.5838,-2.5591,-2.5591,-2.5503,-2.5417,-2.5417,-2.548,-2.5542,-2.5542,-2.5804,-2.6068,-2.6192,-2.6457,-2.6772,-2.6898,-2.6681,-2.6514,-2.6514,-2.6273,-2.6081,-2.6081,-2.6081,-2.6033,-2.5745,-2.6018,-2.6181,-2.5898,-2.6471,-2.6947,-2.6947,-2.7302,-2.767,-2.8008,-2.7848,-2.7853,-2.824,-2.7664,-2.7158,-2.6835,-2.6526,-2.6217,-2.5907,-2.5948,-2.6029,-2.6084,-2.6179,-2.6272,-2.6392,-2.6392,-2.6486,-2.6645,-2.6904,-2.7312,0.0,0.0,0.0,0.0,0.0,0.0,0.0,0.0,-1.6083,-1.6197,-1.679,-1.7225,-1.7058,-1.7468,-1.8137,-1.9084,-1.9397,-1.9759,-2.0442,-2.0591,-2.0903,-2.1591,-2.164,-2.2048,-2.3197,-2.2246,-2.1879,-2.277,-2.2344,-2.1919,-2.1687,-2.1919,-2.1919,-2.1696,-2.2132,-2.222,-2.2008,-2.2052,-2.2052,-2.2008,-2.1785,-2.1696,-2.1696,-2.1696,-2.1696,-2.1696,-2.1696,-2.1696,-2.1696,-2.1696,-2.2157,-2.2755,-2.1989,-2.2731,-2.4276,-2.4576,-2.5314,-2.605,-2.5616,-2.5402,-2.5324,-2.553,-2.5629,-2.5704,-2.587,-2.605,-2.6191,-2.6191,-2.6415,-2.6662,-2.6688,-2.6924,-2.716,-2.7198,-2.7126,-2.7054,-2.7054,-2.697,-2.6898,-2.6898,-2.6898,-2.6753,-2.6334,-2.6262,-2.6045,-2.5408,-2.5804,-2.6173,-2.6173,-2.6845,-2.7504,-2.8038,-2.7894,-2.8036,-2.8643,-2.8269,-2.7678,-2.7045,-2.6989,-2.6722,-2.6104,-2.6062,-2.6075,-2.6056,-2.6056,-2.6111,-2.626,-2.626,-2.6353,-2.651,-2.651,-2.6811,-1.4558,-1.4677,-1.5116,-1.4642,-1.5247,-1.6013,0.0,-1.6358,-1.643,-1.6969,-1.7269,-1.7447,-1.7457,-1.8348,-1.9148,-1.9273,-1.9892,-2.0503,-2.0946,-2.1022,-2.1181,-2.1636,-2.1394,-2.1373,-2.1887,-2.1747,-2.173,-2.1865,-2.1776,-2.1731,-2.1696,-2.1741,-2.1731,-2.1696,-2.1963,-2.2008,-2.1741,-2.1963,-2.1963,-2.1741,-2.1687,-2.1696,-2.1696,-2.1696,-2.1696,-2.1696,-2.1696,-2.1696,-2.1696,-2.1696,-2.1776,-2.1865,-2.1731,-2.2334,-2.326,-2.3298,-2.3935,-2.4713,-2.4661,-2.4315,-2.4083,-2.4892,-2.488,-2.4635,-2.5461,-2.5754,-2.5781,-2.5781,-2.6271,-2.6815,-2.6988,-2.7526,-2.808,-2.829,-2.7981,-2.7594,-2.7594,-2.7234,-2.6898,-2.6898,-2.6898,-2.6873,-2.6813,-2.6801,-2.6453,-2.5468,-2.5382,-2.5406,-2.5406,-2.607,-2.6552,-2.6641,-2.769,-2.8461,-2.8671,-2.8633,-2.8324,-2.7735,-2.7693,-2.7383,-2.6736,-2.6708,-2.6455,-2.5935,-2.5921,-2.5975,-2.6111,-2.6111,-2.6258,-2.651,-2.651,-2.663,-1.4688,-1.4874,-1.5249,-1.4719,-1.5572,-1.6517,-1.6435,-1.6711,-1.707,-1.7329,-1.7813,-1.8201,-1.8201,-1.9008,-1.9668,-1.9668,-2.0338,-2.0924,-2.1089,-2.1319,-2.1495,-2.1668,-2.1531,-2.1504,-2.1678,-2.1696,-2.1696,-2.1696,-2.1696,-2.1797,-2.2025,-2.2034,-2.2144,-2.2391,-2.2493,-2.2493,-2.24,-2.2493,-2.2373,-2.2034,-2.2034,-2.1916,-2.1696,-2.1696,-2.1815,-2.2053,-2.23,-2.24,-2.2382,-2.2135,-2.2034,-2.2016,-2.1778,-2.1954,-2.2325,-2.2887,-2.3704,-2.4498,-2.4498,-2.4364,-2.424,-2.463,-2.4939,-2.527,-2.5658,-2.6124,-2.6548,-2.6548,-2.6898,-2.7208,-2.7317,-2.7693,-2.8042,-2.8122,-2.8064,-2.7977,-2.7977,-2.7927,-2.7849,-2.7849,-2.7849,-2.7714,-2.7402,-2.7354,-2.7102,-2.6333,-2.5985,-2.5769,-2.5769,-2.5776,-2.5931,-2.6346,-2.7657,-2.8525,-2.8591,-2.8993,-2.897,-2.8352,-2.831,-2.8029,-2.7397,-2.7369,-2.7256,-2.7018,-2.7018,-2.7018,-2.7103,-2.7173,-2.73,-2.7481,-2.7606,-2.7758,-1.4726,-1.5032,-1.5432,-1.5167,-1.6059,-1.6939,-1.6814,-1.7339,-1.7825,-1.7825,-1.8385,-1.8871,-1.8871,-1.9417,-1.993,-2.0031,-2.0668,-2.1145,-2.1264,-2.1504,-2.1696,-2.1696,-2.1696,-2.1696,-2.1696,-2.1696,-2.1696,-2.1696,-2.1696,-2.1861,-2.2254,-2.2282,-2.2474,-2.2895,-2.2904,-2.2904,-2.2904,-2.2904,-2.2757,-2.2455,-2.2455,-2.23,-2.2025,-2.2025,-2.2181,-2.2465,-2.2776,-2.2904,-2.2885,-2.2574,-2.2455,-2.2428,-2.2135,-2.2025,-2.2116,-2.2799,-2.331,-2.3724,-2.3724,-2.3724,-2.3757,-2.4016,-2.452,-2.5147,-2.5652,-2.6268,-2.688,-2.7138,-2.733,-2.7522,-2.7522,-2.7708,-2.7893,-2.7893,-2.803,-2.8219,-2.8219,-2.8339,-2.851,-2.851,-2.851,-2.839,-2.8005,-2.7906,-2.7774,-2.739,-2.6899,-2.649,-2.6346,-2.5853,-2.5752,-2.6324,-2.7324,-2.8005,-2.8214,-2.8885,-2.9112,-2.8666,-2.8836,-2.8675,-2.8087,-2.8058,-2.7974,-2.7805,-2.7805,-2.7805,-2.7805,-2.7894,-2.801,-2.8154,-2.8326,-2.8497,-1.4264,-1.4885,-1.5633,-1.6218,-1.6785,-1.7325,-1.7907,-1.8385,-1.8678,-1.8678,-1.8999,-1.9283,-1.9283,-1.9641,-2.0012,-2.0438,-2.0842,-2.1245,-2.1614,-2.1678,-2.1696,-2.1696,-2.1696,-2.1696,-2.1696,-2.1696,-2.1696,-2.1696,-2.1696,-2.1861,-2.2254,-2.2282,-2.2474,-2.2895,-2.2904,-2.2904,-2.2904,-2.2904,-2.2904,-2.2885,-2.2885,-2.2885,-2.2867,-2.2867,-2.2876,-2.2885,-2.2904,-2.2904,-2.2904,-2.2895,-2.2885,-2.2885,-2.2876,-2.2867,-2.2876,-2.2914,-2.2419,-2.1776,-2.1776,-2.1776,-2.1945,-2.2843,-2.3183,-2.3521,-2.5274,-2.583,-2.6038,-2.6921,-2.733,-2.7522,-2.7522,-2.7708,-2.7893,-2.7893,-2.803,-2.8219,-2.8219,-2.8339,-2.851,-2.851,-2.851,-2.8498,-2.8486,-2.8486,-2.8474,-2.8462,-2.7978,-2.745,-2.6934,-2.6418,-2.6165,-2.6374,-2.6449,-2.6744,-2.7471,-2.8149,-2.8524,-2.851,-2.917,-2.9307,-2.8689,-2.8661,-2.8394,-2.7819,-2.7805,-2.7805,-2.7805,-2.7805,-2.7864,-2.8009,-2.8154,-2.8297,-1.4734,-1.5384,-1.6035,-1.6599,-1.7358,-1.8066,-1.841,-1.8815,-1.91,-1.91,-1.921,-1.9301,-1.9301,-1.965,-1.993,-2.0067,-2.0677,-2.1154,-2.13,-2.1513,-2.1696,-2.1696,-2.1696,-2.1696,-2.1696,-2.1696,-2.1696,-2.1696,-2.1934,-2.2263,-2.2675,-2.294,-2.3318,-2.3739,-2.3749,-2.3749,-2.3749,-2.3749,-2.3611,-2.3288,-2.3032,-2.2904,-2.2922,-2.3178,-2.3297,-2.3316,-2.3629,-2.3749,-2.373,-2.3407,-2.3297,-2.327,-2.3004,-2.2904,-2.2904,-2.2904,-2.273,-2.2501,-2.2501,-2.2318,-2.2171,-2.2469,-2.3252,-2.4145,-2.4734,-2.5768,-2.6787,-2.7097,-2.726,-2.7301,-2.7301,-2.7394,-2.7435,-2.7435,-2.7574,-2.7725,-2.7725,-2.8007,-2.8299,-2.8299,-2.8431,-2.851,-2.851,-2.851,-2.851,-2.851,-2.8026,-2.7498,-2.697,-2.6729,-2.6516,-2.6249,-2.665,-2.6886,-2.6782,-2.7808,-2.8492,-2.8492,-2.9184,-2.9518,-2.9307,-2.9307,-2.9195,-2.8998,-2.8984,-2.8984,-2.8984,-2.9092,-2.9139,-2.9199,-2.947,-2.9619,-1.5351,-1.6104,-1.6814,-1.7301,-1.8042,-1.8683,-1.8878,-1.9118,-1.9301,-1.9301,-1.9191,-1.9136,-1.9274,-1.9412,-1.9555,-1.9838,-2.0433,-2.0943,-2.1089,-2.1475,-2.1696,-2.1696,-2.1696,-2.1696,-2.1696,-2.1824,-2.1897,-2.1897,-2.2135,-2.2529,-2.3087,-2.3352,-2.373,-2.4192,-2.4202,-2.4202,-2.4202,-2.4202,-2.4073,-2.3758,-2.3501,-2.3382,-2.3391,-2.3648,-2.3758,-2.3776,-2.4082,-2.4202,-2.4183,-2.3868,-2.3758,-2.3739,-2.3483,-2.3382,-2.3382,-2.3382,-2.3382,-2.3345,-2.3004,-2.273,-2.2501,-2.2501,-2.3176,-2.3974,-2.4317,-2.5236,-2.6322,-2.7023,-2.7192,-2.7242,-2.7458,-2.7506,-2.7461,-2.7236,-2.733,-2.7522,-2.7522,-2.7805,-2.8111,-2.8111,-2.8271,-2.8379,-2.8379,-2.8471,-2.851,-2.851,-2.8222,-2.7774,-2.7246,-2.7186,-2.697,-2.6454,-2.6651,-2.6667,-2.6321,-2.7206,-2.7743,-2.7743,-2.8661,-2.923,-2.923,-2.9463,-2.9602,-2.9602,-2.9602,-2.9602,-2.9602,-2.9682,-2.973,-2.973,-3.0007,-3.0129,-1.6104,-1.6996,-1.7912,-1.8339,-1.8753,-1.9082,-1.9262,-1.9283,-1.9265,-1.9265,-1.8962,-1.8797,0.0,-1.8953,-1.8962,-1.9701,-2.0177,-2.0622,-2.1016,-2.1438,-2.1668,-2.1696,-2.1705,-2.1723,-2.1723,-2.208,-2.2318,-2.2336,-2.2346,-2.2675,-2.3453,-2.3517,-2.3749,-2.4192,-2.4202,-2.4202,-2.4202,-2.4202,-2.4202,-2.4202,-2.4202,-2.4202,-2.4202,-2.4202,-2.4202,-2.4202,-2.4202,-2.4202,-2.4202,-2.4202,-2.4202,-2.4202,-2.4202,-2.4202,-2.4202,-2.4202,-2.4202,-2.4091,-2.3233,-2.2959,-2.294,-2.294,-2.2969,-2.313,-2.4025,-2.4348,-2.4752,-2.6606,-2.715,-2.7316,-2.783,-2.8023,-2.7897,-2.7415,-2.7411,-2.7551,-2.7516,-2.7743,-2.7916,-2.7893,-2.807,-2.8219,-2.8219,-2.8391,-2.851,-2.851,-2.851,-2.833,-2.7825,-2.7726,-2.7522,-2.6994,-2.6502,-2.6166,-2.6142,-2.6323,-2.643,-2.643,-2.7703,-2.846,-2.8492,-2.9153,-2.9571,-2.9602,-2.9602,-2.9602,-2.9602,-2.9602,-2.9602,-2.9602,-2.973,-2.9808,-1.7125,-1.7684,-1.816,-1.8689,-1.9031,-1.9222,-1.9301,-1.9072,-1.8861,-1.8861,-1.855,-1.8264,-1.8412,-1.8586,-1.8779,-1.899,-1.9573,-2.0177,-2.0613,-2.1016,0.0,-2.165,0.0,-2.2126,-2.2126,-2.2501,-2.2867,-2.316,-2.3178,-2.3279,-2.348,-2.3831,-2.4101,-2.4202,-2.4202,-2.4202,-2.4202,-2.4202,-2.4202,-2.4202,-2.4202,-2.4202,-2.4202,-2.4202,-2.4202,-2.4202,-2.4202,-2.4202,-2.4202,-2.4202,-2.4202,-2.4202,-2.4202,-2.4202,-2.4202,-2.4202,-2.4202,-2.4174,-2.3972,-2.3648,-2.3343,-2.3343,-2.3598,-2.3988,-2.421,-2.4798,-2.5472,-2.5958,-2.6596,-2.7206,-2.736,-2.7946,-2.8482,-2.8356,-2.8364,-2.8303,-2.7946,-2.8032,-2.8093,-2.7696,-2.7938,-2.8219,-2.8219,-2.8391,-2.851,-2.851,-2.851,-2.8462,-2.833,-2.8318,-2.8114,-2.7534,-2.7354,-2.7152,-2.6717,-2.6867,-2.6995,-2.6995,-2.747,-2.7986,-2.8492,-2.8666,-2.9044,-2.9571,-2.9602,-2.9602,-2.9602,-2.9602,-2.9602,-2.9602,-2.973,-2.9808,-1.7539,-1.7987,-1.836,-1.8868,-1.9073,-1.9107,-1.8955,-1.8745,-1.8506,-1.8267,-1.7951,-1.7761,-1.7933,-1.8072,-1.8293,-1.865,0.0,0.0,-2.0438,-2.086,-2.1264,0.0,-2.2044,0.0,-2.2282,-2.2812,-2.3251,-2.348,-2.3499,-2.3572,-2.3804,-2.4082,-2.4202,-2.4202,-2.4202,-2.4202,-2.4202,-2.4202,-2.4202,-2.4202,-2.4202,-2.4202,-2.4202,-2.4202,-2.4202,-2.4202,-2.4202,-2.4202,-2.4202,-2.4202,-2.4202,-2.4202,-2.4202,-2.4202,-2.4202,-2.4202,-2.4202,-2.4202,-2.4202,-2.4055,-2.3813,-2.3813,-2.4035,-2.426,-2.426,-2.463,-2.513,-2.5561,-2.612,-2.6714,-2.7374,-2.7955,-2.8429,-2.866,-2.87,-2.8632,-2.8356,-2.8383,-2.843,-2.8201,-2.8257,-2.839,-2.839,-2.8454,-2.8471,-2.8379,-2.8431,-2.851,-2.851,-2.851,-2.8402,-2.8102,-2.7822,-2.757,-2.727,-2.7151,-2.7077,-2.7077,-2.7483,-2.7769,-2.7904,-2.8538,-2.8952,-2.9121,-2.9432,-2.9602,-2.9602,-2.9602,-2.9602,-2.9602,-2.9682,-2.9699,-1.7713,-1.8149,-1.8523,-1.8882,-1.9002,-1.8894,-1.847,-1.8382,-1.8161,-1.7614,-1.7286,-1.7216,-1.7577,-1.7597,-1.7752,-1.8449,0.0,-1.9549,-2.0255,-2.0741,-2.1181,-2.1559,-2.2053,-2.2364,-2.2364,-2.3096,-2.3572,-2.3572,-2.3572,-2.3776,-2.4183,-2.4202,-2.4202,-2.4202,-2.4202,-2.4202,-2.4202,-2.4202,-2.4202,-2.4202,-2.4202,-2.4202,-2.4202,-2.4202,-2.4202,-2.4202,-2.4202,-2.4202,-2.4202,-2.4202,-2.4202,-2.4202,-2.4202,-2.4202,-2.4202,-2.4202,-2.4202,-2.4202,-2.4202,-2.4202,-2.4202,-2.4202,-2.4202,-2.4202,-2.4202,-2.4202,-2.439,-2.5265,-2.5596,-2.603,-2.7363,-2.7807,-2.8027,-2.8562,-2.8722,-2.8699,-2.8772,-2.8746,-2.8743,-2.8927,-2.878,-2.8644,-2.8644,-2.859,-2.8487,-2.8326,-2.8427,-2.851,-2.851,-2.851,-2.851,-2.851,-2.8102,-2.7825,-2.7825,-2.7306,-2.7006,-2.7006,-2.7533,-2.7713,-2.7333,-2.8486,-2.8993,-2.875,-2.9287,-2.9603,-2.9729,-2.9645,-2.9602,-2.9602,-2.9602,-2.9602,-1.8105,-1.835,-1.8523,-1.8882,-1.9002,-1.8894,-1.847,-1.8136,0.0,-1.7132,-1.6714,-1.6536,-1.6766,-1.7334,-1.7751,-1.7697,-1.8605,-1.9347,-1.9494,-2.0154,-2.0769,0.0,-2.2135,-2.2794,-2.2794,-2.3574,-2.4101,-2.4101,-2.4101,-2.4128,-2.4202,-2.4202,-2.4202,-2.4202,-2.4202,-2.4202,-2.4202,-2.4202,-2.4202,-2.4202,-2.4202,-2.4202,-2.4202,-2.4202,-2.4202,-2.4202,-2.4202,-2.4202,-2.4202,-2.4202,-2.4202,-2.4202,-2.4202,-2.4202,-2.4202,-2.4202,-2.4202,-2.4202,-2.4202,-2.4202,-2.4202,-2.4202,-2.4202,-2.4202,-2.4202,-2.4202,-2.4251,-2.439,-2.5069,-2.5771,-2.603,-2.6707,-2.7572,-2.8484,-2.8703,-2.8832,-2.9269,-2.901,-2.87,-2.8743,-2.8846,-2.8916,-2.8916,-2.8886,-2.8833,-2.8792,-2.8626,-2.851,-2.851,-2.851,-2.851,-2.851,-2.8426,-2.8378,-2.8378,-2.7885,-2.7546,-2.7546,-2.7289,-2.7311,-2.7848,-2.8089,-2.8802,-2.9971,-2.957,-2.9687,-3.0329,-2.9855,-2.9602,-2.9602,-2.9602,-2.9602,-1.7994,-1.8193,-1.8273,-1.8603,-1.8532,-1.8275,-1.7867,0.0,0.0,0.0,-1.5935,-1.5787,-1.6457,-1.7099,0.0,-1.7914,-1.8546,-1.9146,-1.9567,-2.0145,-2.0668,-2.1062,-2.2153,-2.2904,-2.2904,-2.3675,-2.4202,-2.4202,-2.4202,-2.4202,-2.4202,-2.4202,-2.4202,-2.4202,-2.4202,-2.4202,-2.4202,-2.4202,-2.4202,-2.4202,-2.4202,-2.4202,-2.4202,-2.4202,-2.4202,-2.4202,-2.4202,-2.4202,-2.4202,-2.4202,-2.4202,-2.4202,-2.4202,-2.4202,-2.4202,-2.4202,-2.4202,-2.4202,-2.4202,-2.4202,-2.4202,-2.4202,-2.4202,-2.4202,-2.4202,-2.4202,-2.4202,-2.4202,-2.4538,-2.502,-2.5548,-2.6071,-2.6819,-2.8341,-2.9095,-2.9544,-2.9827,-2.9665,-2.9481,-2.9481,-2.945,-2.9364,-2.9288,-2.9215,-2.9171,-2.9159,-2.8887,-2.8757,-2.8919,-2.8679,-2.851,-2.851,-2.851,-2.851,-2.851,-2.8282,-2.8138,-2.8138,-2.7858,-2.7775,-2.7863,-2.8201,-2.8642,-2.908,-2.9573,-3.0018,-3.04,-3.0518,-3.0586,-3.0586,-3.0235,-3.0048,-1.7706,-1.782,-1.7857,-1.8174,-1.7952,-1.7522,-1.6971,-1.6154,0.0,-1.5323,-1.4911,-1.49,-1.5894,-1.6551,-1.7144,0.0,-1.83,-1.8918,-1.9304,-2.003,-2.064,0.0,-2.2025,0.0,-2.2895,-2.3602,-2.411,-2.4192,-2.4202,-2.4202,-2.4202,-2.4202,-2.4202,-2.4202,-2.4202,-2.4202,-2.4202,-2.4202,-2.4202,-2.4202,-2.4202,-2.4202,-2.4202,-2.4202,-2.4202,-2.4202,-2.4202,-2.4202,-2.4202,-2.4202,-2.4202,-2.4202,-2.4202,-2.4202,-2.4202,-2.4202,-2.4202,-2.4202,-2.4202,-2.4202,-2.4202,-2.4202,-2.4202,-2.4202,-2.4202,-2.4202,-2.4202,-2.4202,-2.4202,-2.439,-2.5167,-2.5353,-2.5829,-2.7636,-2.9002,-2.9886,-2.9886,-3.0034,-3.0216,-3.0216,-3.0029,-2.9852,-2.9698,-2.9546,-2.95,-2.9476,-2.9117,-2.8922,-2.9169,-2.8754,-2.8471,-2.851,-2.851,-2.851,-2.851,-2.851,-2.851,-2.851,-2.851,-2.8318,-2.787,-2.8441,-2.8599,-2.8386,-2.9422,-3.0041,-3.0229,-3.074,-3.0989,-3.0976,-3.0623,-3.0452,-1.7312,-1.7278,-1.7145,-1.7722,-1.7552,-1.6963,-1.5893,0.0,-1.5177,-1.3965,-1.368,-1.3777,-1.4246,-1.5358,-1.6062,-1.5551,-1.7439,-1.8642,-1.7752,-1.9299,-2.0488,-2.0567,0.0,0.0,-2.2867,-2.3297,-2.3749,-2.4174,-2.4202,-2.4202,-2.4202,-2.4202,-2.4202,-2.4202,-2.4202,-2.4202,-2.4202,-2.4202,-2.4202,-2.4202,-2.4202,-2.4202,-2.4202,-2.4202,-2.4202,-2.4202,-2.4202,-2.4202,-2.4202,-2.4202,-2.4202,-2.4202,-2.4202,-2.4202,-2.4202,-2.4202,-2.4202,-2.4202,-2.4202,-2.4202,-2.4202,-2.4202,-2.4202,-2.4202,-2.4202,-2.4202,-2.4202,-2.4202,-2.4202,-2.4202,-2.4301,-2.435,-2.4587,-2.5684,-2.7447,-2.8817,-2.8817,-2.9566,-3.0216,-3.0216,-3.0181,-3.0147,-3.0147,-2.9912,-2.9741,-2.9741,-2.9129,-2.8704,-2.8922,-2.85,-2.8299,-2.8471,-2.851,-2.851,-2.851,-2.851,-2.851,-2.851,-2.851,-2.8486,-2.8438,-2.8478,-2.8863,-2.9515,-2.9139,-2.9321,-3.004,-2.9551,-2.9337,-2.9337,-3.0008,-3.0317,-1.6699,-1.6669,-1.6349,-1.706,-1.7009,-1.6488,-1.5544,0.0,-1.4158,-1.3593,-1.3098,-1.3107,-1.409,-1.4827,-1.5312,-1.5456,-1.6459,0.0,-1.6605,-1.806,-1.9258,-1.9528,-2.0969,-2.2181,-2.2849,-2.3261,-2.3712,-2.4165,-2.4202,-2.4202,-2.4202,-2.4202,-2.4202,-2.4202,-2.4202,-2.4202,-2.4202,-2.4202,-2.4202,-2.4202,-2.4202,-2.4202,-2.4202,-2.4202,-2.4202,-2.4202,-2.4202,-2.4202,-2.4202,-2.4202,-2.4202,-2.4202,-2.4202,-2.4202,-2.4202,-2.4202,-2.4202,-2.4202,-2.4202,-2.4202,-2.4202,-2.4202,-2.4202,-2.4202,-2.4202,-2.4202,-2.4202,-2.4202,-2.4202,-2.4202,-2.4202,-2.4637,-2.5216,-2.5596,-2.6771,-2.7814,-2.7814,-2.8574,-2.9279,-2.9279,-2.9795,-3.0216,-3.0216,-3.0089,-3.0097,-3.0275,-2.9747,-2.9273,-2.9211,-2.8757,-2.8361,-2.8158,-2.8351,-2.851,-2.851,-2.851,-2.851,-2.851,-2.851,-2.851,-2.851,-2.851,-2.8657,-2.8961,-2.9234,-2.9492,-2.982,-3.0075,-3.0179,-3.0166,-3.0128,-3.0113,-1.5557,-1.5549,-1.5213,-1.5878,-1.5782,-1.5328,0.0,0.0,-1.3098,-1.2835,-1.2402,-1.2396,-1.3471,-1.4055,-1.4529,-1.4871,-1.5482,-1.5846,-1.564,-1.6943,-1.8112,-1.8734,0.0,-2.1084,-2.2079,-2.2716,-2.3135,-2.3211,-2.3746,-2.3954,-2.3596,-2.3795,-2.4053,-2.4202,-2.4202,-2.4202,-2.4202,-2.4202,-2.4202,-2.4202,-2.4202,-2.4202,-2.4202,-2.4202,-2.4202,-2.4202,-2.4202,-2.4202,-2.4202,-2.4202,-2.4202,-2.4202,-2.4202,-2.4202,-2.4202,-2.4202,-2.4202,-2.4202,-2.4202,-2.4202,-2.4202,-2.4202,-2.4202,-2.4202,-2.4202,-2.4202,-2.4202,-2.4202,-2.4202,-2.4202,-2.4202,-2.4735,-2.5265,-2.5265,-2.6013,-2.6771,-2.6771,-2.7531,-2.8341,-2.862,-2.9279,-2.984,-3.017,-3.0216,-3.0261,-3.0442,-3.0059,-2.9651,-2.9539,-2.8918,-2.8421,-2.8139,-2.8246,-2.8311,-2.8311,-2.8311,-2.8351,-2.8431,-2.8431,-2.8431,-2.851,-2.851,-2.851,-2.851,-2.9067,-2.9328,-2.9367,-2.9922,-3.019,-3.0177,-3.0007,-3.0036,-1.3851,-1.3793,-1.3587,-1.3947,-1.3785,-1.3324,0.0,-1.2305,-1.2077,-1.1298,-1.1335,-1.1606,-1.1872,-1.2902,-1.3591,-1.3178,-1.4587,-1.5489,-1.4831,-1.603,-1.74,0.0,-1.8402,-1.8905,-2.0391,-2.1503,-2.1785,-2.0979,-2.2728,-2.3297,-2.2173,-2.2937,-2.3646,-2.4202,-2.4202,-2.4202,-2.4202,-2.4202,-2.4202,-2.4202,-2.4202,-2.4202,-2.4202,-2.4202,-2.4202,-2.4202,-2.4202,-2.4202,-2.4202,-2.4202,-2.4202,-2.4202,-2.4202,-2.4202,-2.4202,-2.4202,-2.4202,-2.4202,-2.4202,-2.4202,-2.4202,-2.4202,-2.4202,-2.4202,-2.4202,-2.4202,-2.4202,-2.4202,-2.4202,-2.4202,-2.4202,-2.4202,-2.4202,-2.4202,-2.4971,-2.5742,-2.5742,-2.6484,-2.7521,-2.8491,-2.8724,-2.9048,-3.0023,-3.0216,-3.0216,-3.0216,-2.9802,-2.9569,-2.9767,-2.8939,-2.8396,-2.858,-2.8175,-2.7933,-2.7933,-2.7933,-2.8002,-2.8179,-2.8219,-2.8299,-2.8471,-2.851,-2.851,-2.851,-2.851,-2.851,-2.851,-2.851,-2.851,-2.855,-2.9328,-3.0139,-1.3222,-1.3176,-1.2833,-1.3477,-1.3572,-1.328,-1.2482,-1.2305,-1.2077,-1.126,-1.1297,-1.1573,-1.1832,-1.2375,-1.2771,-1.2832,-1.3288,-1.3578,0.0,0.0,0.0,-1.6309,-1.7788,-1.8954,-1.9425,-2.0189,-2.0546,-2.0297,-2.0861,-2.1065,-2.0656,-2.0912,-2.1887,-2.3596,-2.3646,-2.3755,-2.3904,-2.3954,-2.4003,-2.4202,-2.4202,-2.4202,-2.4202,-2.4202,-2.4202,-2.4202,-2.4202,-2.4202,-2.4202,-2.4202,-2.4202,-2.4202,-2.4202,-2.4202,-2.4202,-2.4202,-2.4202,-2.4202,-2.4202,-2.4202,-2.4202,-2.4202,-2.4202,-2.4202,-2.4202,-2.4202,-2.4202,-2.4202,-2.4202,-2.4202,-2.4202,-2.4202,-2.4202,-2.4202,-2.444,-2.4686,-2.4686,-2.6003,-2.7284,-2.7615,-2.8795,-2.984,-3.017,-3.0216,-3.0216,-3.0216,-3.0089,-2.9916,-2.9616,-2.8982,-2.8472,-2.8221,-2.7736,-2.7557,-2.7893,-2.7893,-2.7921,-2.8002,-2.8002,-2.807,-2.8299,-2.8299,-2.8339,-2.851,-2.851,-2.851,-2.851,-2.851,-2.851,-2.851,-2.8776,-2.9289,0.0,-1.2218,-1.1966,-1.2469,-1.2579,0.0,-1.1966,-1.1855,-1.1706,-1.1186,-1.1375,-1.1688,-1.185,-1.2216,-1.2518,-1.2681,-1.2705,-1.2705,0.0,0.0,0.0,-1.485,-1.6704,-1.7913,-1.7838,-1.8615,-1.9023,-1.8783,-1.9413,-1.9672,-1.9265,-1.9524,-2.0349,-2.1751,-2.2417,-2.3038,-2.3646,-2.3655,-2.3746,-2.3904,-2.3904,-2.3954,-2.4053,-2.4053,-2.4102,-2.4202,-2.4202,-2.4202,0.0,-2.4202,-2.4152,-2.4053,-2.4152,-2.4152,-2.4053,-2.4152,-2.4202,-2.4202,-2.4202,-2.4202,-2.4202,-2.4202,-2.4202,-2.4202,-2.4202,-2.4202,-2.4202,-2.4202,-2.4202,-2.4202,-2.4202,-2.4202,-2.4202,-2.4202,-2.4202,-2.4202,-2.4202,-2.5197,-2.6196,-2.658,-2.7945,-2.9176,-2.9566,-2.9943,-3.0216,-3.0216,-3.0216,-3.0101,-2.9802,-2.9137,-2.8586,-2.8287,-2.7644,-2.7313,-2.7598,-2.7638,-2.7679,-2.7748,-2.7748,-2.7857,-2.8179,-2.8219,-2.8299,-2.851,-2.851,-2.851,-2.851,-2.851,-2.851,-2.851,-2.851,-2.8776,0.0,-1.1111,-1.1111,-1.1111,-1.1111,-1.1111,-1.1111,-1.1111,0.0,-1.1111,-1.1546,-1.188,-1.188,-1.2355,-1.2705,-1.2705,-1.2705,-1.2705,0.0,-1.2955,0.0,-1.4071,-1.53,-1.6029,-1.5852,-1.6782,-1.7228,-1.6679,-1.8328,-1.8909,-1.7877,-1.8551,-1.902,-1.9072,-2.0613,-2.1996,-2.3247,-2.3347,-2.3347,-2.3297,-2.3347,-2.3497,-2.3646,-2.3746,-2.3904,-2.4152,-2.4152,-2.4152,-2.4152,-2.4152,-2.4003,-2.3805,-2.4053,-2.4003,-2.3805,-2.4053,-2.4152,-2.4152,-2.4152,-2.4152,-2.4152,-2.4152,-2.4152,-2.4202,-2.4202,-2.4202,-2.4202,-2.4202,-2.4202,-2.4202,-2.4202,-2.4202,-2.4202,-2.4202,-2.4202,-2.4202,-2.4202,-2.4251,-2.4587,-2.5499,-2.6484,-2.7521,-2.8434,-2.9371,-3.0023,-3.008,-3.008,-3.0125,-3.017,-2.9332,-2.87,-2.87,-2.7816,-2.719,-2.719,-2.719,-2.726,-2.7482,-2.7482,-2.7684,-2.8139,-2.8179,-2.8259,-2.8471,-2.851,-2.851,-2.851,-2.851,-2.851,-2.851,-2.851,-2.851,-1.0776,0.0,-1.1111,-1.1111,-1.1111,-1.1111,0.0,-1.1111,-1.1111,-1.1111,0.0,-1.188,-1.188,-1.2355,-1.2705,-1.2705,-1.2705,-1.2705,-1.2705,-1.3105,0.0,-1.3631,-1.4506,-1.5029,-1.4998,-1.5573,-1.5927,-1.5793,-1.6398,-1.667,-1.6418,-1.6571,-1.7094,-1.7943,-1.8356,-1.9591,-2.1751,-2.2677,-2.2778,-2.2097,-2.2979,-2.2979,-2.2198,-2.3088,-2.3555,-2.3605,-2.3605,-2.3605,-2.3605,-2.3605,-2.3546,-2.3497,-2.3546,-2.3555,-2.3497,-2.3546,-2.3605,-2.3605,-2.3605,-2.3605,-2.3596,-2.3854,-2.3895,-2.3954,-2.4152,-2.4202,-2.4202,-2.4202,-2.4202,-2.4202,-2.4202,-2.4202,-2.4202,-2.4202,-2.4202,-2.4202,-2.4202,-2.4784,-2.5401,-2.5645,-2.6484,-2.7284,-2.7521,-2.7757,-2.819,-2.8956,-2.9048,-2.9325,-3.008,-2.9332,-2.87,-2.87,-2.7816,-2.719,-2.719,-2.719,-2.7231,-2.726,-2.726,-2.7383,-2.7644,-2.7869,-2.807,-2.8259,-2.8431,-2.851,-2.851,-2.851,-2.851,-2.851,-2.851,-2.851,-0.9617,-1.0464,-1.1074,-1.0999,-1.1037,-1.1074,-1.0962,0.0,0.0,0.0,0.0,0.0,0.0,-1.2355,-1.2705,-1.2705,-1.2705,-1.2747,0.0,0.0,-1.3562,-1.3682,-1.4183,-1.4576,-1.4702,-1.4974,-1.524,-1.5481,-1.5626,-1.5765,-1.5885,-1.5891,-1.6152,-1.6789,-1.7318,-1.8461,-2.0305,-2.0928,-2.103,-2.0562,-2.1183,-2.1226,-2.0759,-2.1379,-2.1743,-2.1895,-2.2409,-2.2619,-2.2669,-2.3188,-2.3347,-2.3247,-2.3347,-2.3297,-2.3247,-2.3347,-2.3397,-2.3397,-2.3397,-2.3397,-2.3397,-2.3555,-2.3596,-2.3646,-2.3805,-2.3904,-2.4053,-2.4152,-2.4202,-2.4202,-2.4202,-2.4202,-2.4202,-2.4202,-2.4202,-2.4202,-2.4202,-2.4637,-2.502,-2.502,-2.5829,-2.6484,-2.6484,-2.6904,-2.7379,-2.7908,-2.8002,-2.8301,-2.9104,-2.851,-2.8123,-2.8348,-2.769,-2.719,-2.719,-2.719,-2.719,-2.719,-2.719,-2.7301,-2.7482,-2.7655,-2.7829,-2.807,-2.8163,-2.8271,-2.8339,-2.8339,-2.8431,-2.851,-2.851,-2.851,-0.8196,-0.948,-1.0657,-1.0619,-1.085,-1.0999,-1.085,0.0,0.0,0.0,0.0,0.0,0.0,-1.2355,0.0,0.0,-1.2705,-1.2801,-1.3041,-1.335,-1.361,-1.3876,-1.4135,-1.4389,-1.463,-1.469,-1.4902,-1.5348,-1.5421,-1.5535,-1.5759,-1.5771,-1.5771,-1.5771,-1.6753,-1.7718,-1.8636,-1.8998,-1.9124,-1.8975,-1.9124,-1.9228,-1.9324,-1.9472,-1.9679,-1.993,-2.0912,-2.1328,-2.1379,-2.2367,-2.2627,-2.2485,-2.2837,-2.2887,-2.2736,-2.3147,-2.3297,-2.3288,-2.3235,-2.3173,-2.312,-2.312,-2.3214,-2.3258,-2.3317,-2.3502,-2.3795,-2.4053,-2.4152,-2.4202,-2.4202,-2.4202,-2.4202,-2.4202,-2.4202,-2.4202,-2.4202,-2.4202,-2.4202,-2.4202,-2.4883,-2.545,-2.545,-2.6157,-2.6809,-2.6952,-2.6952,-2.7165,-2.7729,-2.7298,-2.7141,-2.7547,-2.7092,-2.6839,-2.6962,-2.7015,-2.7056,-2.719,-2.719,-2.7301,-2.7482,-2.7522,-2.7615,-2.7881,-2.7893,-2.8002,-2.8219,-2.8219,-2.8299,-2.851,-2.851,-2.851,-0.7824,-0.8347,-0.8765,-0.9599,-1.0319,-1.085,-1.0812,0.0,0.0,0.0,0.0,0.0,0.0,-1.2355,-1.2705,-1.2705,-1.2705,-1.2801,-1.3041,-1.335,-1.361,-1.3876,-1.4135,-1.4316,-1.4358,-1.4576,-1.4751,-1.4829,-1.504,-1.5185,-1.5228,-1.5228,-1.5228,-1.5228,-1.56,-1.5918,-1.6075,-1.8164,-1.8767,-1.7838,-1.8767,-1.8767,-1.7943,-1.8864,-1.928,-1.9324,-1.9531,-1.9583,-1.9591,-1.979,-1.9797,-1.9893,-2.0877,-2.1242,-2.1344,-2.2333,-2.2695,-2.2652,-2.2333,-2.2005,-2.1729,-2.197,-2.2294,-2.2623,-2.2819,-2.3139,-2.3497,-2.3805,-2.4003,-2.4202,-2.4202,-2.4202,-2.4202,-2.4202,-2.4202,-2.4202,-2.4202,-2.4202,-2.4202,-2.4202,-2.4301,-2.444,-2.444,-2.4538,-2.4962,-2.5781,-2.5926,-2.6142,-2.6718,-2.634,-2.5905,-2.5674,-2.5188,-2.521,-2.5955,-2.5997,-2.6351,-2.7149,-2.719,-2.7301,-2.7482,-2.7522,-2.7615,-2.7881,-2.7893,-2.8002,-2.8219,-2.8219,-2.8299,-2.851,-2.851,-2.851,-0.6388,-0.6934,-0.7399,-0.7855,-0.8993,-1.0056,-1.04,-1.0625,0.0,0.0,0.0,0.0,0.0,0.0,-1.2662,-1.2577,-1.2619,-1.2812,-1.31,-1.3351,-1.3664,-1.4069,-1.422,-1.4298,-1.4298,-1.4413,-1.4552,-1.4702,-1.4829,-1.4956,-1.5101,-1.5107,-1.5107,-1.5107,-1.5228,-1.5288,-1.5288,-1.642,-1.6892,-1.6683,-1.7199,-1.7147,-1.6683,-1.7199,-1.7404,-1.7457,-1.8087,-1.8356,-1.8356,-1.8968,-1.9125,-1.9023,-1.9585,-1.9674,-1.9606,-2.0164,-2.0313,-2.0289,-2.013,-2.0265,-2.0611,-2.0707,-2.1275,-2.1873,-2.2018,-2.2434,-2.2897,-2.2996,-2.3493,-2.4003,-2.4152,-2.4202,-2.4202,-2.4202,-2.4202,-2.4202,-2.4202,-2.4202,-2.4202,-2.4202,-2.4202,-2.4202,-2.4202,-2.4202,-2.4267,-2.4474,-2.4485,-2.4632,-2.4975,-2.4842,-2.4719,-2.4797,-2.4612,-2.4659,-2.5073,-2.5084,-2.5684,-2.7097,-2.719,-2.7219,-2.733,-2.733,-2.7383,-2.7516,-2.7516,-2.7626,-2.7805,-2.7805,-2.7938,-2.8163,-2.8163,-2.8231,-0.5177,-0.5712,-0.6254,-0.6444,-0.7893,-0.9339,-0.9798,-1.0212,0.0,0.0,0.0,0.0,0.0,-1.2313,-1.2619,-1.2448,-1.2577,-1.2805,-1.3164,-1.3377,-1.3667,-1.4142,-1.425,-1.4298,-1.4202,-1.425,-1.4389,-1.4606,-1.4618,-1.4702,-1.4908,-1.4914,-1.4914,-1.4914,-1.498,-1.5016,-1.5016,-1.5077,-1.5312,-1.5704,-1.5704,-1.5704,-1.5704,-1.5704,-1.5704,-1.5757,-1.665,-1.7016,-1.7062,-1.7874,-1.8096,-1.7936,-1.8239,-1.8374,-1.8395,-1.8395,-1.8351,-1.8284,-1.8284,-1.8873,-1.963,-1.963,-2.0381,-2.1285,-2.1285,-2.1695,-2.22,-2.2249,-2.2863,-2.3588,-2.3976,-2.4102,-2.4102,-2.4202,-2.4202,-2.4202,-2.4202,-2.4202,-2.4202,-2.4202,-2.4202,-2.4174,-2.4073,-2.4055,-2.3868,-2.3416,-2.3352,-2.338,-2.3369,-2.3364,-2.3504,-2.3807,-2.3854,-2.393,-2.4145,-2.4573,-2.539,-2.6787,-2.7097,-2.719,-2.719,-2.719,-2.719,-2.719,-2.719,-2.7301,-2.7522,-2.7522,-2.7655,-2.7893,-2.7893,-2.8002,-0.495,-0.5057,-0.5285,-0.6051,-0.7621,-0.9036,-0.9074,-0.9836,0.0,-1.0513,0.0,0.0,0.0,-1.2224,-1.2619,-1.2448,-1.2577,-1.2805,-1.3164,-1.3377,-1.362,-1.3866,-1.416,-1.4208,-1.3931,-1.416,-1.4304,-1.4328,-1.4328,-1.4334,-1.4358,-1.4358,-1.4358,-1.4358,-1.4606,-1.4745,-1.4745,-1.4986,-1.5125,-1.5161,-1.5161,-1.5161,-1.5161,-1.5161,-1.5161,-1.5161,-1.5263,-1.5263,-1.5269,-1.5365,-1.5403,-1.5486,-1.652,-1.7541,-1.8395,-1.8395,-1.8218,-1.7927,-1.7927,-1.8337,-1.8867,-1.8867,-1.9805,-2.0917,-2.0917,-2.1165,-2.1504,-2.1783,-2.2166,-2.2707,-2.3606,-2.3854,-2.3895,-2.4152,-2.4202,-2.4202,-2.4202,-2.4202,-2.4202,-2.4202,-2.4202,-2.4082,-2.3657,-2.3535,-2.3407,-2.3004,-2.295,-2.2785,-2.2428,-2.241,-2.2262,-2.1956,-2.1909,-2.2246,-2.3139,-2.4755,-2.5746,-2.5872,-2.6704,-2.719,-2.719,-2.719,-2.719,-2.719,-2.719,-2.7301,-2.7522,-2.7522,-2.7655,-2.7893,-2.7893,-2.7933,-0.4972,-0.5018,-0.5054,-0.5362,-0.636,0.0,0.0,-0.8765,-0.942,-0.9533,-1.0307,0.0,-1.1719,-1.2076,-1.2203,-1.1995,-1.2118,-1.2331,-1.2506,-1.2824,-1.3141,-1.3449,-1.3676,-1.3781,-1.3642,-1.3732,-1.3871,-1.4022,-1.407,-1.4112,-1.4298,-1.4298,-1.4298,-1.4298,-1.4401,-1.4455,-1.4455,-1.4552,-1.4606,-1.4606,-1.4944,-1.5107,-1.5107,-1.5107,-1.5107,-1.5107,-1.5107,-1.5107,-1.5107,-1.5107,-1.501,-1.4897,-1.5151,-1.5509,-1.5842,-1.5842,-1.5776,-1.5636,-1.5636,-1.6225,-1.6922,-1.6922,-1.7712,-1.8761,-1.942,-1.9868,-2.0297,-2.1024,-2.1488,-2.2013,-2.2944,-2.3198,-2.3247,-2.3474,-2.3332,-2.3247,-2.3352,-2.3409,-2.3409,-2.3409,-2.3409,-2.3354,-2.3151,-2.3133,-2.2986,-2.2574,-2.2519,-2.2373,-2.1961,-2.1916,-2.1861,-2.1705,-2.1696,-2.182,-2.2201,-2.3391,-2.4125,-2.4125,-2.606,-2.719,-2.719,-2.719,-2.719,-2.719,-2.719,-2.7219,-2.7301,-2.7301,-2.7383,-2.7476,-2.7476,-2.7545,-0.4982,-0.5018,-0.5018,-0.5018,0.0,0.0,-0.6584,-0.7544,-0.8369,-0.8505,-0.9682,-1.0878,-1.1643,-1.1901,-1.1914,-1.1742,-1.1871,-1.2042,-1.2071,-1.2423,-1.2786,-1.3023,-1.3263,-1.34,-1.3383,-1.3443,-1.3588,-1.3738,-1.3786,-1.3877,-1.416,-1.4106,-1.4112,-1.4298,-1.4202,-1.4202,-1.4298,-1.4298,-1.4298,-1.4298,-1.4672,-1.4853,-1.4853,-1.4853,-1.4853,-1.4853,-1.4853,-1.4853,-1.4853,-1.4853,-1.4745,-1.4564,-1.437,-1.4298,-1.4298,-1.4298,-1.4298,-1.4298,-1.4298,-1.4956,-1.5798,-1.5798,-1.6499,-1.7436,-1.8133,-1.8536,-1.8879,-1.9591,-2.004,-2.0512,-2.1462,-2.2109,-2.2536,-2.2768,-2.2658,-2.2508,-2.2659,-2.2659,-2.2659,-2.2659,-2.2762,-2.2764,-2.2636,-2.2665,-2.2574,-2.2153,-2.2089,-2.1998,-2.1723,-2.1696,-2.1696,-2.1696,-2.1696,-2.1696,-2.1696,-2.2545,-2.3096,-2.3096,-2.5115,-2.6456,-2.6745,-2.6745,-2.688,-2.719,-2.719,-2.719,-2.719,-2.719,-2.719,-2.719,-2.719,-2.726,-0.4947,-0.5018,-0.5018,0.0,0.0,0.0,-0.5018,-0.6279,-0.7512,-0.7616,-0.8837,-1.0166,-1.1149,-1.1697,-1.1914,-1.1742,-1.1871,-1.2042,-1.2065,-1.2281,-1.2507,-1.2778,-1.3016,-1.3153,-1.3119,-1.334,-1.3485,-1.3485,-1.3485,-1.363,-1.3883,-1.3636,-1.3727,-1.4298,-1.4022,-1.4022,-1.4298,-1.4298,-1.4298,-1.4298,-1.4298,-1.4298,-1.4298,-1.4298,-1.4298,-1.4298,-1.4298,-1.4298,-1.4298,-1.4298,-1.4298,-1.4298,-1.4298,-1.4298,-1.4298,-1.4298,-1.4298,-1.4298,-1.4298,-1.4956,-1.5798,-1.5798,-1.6452,-1.7296,-1.7296,-1.7296,-1.7289,-1.7296,-1.7578,-1.813,-1.9138,-2.0537,-2.1826,-2.212,-2.2215,-2.2206,-2.2206,-2.2206,-2.2206,-2.2206,-2.2395,-2.2467,-2.2078,-2.2144,-2.2135,-2.1751,-2.1696,-2.1696,-2.1696,-2.1696,-2.1696,-2.1696,-2.1696,-2.1696,-2.1696,-2.2545,-2.3096,-2.3096,-2.3973,-2.4872,-2.5735,-2.5788,-2.6216,-2.7149,-2.719,-2.719,-2.719,-2.719,-2.719,-2.719,-2.719,-2.719,-0.5007,-0.5018,0.0,-0.5018,0.0,0.0,0.0,-0.5822,0.0,0.0,-0.9307,-1.001,-1.1123,-1.1429,-1.1483,-1.144,-1.1478,-1.1505,-1.1532,-1.1728,-1.1931,-1.2033,-1.2237,-1.2414,-1.2393,-1.2491,-1.2584,-1.2724,-1.2724,-1.2942,-1.3401,-1.3313,-1.3446,-1.3721,-1.3829,-1.3931,-1.4022,-1.4208,-1.4298,-1.4298,-1.4298,-1.4298,-1.4298,-1.4298,-1.4298,-1.4298,-1.4298,-1.4298,-1.4298,-1.4298,-1.4298,-1.4298,-1.4298,-1.4298,-1.4298,-1.4298,-1.4298,-1.4298,-1.4298,-1.4484,-1.4717,-1.4717,-1.4956,-1.533,-1.6028,-1.6264,-1.6405,-1.7109,-1.7409,-1.7537,-1.7866,-1.8262,-1.9106,-2.1036,-2.1325,-2.1169,-2.1343,-2.1343,-2.1343,-2.1343,-2.1434,-2.1444,-2.1328,-2.1355,-2.141,-2.1491,-2.1482,-2.1526,-2.1696,-2.1696,-2.1696,-2.1696,-2.1696,-2.1696,-2.1696,-2.1954,-2.2122,-2.2122,-2.2378,-2.3246,-2.4829,-2.4872,-2.4999,-2.5306,-2.5306,-2.56,-2.6216,-2.6216,-2.6569,-2.719,-2.719,-2.719,-0.5018,-0.5018,0.0,-0.5018,-0.5018,-0.5029,-0.5072,0.0,0.0,0.0,-0.8839,-0.9486,-1.0534,-1.1041,-1.1305,-1.1305,-1.1305,-1.1305,-1.1305,-1.1429,-1.1596,-1.1688,-1.1822,-1.1991,-1.2083,-1.2094,-1.214,-1.2272,-1.2272,-1.2476,-1.2852,-1.2817,-1.289,-1.3231,-1.3284,-1.3384,-1.3478,-1.3614,-1.3702,-1.3702,-1.3702,-1.3702,-1.3708,-1.4106,-1.4298,-1.4298,-1.4298,-1.4298,-1.4298,-1.4298,-1.4298,-1.4298,-1.4298,-1.4298,-1.4298,-1.4298,-1.4298,-1.4298,-1.4298,-1.4298,-1.4298,-1.4298,-1.4298,-1.4388,-1.4997,-1.5188,-1.533,-1.5934,-1.6123,-1.6217,-1.6593,-1.6687,-1.7293,-1.9671,-2.0071,-2.0093,-2.0591,-2.0736,-2.0736,-2.0736,-2.0826,-2.0871,-2.0871,-2.0952,-2.1042,-2.1203,-2.1248,-2.1284,-2.1419,-2.141,-2.141,-2.141,-2.1517,-2.1562,-2.1562,-2.1651,-2.1696,-2.1696,-2.1696,-2.2211,-2.3333,-2.3757,-2.4102,-2.4498,-2.4498,-2.4744,-2.5284,-2.5284,-2.5589,-2.6124,-2.6124,-2.6332,-0.4979,-0.5018,0.0,-0.5018,-0.5018,0.0,-0.5162,-0.5322,-0.5694,-0.68,-0.7726,-0.8675,-0.9728,-1.0603,-1.1219,-1.1305,-1.1305,-1.1305,-1.1305,-1.1305,-1.1386,-1.1639,-1.1666,-1.1752,-1.2008,-1.2029,-1.2029,-1.2029,-1.2029,-1.2131,-1.233,-1.2153,-1.2255,-1.2734,-1.2506,-1.2506,-1.278,-1.278,-1.278,-1.278,-1.278,-1.278,-1.2843,-1.3773,-1.4178,-1.4178,-1.4202,-1.4214,-1.4214,-1.4238,-1.425,-1.425,-1.425,-1.425,-1.425,-1.425,-1.425,-1.425,-1.425,-1.425,-1.425,-1.4298,-1.4298,-1.4298,-1.4298,-1.4298,-1.4298,-1.4298,-1.4298,-1.4532,-1.5425,-1.5656,-1.617,-1.8087,-1.8603,-1.8926,-1.982,-2.0102,-2.0147,-2.0147,-2.0428,-2.0654,-2.0654,-2.0826,-2.0952,-2.0952,-2.0997,-2.0997,-2.0997,-2.0997,-2.0997,-2.0997,-2.1203,-2.1347,-2.1347,-2.1562,-2.1651,-2.1651,-2.1696,-2.1696,-2.1696,-2.2501,-2.3357,-2.4231,-2.4231,-2.4284,-2.436,-2.436,-2.4413,-2.4498,-2.4498,-2.4914,-0.4937,-0.5018,0.0,0.0,-0.5018,-0.5048,-0.5162,-0.5322,-0.5694,-0.68,-0.7208,-0.7929,-0.9598,-1.0077,-1.0429,-1.1176,-1.1305,-1.1305,-1.1305,-1.1305,-1.1327,-1.1375,-1.1386,-1.1402,-1.145,-1.1455,-1.1455,-1.1455,-1.1455,-1.158,-1.1852,-1.1819,-1.1945,-1.2226,-1.2369,-1.2409,-1.2506,-1.2689,-1.278,-1.278,-1.278,-1.278,-1.2831,-1.3032,-1.3124,-1.3136,-1.3333,-1.342,-1.3437,-1.3598,-1.3684,-1.3684,-1.3684,-1.3684,-1.3684,-1.3684,-1.3684,-1.3684,-1.3925,-1.3979,-1.4022,-1.425,-1.4298,-1.4298,-1.4298,-1.4298,-1.4298,-1.4298,-1.4298,-1.4346,-1.458,-1.4627,-1.4908,-1.617,-1.7063,-1.7669,-1.7902,-1.8557,-1.9117,-1.9117,-1.982,-2.0382,-2.0382,-2.0419,-2.051,-2.0736,-2.0916,-2.0997,-2.0997,-2.0997,-2.0997,-2.0997,-2.1042,-2.1096,-2.1096,-2.1338,-2.1482,-2.1482,-2.1607,-2.1696,-2.1696,-2.1909,-2.2122,-2.2299,-2.2299,-2.2677,-2.34,-2.34,-2.379,-2.4498,-2.4498,-2.4616,-0.4818,0.0,0.0,-0.5018,0.0,-0.5048,-0.5162,-0.5322,-0.5572,-0.6163,-0.6733,-0.7404,-0.8368,-0.8938,-0.955,-1.0472,-1.0646,-1.0781,-1.1219,-1.1305,-1.1305,-1.1305,-1.1305,-1.1305,-1.1305,-1.1305,-1.1305,-1.1305,-1.1305,-1.1359,-1.1482,-1.1488,-1.1591,-1.1709,-1.1804,-1.1893,-1.1893,-1.2026,-1.2071,-1.2071,-1.2071,-1.2071,-1.2076,-1.2581,-1.278,-1.2786,-1.2963,-1.302,-1.3032,-1.3122,-1.3174,-1.3174,-1.3174,-1.3174,-1.3174,-1.3174,-1.3174,-1.3191,-1.3459,-1.3547,-1.3618,-1.3974,-1.4118,-1.4112,-1.425,-1.4298,-1.4298,-1.4298,-1.4298,-1.4298,-1.4298,-1.4298,-1.4436,-1.4956,-1.5846,-1.6727,-1.7203,-1.7716,-1.8226,-1.8696,-1.9209,-1.9729,-2.0201,-2.0292,-2.0337,-2.0473,-2.06,-2.0645,-2.0645,-2.0645,-2.0645,-2.0645,-2.0781,-2.0871,-2.0871,-2.1051,-2.1195,-2.1195,-2.132,-2.1365,-2.1365,-2.1472,-2.1607,-2.1696,-2.1696,-2.1954,-2.2413,-2.2413,-2.2677,-2.3159,-2.3159,-2.342,-0.4582,0.0,-0.4937,-0.4979,-0.5018,0.0,-0.5135,-0.5252,-0.5366,-0.5424,-0.6179,-0.6922,-0.7051,-0.7753,-0.8588,-0.9506,-0.9637,-0.999,-1.0911,-1.1046,-1.1132,-1.1262,-1.1305,-1.1305,-1.1305,-1.1305,-1.1305,-1.1305,-1.1305,-1.1305,-1.1305,-1.1305,-1.1305,-1.1305,-1.1305,-1.1305,-1.1305,-1.1305,-1.1305,-1.1305,-1.1305,-1.1305,-1.1321,-1.2154,-1.2564,-1.2519,-1.2609,-1.2626,-1.2632,-1.2672,-1.2689,-1.2689,-1.2689,-1.2689,-1.2689,-1.2689,-1.2689,-1.2717,-1.2967,-1.3041,-1.3122,-1.3577,-1.3701,-1.3754,-1.4028,-1.4136,-1.4142,-1.4142,-1.4154,-1.4154,-1.4154,-1.4154,-1.4154,-1.4202,-1.486,-1.5704,-1.6593,-1.6922,-1.7296,-1.8133,-1.8419,-1.8796,-1.9629,-1.992,-2.0056,-2.0056,-2.0192,-2.0292,-2.0292,-2.0292,-2.0292,-2.0292,-2.0518,-2.0654,-2.0654,-2.0826,-2.0952,-2.0952,-2.0997,-2.0997,-2.0997,-2.1195,-2.1428,-2.1651,-2.1696,-2.1696,-2.1696,-2.1696,-2.1696,-2.1696,-2.1696,-2.2122,0.0,0.0,-0.4779,0.0,-0.5018,-0.5021,0.0,0.0,-0.5216,-0.523,-0.5584,-0.613,-0.6962,-0.7183,-0.7577,-0.8544,-0.8675,-0.9026,-0.9946,-1.0077,-1.0386,-1.1219,-1.1305,-1.1305,-1.1305,-1.1305,-1.1305,-1.1305,-1.1305,-1.1305,-1.1305,-1.1305,-1.1305,-1.1305,-1.1305,-1.1305,-1.1305,-1.1305,-1.1305,-1.1305,-1.1305,-1.1305,-1.1311,-1.1456,-1.1489,-1.15,-1.1744,-1.1836,-1.1852,-1.2104,-1.2186,-1.2186,-1.2186,-1.2186,-1.2186,-1.2186,-1.2186,-1.2237,-1.2448,-1.2505,-1.2556,-1.2871,-1.2929,-1.3015,-1.328,-1.3344,-1.339,-1.3573,-1.3588,-1.3588,-1.3588,-1.3588,-1.3684,-1.3883,-1.407,-1.4256,-1.4627,-1.5378,-1.6028,-1.617,-1.6922,-1.7529,-1.7669,-1.8419,-1.898,-1.898,-1.9729,-2.0292,-2.0292,-2.0292,-2.0292,-2.0292,-2.0337,-2.0337,-2.0337,-2.0609,-2.0736,-2.0736,-2.0907,-2.0997,-2.0997,-2.1042,-2.1195,-2.1437,-2.1607,-2.1696,-2.1696,-2.1696,-2.1696,-2.1696,-2.1696,-2.1776,-0.4109,-0.4462,-0.4543,0.0,-0.4659,-0.4659,-0.4659,-0.4867,-0.5031,-0.5031,-0.5288,-0.568,-0.6135,-0.6254,-0.6612,-0.7577,-0.7709,-0.8061,-0.8982,-0.9113,-0.9288,-0.9685,-1.0212,-1.0516,-1.0516,-1.1003,-1.1305,-1.1305,-1.1305,-1.1305,-1.1305,-1.1305,-1.1305,-1.1305,-1.1305,-1.1305,-1.1305,-1.1305,-1.1305,-1.1305,-1.1305,-1.1305,-1.1305,-1.1305,-1.1305,-1.1316,-1.1413,-1.1461,-1.1472,-1.1612,-1.1661,-1.1661,-1.1661,-1.1661,-1.1661,-1.1661,-1.1661,-1.1677,-1.1941,-1.2029,-1.2051,-1.2461,-1.2597,-1.262,-1.2911,-1.2992,-1.3043,-1.3254,-1.3322,-1.3357,-1.3451,-1.3491,-1.3539,-1.3636,-1.369,-1.3684,-1.3823,-1.4436,-1.514,-1.5704,-1.6593,-1.7296,-1.7296,-1.7669,-1.7948,-1.7948,-1.8326,-1.8603,-1.8603,-1.8603,-1.8842,-1.9401,-1.9446,-1.9683,-2.0246,-2.0428,-2.0473,-2.0473,-2.0555,-2.06,-2.06,-2.0736,-2.088,-2.1024,-2.1338,-2.1616,-2.1696,-2.1696,-2.1696,-2.1696,-2.1696,-2.1696,0.0,0.0,-0.407,-0.4343,-0.4384,-0.4384,0.0,-0.4604,-0.4786,-0.4786,-0.5037,-0.5277,-0.5312,-0.5428,-0.5824,-0.6561,-0.6609,-0.6915,-0.7834,-0.7965,-0.8097,-0.8408,-0.9021,-0.9506,-0.955,-1.0164,-1.0694,-1.0911,-1.0954,-1.1041,-1.1305,-1.1305,-1.1305,-1.1305,-1.1305,-1.1305,-1.1305,-1.1046,-1.0954,-1.0954,-1.0954,-1.0954,-1.0954,-1.1176,-1.1305,-1.1305,-1.1305,-1.1305,-1.1305,-1.1305,-1.1305,-1.1305,-1.1305,-1.1305,-1.1305,-1.1305,-1.1305,-1.1332,-1.1553,-1.1612,-1.1639,-1.1991,-1.2141,-1.2147,-1.2439,-1.2507,-1.2603,-1.2846,-1.292,-1.2959,-1.311,-1.3155,-1.3155,-1.3202,-1.3253,-1.3369,-1.3576,-1.3925,-1.4442,-1.5283,-1.6028,-1.6546,-1.6546,-1.6734,-1.6922,-1.6922,-1.7156,-1.7296,-1.7296,-1.7296,-1.7576,-1.8319,-1.8419,-1.8742,-1.9492,-1.9538,-1.9637,-1.9911,-1.9911,-2.0011,-2.0292,-2.0473,-2.0654,-2.0699,-2.1024,-2.1338,-2.1508,-2.1607,-2.1607,-2.1607,-2.1696,-2.1696,0.0,-0.2895,0.0,-0.4148,-0.4384,-0.4384,0.0,-0.4428,-0.4431,-0.4431,-0.4679,-0.4874,-0.4775,-0.5007,-0.5287,-0.5442,-0.5277,-0.545,-0.6372,-0.6502,-0.6943,-0.8089,-0.8269,-0.8356,-0.854,-0.8627,-0.9026,-0.9903,-0.999,-1.0342,-1.1262,-1.1305,-1.1305,-1.1305,-1.1305,-1.1305,-1.1305,-1.0429,-0.999,-0.999,-0.999,-0.999,-0.999,-1.0868,-1.1305,-1.1305,-1.1305,-1.1305,-1.1305,-1.1305,-1.1305,-1.1305,-1.1305,-1.1305,-1.1305,-1.1305,-1.1305,-1.1311,-1.1321,-1.1327,-1.1327,-1.1343,-1.1343,-1.1429,-1.1694,-1.1759,-1.1813,-1.2091,-1.2156,-1.2162,-1.2173,-1.2178,-1.2218,-1.2402,-1.2636,-1.3023,-1.3734,-1.3883,-1.4027,-1.4298,-1.4436,-1.4436,-1.4436,-1.5235,-1.5893,-1.5893,-1.6687,-1.7296,-1.7296,-1.7296,-1.7343,-1.739,-1.739,-1.739,-1.7436,-1.7483,-1.7855,-1.8834,-1.8888,-1.9309,-2.0246,-2.0292,-2.0428,-2.0699,-2.0699,-2.0826,-2.1042,-2.1293,-2.1446,-2.1446,-2.1607,-2.1696,0.0,0.0,0.0,-0.2938,-0.3175,-0.3331,-0.3878,-0.4114,-0.4194,-0.4194,-0.4418,-0.4616,-0.467,-0.4957,-0.5193,-0.5127,-0.5055,-0.5097,-0.5447,-0.5492,-0.5669,-0.6113,-0.6681,-0.7075,-0.7166,-0.7694,-0.8265,-0.8755,-0.8798,-0.9279,-1.0337,-1.0386,-1.0689,-1.1262,-1.1305,-1.1305,-1.1305,-1.0954,-1.0781,-1.0781,-1.0781,-1.0781,-1.0824,-1.1132,-1.1305,-1.1305,-1.1305,-1.1305,-1.1305,-1.1305,-1.1305,-1.1305,-1.1305,-1.1305,-1.1305,-1.1305,-1.1305,-1.1305,-1.1305,-1.1305,-1.1305,-1.1305,-1.1305,-1.1321,-1.1407,-1.1434,-1.1482,-1.1758,-1.1822,-1.186,-1.2056,-1.2094,-1.214,-1.2186,-1.2376,-1.2678,-1.3098,-1.3431,-1.3738,-1.3973,-1.4022,-1.4118,-1.425,-1.458,-1.486,-1.486,-1.514,-1.5378,-1.5378,-1.5378,-1.5609,-1.6264,-1.6358,-1.6593,-1.725,-1.7296,-1.7436,-1.7809,-1.7855,-1.7994,-1.8373,-1.8365,-1.8419,-1.8503,-1.8503,-1.9338,-2.0997,-2.1096,-2.1141,-2.1141,-2.123,-2.1329,-0.0627,0.0,0.0,0.0,-0.2314,-0.2668,-0.3214,-0.3686,-0.3999,-0.3999,-0.4153,-0.4323,-0.4413,-0.469,-0.4892,-0.49,-0.4832,-0.4788,-0.4788,-0.4788,-0.4788,-0.4877,-0.545,-0.5847,-0.5933,-0.6502,-0.7119,-0.7698,-0.7742,-0.8225,-0.9375,-0.9419,-0.9728,-1.0342,-1.0342,-1.0342,-1.0342,-1.0033,-0.9903,-0.9903,-0.9903,-0.9903,-0.9903,-1.0207,-1.0342,-1.0342,-1.0342,-1.0733,-1.1305,-1.1305,-1.1305,-1.1305,-1.1305,-1.1305,-1.1305,-1.1305,-1.1305,-1.1305,-1.1305,-1.1305,-1.1305,-1.1305,-1.1305,-1.1305,-1.1305,-1.1305,-1.1337,-1.1542,-1.1585,-1.1618,-1.1774,-1.1811,-1.1833,-1.1954,-1.2054,-1.2267,-1.257,-1.3028,-1.3443,-1.369,-1.3786,-1.3835,-1.4016,-1.401,-1.4058,-1.416,-1.416,-1.4208,-1.4298,-1.4298,-1.458,-1.5235,-1.5283,-1.5561,-1.6217,-1.6311,-1.6452,-1.6781,-1.6781,-1.6969,-1.7296,-1.7296,-1.7296,-1.7296,-1.7296,-1.8126,-1.9741,-1.9832,-1.9877,-1.9877,-1.9977,-2.0266,0.0,0.0,0.0,0.0,-0.1843,-0.2431,-0.247,-0.3136,-0.3724,-0.3763,-0.3921,-0.4029,-0.3923,-0.4134,-0.4382,-0.4621,-0.4476,-0.43,-0.43,-0.43,-0.4389,-0.4661,-0.4705,-0.4748,-0.4966,-0.4964,-0.5453,-0.6647,-0.6735,-0.7217,-0.8364,-0.8452,-0.85,-0.85,-0.85,-0.85,-0.85,-0.7577,-0.7139,-0.7139,-0.7139,-0.7139,-0.7139,-0.8061,-0.85,-0.85,-0.85,-0.9506,-1.1219,-1.1219,-1.1267,-1.1305,-1.1305,-1.1305,-1.1305,-1.1305,-1.1305,-1.1305,-1.1305,-1.1305,-1.1305,-1.1305,-1.1305,-1.1305,-1.1305,-1.1305,-1.1305,-1.1305,-1.1305,-1.1305,-1.1305,-1.1305,-1.1364,-1.1634,-1.1693,-1.1828,-1.2301,-1.273,-1.3141,-1.3443,-1.3491,-1.3491,-1.3491,-1.3491,-1.3593,-1.3835,-1.3883,-1.3979,-1.425,-1.4298,-1.4298,-1.4298,-1.4298,-1.4298,-1.4298,-1.4298,-1.4717,-1.5704,-1.5751,-1.617,-1.7149,-1.7203,-1.7203,-1.7203,-1.7203,-1.7203,-1.7203,-1.7515,-1.7701,-1.7701,-1.7894,-1.8503,0.1021,0.0,0.0,0.0,0.0,0.0,-0.1489,-0.1803,-0.2155,-0.2744,-0.2902,-0.312,-0.3802,-0.3958,-0.4055,-0.4176,-0.426,-0.43,-0.43,-0.43,-0.4344,-0.4389,-0.4389,-0.4433,-0.4476,-0.4476,-0.4699,-0.5235,-0.528,-0.5764,-0.6902,-0.783,-0.836,-0.85,-0.85,-0.85,-0.85,-0.8237,-0.8057,-0.7878,-0.7878,-0.7786,-0.7603,-0.7866,-0.7998,-0.7998,-0.7998,-0.8305,-0.8825,-0.985,-1.0694,-1.1305,-1.1305,-1.1305,-1.1305,-1.1305,-1.1305,-1.1305,-1.1305,-1.1305,-1.1305,-1.1305,-1.1305,-1.1305,-1.1305,-1.1305,-1.1305,-1.1305,-1.1305,-1.1305,-1.1305,-1.1305,-1.1327,-1.1391,-1.158,-1.1785,-1.2127,-1.2386,-1.2703,-1.3113,-1.3195,-1.3249,-1.3491,-1.3491,-1.3539,-1.3593,-1.3588,-1.3684,-1.3979,-1.4022,-1.407,-1.4298,-1.4298,-1.4298,-1.4298,-1.4298,-1.4436,-1.4717,-1.4717,-1.486,-1.514,-1.514,-1.514,-1.514,-1.514,-1.514,-1.514,-1.6687,-1.7429,-1.7429,-1.7662,-1.7933,0.0,0.0,0.0,0.0667,0.0,0.0,-0.1097,-0.1568,-0.2038,-0.2862,-0.3059,-0.3229,-0.3752,-0.3873,-0.3918,-0.3971,-0.4097,-0.4202,-0.424,-0.4277,-0.43,-0.43,-0.43,-0.43,-0.43,-0.43,-0.4389,-0.4661,-0.4705,-0.5013,-0.5755,-0.6464,-0.6953,-0.718,-0.7224,-0.7268,-0.7316,-0.7316,-0.7268,-0.7177,-0.7085,-0.6949,-0.6814,-0.6678,-0.6634,-0.6634,-0.6634,-0.6851,-0.7291,-0.8089,-0.9013,-0.9845,-0.9845,-0.9845,-0.9845,-0.9845,-0.9845,-0.9845,-0.998,-1.0028,-1.0028,-1.012,-1.0386,-1.0738,-1.0738,-1.1003,-1.1305,-1.1305,-1.1305,-1.1305,-1.1305,-1.1305,-1.1305,-1.1305,-1.1413,-1.1618,-1.19,-1.2091,-1.2408,-1.2887,-1.2953,-1.3001,-1.3201,-1.3201,-1.3249,-1.3298,-1.3346,-1.3443,-1.369,-1.3738,-1.3781,-1.3968,-1.3968,-1.3968,-1.3968,-1.4064,-1.4112,-1.4112,-1.425,-1.4298,-1.4298,-1.4298,-1.4298,-1.4298,-1.4298,-1.4298,-1.4298,-1.5466,-1.6028,-1.6075,-1.6633,-1.6908,0.0,0.0,0.0,0.1335,0.0746,0.0,-0.0823,-0.1568,-0.2313,-0.3212,-0.337,-0.3409,-0.3487,-0.3629,-0.3764,-0.3764,-0.3878,-0.4053,-0.4144,-0.4222,-0.4269,-0.4269,-0.4269,-0.4269,-0.4269,-0.4269,-0.436,-0.4583,-0.4628,-0.4714,-0.4931,-0.4931,-0.5066,-0.5333,-0.5333,-0.5424,-0.5604,-0.5604,-0.5559,-0.5559,-0.5393,-0.5309,-0.5265,-0.5006,-0.4921,-0.4921,-0.4921,-0.5406,-0.6151,-0.6151,-0.6807,-0.7815,-0.7815,-0.7815,-0.7815,-0.7815,-0.7815,-0.7815,-0.8086,-0.8177,-0.8177,-0.836,-0.8978,-0.9676,-0.9676,-1.025,-1.0954,-1.0997,-1.1003,-1.0997,-1.1132,-1.1132,-1.1176,-1.1267,-1.1305,-1.137,-1.165,-1.1927,-1.2229,-1.2683,-1.2797,-1.2813,-1.2813,-1.2813,-1.2861,-1.305,-1.305,-1.3152,-1.3443,-1.3443,-1.3491,-1.3491,-1.3491,-1.3491,-1.3491,-1.3738,-1.3883,-1.3883,-1.416,-1.4298,-1.4298,-1.4298,-1.4298,-1.4298,-1.4298,-1.4298,-1.4298,-1.4298,-1.4298,-1.4346,-1.5235,-1.5609,0.1807,0.1768,0.1729,0.1572,0.1414,0.0,0.0864,0.0667,0.0314,-0.0548,-0.0744,-0.094,-0.1645,-0.2321,-0.2764,-0.2764,-0.3423,-0.3959,-0.4006,-0.4035,-0.4045,-0.4045,-0.4045,-0.4045,-0.4045,-0.4045,-0.4087,-0.413,-0.413,-0.4255,-0.4504,-0.4504,-0.4634,-0.4848,-0.4848,-0.485,-0.4892,-0.4892,-0.4805,-0.4636,-0.4674,-0.4585,-0.4417,-0.4446,-0.4431,-0.4431,-0.4431,-0.452,-0.4696,-0.4696,-0.593,-0.7815,-0.7815,-0.7815,-0.7815,-0.7815,-0.7815,-0.7815,-0.7859,-0.7859,-0.7903,-0.7906,-0.8082,-0.8213,-0.8213,-0.848,-0.8838,-0.9021,-0.9026,-0.92,-0.999,-1.0164,-1.0342,-1.1132,-1.1305,-1.137,-1.165,-1.1927,-1.2181,-1.2425,-1.2635,-1.2813,-1.2813,-1.2813,-1.2813,-1.2861,-1.2861,-1.2958,-1.3147,-1.3195,-1.3249,-1.3491,-1.3491,-1.3491,-1.3491,-1.3738,-1.3883,-1.3883,-1.416,-1.4298,-1.4298,-1.4298,-1.4298,-1.4298,-1.4298,-1.4298,-1.4298,-1.4298,-1.4298,-1.4298,-1.4484,-1.458,0.1925,0.1887,0.1887,0.1768,0.1768,0.0,0.0,0.0863,0.0549,-0.0274,-0.0548,-0.0784,-0.1214,-0.1646,-0.1921,-0.1921,-0.2613,-0.3207,-0.3245,-0.3688,-0.3994,-0.3994,-0.3994,-0.3994,-0.3994,-0.3994,-0.3994,-0.3994,-0.3994,-0.4078,-0.4199,-0.4199,-0.4325,-0.4534,-0.4534,-0.4617,-0.4703,-0.4703,-0.4659,-0.4534,-0.45,-0.4397,-0.4316,-0.4189,-0.4193,-0.4236,-0.4236,-0.4261,-0.43,-0.43,-0.5006,-0.606,-0.606,-0.606,-0.606,-0.606,-0.606,-0.606,-0.6195,-0.6242,-0.6284,-0.6372,-0.6719,-0.7115,-0.7115,-0.7511,-0.8042,-0.8133,-0.8133,-0.8265,-0.8746,-0.8969,-0.9279,-1.0246,-1.0511,-1.0768,-1.1368,-1.1709,-1.1991,-1.2183,-1.2425,-1.2624,-1.2791,-1.2813,-1.2813,-1.2813,-1.2813,-1.2861,-1.2953,-1.2953,-1.3007,-1.3152,-1.3152,-1.3152,-1.3152,-1.3491,-1.369,-1.369,-1.4064,-1.425,-1.4118,-1.4256,-1.4298,-1.4298,-1.4298,-1.4298,-1.4298,-1.4298,-1.4298,-1.4298,-1.4298,-1.4298,0.2043,0.2004,0.2004,0.1964,0.1964,0.1767,0.0,0.0,0.0,-0.0235,-0.0549,-0.0744,-0.0744,-0.0901,-0.1056,-0.1051,-0.172,-0.2271,-0.226,-0.2949,-0.3609,-0.3942,-0.3942,-0.3942,-0.3942,-0.3942,-0.3942,-0.3942,-0.3942,-0.3942,-0.3942,-0.3942,-0.4064,-0.4268,-0.4268,-0.435,-0.4518,-0.4518,-0.4518,-0.4518,-0.4371,-0.4296,-0.4296,-0.411,-0.4075,-0.4146,-0.4146,-0.4195,-0.4275,-0.4275,-0.4283,-0.43,-0.43,-0.43,-0.43,-0.43,-0.43,-0.4344,-0.4569,-0.4614,-0.4659,-0.4832,-0.5359,-0.6018,-0.6065,-0.659,-0.7204,-0.7244,-0.7248,-0.7288,-0.7464,-0.7735,-0.8181,-0.91,-0.9501,-0.9859,-1.0603,-1.0955,-1.122,-1.1492,-1.1677,-1.2051,-1.2673,-1.2813,-1.2813,-1.2813,-1.2813,-1.2813,-1.2813,-1.2813,-1.2813,-1.2813,-1.2813,-1.2813,-1.2813,-1.3201,-1.3443,-1.3443,-1.3919,-1.4112,-1.3835,-1.4064,-1.425,-1.4298,-1.4298,-1.4298,-1.4298,-1.4298,-1.4298,-1.4298,-1.4298,-1.4298,0.2433,0.2433,0.2393,0.2196,0.2157,0.2079,0.1807,0.0,0.169,0.1611,0.0,0.1257,0.1257,0.0,0.0,-0.0152,-0.0889,-0.1439,-0.1446,-0.1553,-0.2172,-0.3636,-0.3835,-0.3835,-0.3835,-0.3835,-0.3835,-0.3835,-0.3835,-0.3835,-0.3835,-0.3835,-0.3833,-0.3872,-0.3872,-0.3872,-0.3911,-0.3911,-0.3911,-0.3913,-0.3955,-0.3954,-0.3956,-0.3997,-0.3998,-0.4008,-0.4008,-0.4104,-0.4231,-0.4231,-0.4232,-0.43,-0.43,-0.43,-0.43,-0.43,-0.43,-0.43,-0.4344,-0.4344,-0.4344,-0.4389,-0.4431,-0.4565,-0.4835,-0.4968,-0.5102,-0.5275,-0.5317,-0.5492,-0.6325,-0.6773,-0.7217,-0.8133,-0.8492,-0.8675,-0.8807,-0.9038,-0.9269,-0.941,-0.9596,-1.0402,-1.2474,-1.2813,-1.2813,-1.2813,-1.2813,-1.2813,-1.2813,-1.2813,-1.2813,-1.2813,-1.2813,-1.2813,-1.2813,-1.3001,-1.3147,-1.3147,-1.3636,-1.3835,-1.3545,-1.3786,-1.407,-1.4298,-1.4298,-1.4298,-1.4298,-1.4298,-1.4298,-1.4298,-1.4298,-1.4298,0.2511,0.2511,0.247,0.2392,0.2392,0.2354,0.2277,0.2158,0.208,0.208,0.0,0.0,0.0,0.0,0.0,0.0,0.0389,-0.0234,-0.0348,-0.0778,-0.1567,-0.2901,-0.3059,-0.3255,-0.3763,-0.3802,-0.3802,-0.3802,-0.3802,-0.3802,-0.3802,-0.3802,-0.3802,-0.3802,-0.3802,-0.3802,-0.3802,-0.3802,-0.3802,-0.3802,-0.3841,-0.3859,-0.3861,-0.3859,-0.3908,-0.3957,-0.3957,-0.4008,-0.4093,-0.4093,-0.4144,-0.4226,-0.4226,-0.4257,-0.43,-0.43,-0.43,-0.43,-0.43,-0.43,-0.43,-0.43,-0.43,-0.43,-0.4433,-0.448,-0.4478,-0.4567,-0.461,-0.4699,-0.5095,-0.545,-0.598,-0.6946,-0.7438,-0.7841,-0.8368,-0.8601,-0.8751,-0.8931,-0.911,-0.9574,-1.0626,-1.139,-1.2063,-1.271,-1.2813,-1.2813,-1.2813,-1.2813,-1.2813,-1.2813,-1.2813,-1.2813,-1.2813,-1.3001,-1.3098,-1.3098,-1.3298,-1.3443,-1.3491,-1.3443,-1.3539,-1.3823,-1.3973,-1.407,-1.407,-1.4202,-1.4298,-1.4298,-1.4298,-1.4298,0.2511,0.2511,0.2511,0.2511,0.2511,0.2511,0.2511,0.2392,0.2275,0.2275,0.2119,0.0,0.0,0.0,0.1883,0.187,0.0,0.09,0.0738,0.0234,-0.0627,-0.1999,-0.2353,-0.2823,-0.3724,-0.3802,-0.3802,-0.3802,-0.3802,-0.3802,-0.3802,-0.3802,-0.3802,-0.3802,-0.3802,-0.3802,-0.3802,-0.3802,-0.3802,-0.3802,-0.3802,-0.3802,-0.3802,-0.3802,-0.3839,-0.3863,-0.3863,-0.3914,-0.3956,-0.3956,-0.4067,-0.4216,-0.4216,-0.4224,-0.43,-0.43,-0.43,-0.43,-0.43,-0.43,-0.43,-0.43,-0.43,-0.43,-0.43,-0.43,-0.43,-0.43,-0.43,-0.43,-0.43,-0.461,-0.5099,-0.5758,-0.6296,-0.683,-0.7489,-0.7709,-0.7801,-0.805,-0.818,-0.8357,-0.8855,-0.9934,-1.1028,-1.1824,-1.2165,-1.2365,-1.2365,-1.2613,-1.2813,-1.2813,-1.2813,-1.2813,-1.2813,-1.291,-1.305,-1.3098,-1.305,-1.3152,-1.3491,-1.3244,-1.3249,-1.3491,-1.369,-1.3786,-1.3786,-1.3968,-1.4058,-1.4058,-1.425,-1.4298,0.2511,0.2511,0.2511,0.2511,0.2511,0.2511,0.2511,0.2511,0.247,0.247,0.2314,0.2195,0.2195,0.2042,0.1872,0.1828,0.1819,0.0,0.0,0.1781,0.102,-0.1097,-0.2038,-0.2823,-0.3724,-0.3802,-0.3802,-0.3802,-0.3802,-0.3802,-0.3802,-0.3802,-0.3802,-0.3802,-0.3802,-0.3802,-0.3802,-0.3802,-0.3802,-0.3802,-0.3802,-0.3802,-0.3802,-0.3802,-0.3804,-0.3806,-0.3806,-0.3859,-0.3903,-0.3903,-0.401,-0.4216,-0.4216,-0.4224,-0.43,-0.43,-0.43,-0.43,-0.43,-0.43,-0.43,-0.43,-0.43,-0.43,-0.43,-0.43,-0.43,-0.43,-0.43,-0.43,-0.43,-0.4525,-0.4705,-0.475,-0.5104,-0.546,-0.5505,-0.5641,-0.581,-0.5971,-0.5996,-0.636,-0.7567,-0.8798,-0.9657,-0.9706,-1.0587,-1.1268,-1.1268,-1.2165,-1.2813,-1.2813,-1.2813,-1.2813,-1.2813,-1.2813,-1.291,-1.3098,-1.291,-1.3007,-1.3491,-1.3244,-1.3249,-1.3491,-1.3491,-1.3491,-1.3491,-1.3539,-1.3539,-1.3539,-1.4058,-1.4298,0.2511,0.2511,0.2511,0.2511,0.2511,0.2511,0.2511,0.2511,0.2511,0.2511,0.2431,0.2392,0.2392,0.2354,0.2271,0.2251,0.2265,0.2231,0.0,0.1954,0.1414,0.0118,-0.0862,-0.1567,-0.1841,-0.2508,-0.2942,-0.2942,-0.3489,-0.3802,-0.3802,-0.3802,-0.3802,-0.3802,-0.3802,-0.3802,-0.3802,-0.3802,-0.3802,-0.3802,-0.3214,-0.2942,-0.2942,-0.2942,-0.2942,-0.2942,-0.3217,-0.3508,-0.381,-0.3495,-0.3478,-0.3622,-0.393,-0.3963,-0.3824,-0.4188,-0.43,-0.43,-0.43,-0.43,-0.43,-0.43,-0.43,-0.43,-0.43,-0.43,-0.43,-0.43,-0.43,-0.43,-0.43,-0.448,-0.4705,-0.4705,-0.4926,-0.5144,-0.5144,-0.5191,-0.5292,-0.551,-0.5625,-0.5872,-0.6418,-0.6944,-0.7763,-0.9264,-0.9869,-1.0145,-1.0145,-1.0444,-1.069,-1.069,-1.069,-1.069,-1.069,-1.069,-1.069,-1.0788,-1.0739,-1.0739,-1.0935,-1.1521,-1.1912,-1.196,-1.2802,-1.3165,-1.3062,-1.3193,-1.3197,-1.3037,-1.3223,-1.3403,0.2511,0.2511,0.255,0.2668,0.2707,0.2707,0.2707,0.2707,0.2668,0.2511,0.2511,0.2511,0.2511,0.2511,0.2511,0.2511,0.2511,0.247,0.0,0.2199,0.1923,0.1333,0.0313,-0.047,-0.0783,-0.1411,-0.1842,-0.1842,-0.2429,-0.2781,-0.2781,-0.286,-0.2899,-0.2899,-0.2899,-0.2899,-0.2899,-0.2899,-0.2899,-0.2899,-0.2352,-0.2038,-0.1921,-0.1921,-0.1882,-0.1842,-0.2117,-0.2391,-0.2624,-0.2352,-0.2304,-0.2437,-0.2704,-0.2722,-0.2695,-0.3864,-0.43,-0.43,-0.43,-0.43,-0.43,-0.43,-0.43,-0.43,-0.43,-0.43,-0.4293,-0.4263,-0.4275,-0.4291,-0.4263,-0.4412,-0.4569,-0.4569,-0.4748,-0.4879,-0.4879,-0.4966,-0.5055,-0.5235,-0.534,-0.5479,-0.5705,-0.585,-0.6435,-0.7984,-0.8623,-0.8937,-0.8937,-0.922,-0.9461,-0.9461,-0.9518,-0.9535,-0.96,-0.9608,-0.9608,-0.9608,-0.9608,-0.9608,-0.9608,-1.0243,-1.06,-1.0577,-1.1356,-1.169,-1.152,-1.1698,-1.1708,-1.1523,-1.1445,-1.1532]}]]